Wetterdaten: Sonntag, 25.06.2017
Datum Zeit Temp. A. Pool Temp. Feuchte A. Luftdruck Regen Wind Richtung Richtung Sonnenschein ET UV Solar Taupunkt Windchill Windben Empfang
25.06.2017 00:00 23,0 C 27,8 C 70 % 1012,7 hPa 0,0 l/m 6,2 km/h (2 Bft) W-SW 239 0 min 0,000 mm 0,0 UV-I 0 W/m 17,2 C 23,0 C 9,7 km/h (2 Bft) 96,23 %
25.06.2017 00:02 23,0 C 27,8 C 70 % 1012,7 hPa 0,0 l/m 7,3 km/h (2 Bft) SW 232 0 min 0,000 mm 0,0 UV-I 0 W/m 17,2 C 22,7 C 14,5 km/h (3 Bft) 96,55 %
25.06.2017 00:04 22,9 C 27,8 C 70 % 1012,7 hPa 0,0 l/m 6,7 km/h (2 Bft) S-SW 210 0 min 0,000 mm 0,0 UV-I 0 W/m 17,1 C 22,8 C 9,7 km/h (2 Bft) 98,21 %
25.06.2017 00:06 22,9 C 27,8 C 70 % 1012,7 hPa 0,0 l/m 6,6 km/h (2 Bft) SW 232 0 min 0,000 mm 0,0 UV-I 0 W/m 17,1 C 22,8 C 9,7 km/h (2 Bft) 100,00 %
25.06.2017 00:08 22,9 C 27,8 C 70 % 1012,7 hPa 0,0 l/m 5,1 km/h (1 Bft) SW 225 0 min 0,000 mm 0,0 UV-I 0 W/m 17,1 C 22,9 C 6,4 km/h (2 Bft) 97,56 %
25.06.2017 00:10 22,9 C 27,8 C 70 % 1012,7 hPa 0,0 l/m 6,6 km/h (2 Bft) SW 232 0 min 0,000 mm 0,0 UV-I 0 W/m 17,1 C 22,8 C 11,3 km/h (2 Bft) 100,00 %
25.06.2017 00:12 22,9 C 27,8 C 70 % 1012,7 hPa 0,0 l/m 5,9 km/h (2 Bft) S-SW 208 0 min 0,000 mm 0,0 UV-I 0 W/m 17,1 C 22,9 C 8,0 km/h (2 Bft) 97,73 %
25.06.2017 00:14 22,9 C 27,8 C 70 % 1012,6 hPa 0,0 l/m 6,7 km/h (2 Bft) S-SW 209 0 min 0,000 mm 0,0 UV-I 0 W/m 17,1 C 22,8 C 9,7 km/h (2 Bft) 98,11 %
25.06.2017 00:16 22,9 C 27,8 C 70 % 1012,6 hPa 0,0 l/m 4,6 km/h (1 Bft) SW 217 0 min 0,000 mm 0,0 UV-I 0 W/m 17,1 C 22,9 C 8,0 km/h (2 Bft) 97,14 %
25.06.2017 00:18 22,9 C 27,8 C 70 % 1012,7 hPa 0,0 l/m 5,0 km/h (1 Bft) SW 228 0 min 0,000 mm 0,0 UV-I 0 W/m 17,1 C 22,9 C 8,0 km/h (2 Bft) 100,00 %
25.06.2017 00:20 22,9 C 27,8 C 70 % 1012,6 hPa 0,0 l/m 5,5 km/h (1 Bft) SW 228 0 min 0,000 mm 0,0 UV-I 0 W/m 17,1 C 22,9 C 8,0 km/h (2 Bft) 100,00 %
25.06.2017 00:22 22,9 C 27,8 C 70 % 1012,6 hPa 0,0 l/m 6,1 km/h (2 Bft) SW 221 0 min 0,000 mm 0,0 UV-I 0 W/m 17,1 C 22,9 C 8,0 km/h (2 Bft) 100,00 %
25.06.2017 00:24 22,9 C 27,8 C 69 % 1012,6 hPa 0,0 l/m 5,4 km/h (1 Bft) S-SW 206 0 min 0,000 mm 0,0 UV-I 0 W/m 16,9 C 22,9 C 8,0 km/h (2 Bft) 97,92 %
25.06.2017 00:26 22,9 C 27,8 C 70 % 1012,5 hPa 0,0 l/m 4,7 km/h (1 Bft) SW 224 0 min 0,000 mm 0,0 UV-I 0 W/m 17,1 C 22,9 C 6,4 km/h (2 Bft) 96,36 %
25.06.2017 00:28 22,8 C 27,8 C 70 % 1012,5 hPa 0,0 l/m 4,0 km/h (1 Bft) S-SW 200 0 min 0,000 mm 0,0 UV-I 0 W/m 17,0 C 22,8 C 9,7 km/h (2 Bft) 100,00 %
25.06.2017 00:30 22,8 C 27,8 C 70 % 1012,5 hPa 0,0 l/m 4,0 km/h (1 Bft) S-SW 203 0 min 0,000 mm 0,0 UV-I 0 W/m 17,0 C 22,8 C 6,4 km/h (2 Bft) 97,62 %
25.06.2017 00:32 22,8 C 27,8 C 70 % 1012,4 hPa 0,0 l/m 4,1 km/h (1 Bft) SW 217 0 min 0,000 mm 0,0 UV-I 0 W/m 17,0 C 22,8 C 6,4 km/h (2 Bft) 100,00 %
25.06.2017 00:34 22,8 C 27,8 C 70 % 1012,5 hPa 0,0 l/m 5,4 km/h (1 Bft) SW 217 0 min 0,000 mm 0,0 UV-I 0 W/m 17,0 C 22,8 C 6,4 km/h (2 Bft) 98,31 %
25.06.2017 00:36 22,8 C 27,8 C 70 % 1012,4 hPa 0,0 l/m 5,8 km/h (2 Bft) SW 222 0 min 0,000 mm 0,0 UV-I 0 W/m 17,0 C 22,8 C 9,7 km/h (2 Bft) 97,87 %
25.06.2017 00:38 22,7 C 27,8 C 70 % 1012,5 hPa 0,0 l/m 4,7 km/h (1 Bft) S-SW 209 0 min 0,000 mm 0,0 UV-I 0 W/m 16,9 C 22,7 C 6,4 km/h (2 Bft) 100,00 %
25.06.2017 00:40 22,7 C 27,8 C 70 % 1012,4 hPa 0,0 l/m 5,4 km/h (1 Bft) S-SW 209 0 min 0,000 mm 0,0 UV-I 0 W/m 16,9 C 22,7 C 8,0 km/h (2 Bft) 95,45 %
25.06.2017 00:42 22,7 C 27,8 C 70 % 1012,4 hPa 0,0 l/m 4,6 km/h (1 Bft) S-SW 209 0 min 0,000 mm 0,0 UV-I 0 W/m 16,9 C 22,7 C 6,4 km/h (2 Bft) 96,00 %
25.06.2017 00:44 22,6 C 27,8 C 70 % 1012,3 hPa 0,0 l/m 4,9 km/h (1 Bft) SW 215 0 min 0,000 mm 0,0 UV-I 0 W/m 16,8 C 22,6 C 8,0 km/h (2 Bft) 98,00 %
25.06.2017 00:46 22,6 C 27,8 C 70 % 1012,3 hPa 0,0 l/m 4,7 km/h (1 Bft) SW 225 0 min 0,000 mm 0,0 UV-I 0 W/m 16,8 C 22,6 C 6,4 km/h (2 Bft) 97,56 %
25.06.2017 00:48 22,6 C 27,8 C 71 % 1012,3 hPa 0,0 l/m 3,9 km/h (1 Bft) SW 225 0 min 0,000 mm 0,0 UV-I 0 W/m 17,1 C 22,6 C 6,4 km/h (2 Bft) 97,56 %
25.06.2017 00:50 22,5 C 27,8 C 71 % 1012,3 hPa 0,0 l/m 5,8 km/h (2 Bft) SW 229 0 min 0,000 mm 0,0 UV-I 0 W/m 17,0 C 22,5 C 6,4 km/h (2 Bft) 96,23 %
25.06.2017 00:52 22,5 C 27,8 C 71 % 1012,2 hPa 0,0 l/m 4,3 km/h (1 Bft) SW 229 0 min 0,000 mm 0,0 UV-I 0 W/m 17,0 C 22,5 C 6,4 km/h (2 Bft) 96,00 %
25.06.2017 00:54 22,4 C 27,8 C 71 % 1012,2 hPa 0,0 l/m 4,1 km/h (1 Bft) SW 229 0 min 0,000 mm 0,0 UV-I 0 W/m 16,9 C 22,4 C 6,4 km/h (2 Bft) 97,37 %
25.06.2017 00:56 22,4 C 27,8 C 72 % 1012,2 hPa 0,0 l/m 5,7 km/h (1 Bft) SW 234 0 min 0,000 mm 0,0 UV-I 0 W/m 17,1 C 22,4 C 8,0 km/h (2 Bft) 95,74 %
25.06.2017 00:58 22,3 C 27,8 C 72 % 1012,2 hPa 0,0 l/m 6,8 km/h (2 Bft) SW 227 0 min 0,000 mm 0,0 UV-I 0 W/m 17,0 C 22,2 C 11,3 km/h (2 Bft) 96,23 %
25.06.2017 01:00 22,3 C 27,8 C 72 % 1012,2 hPa 0,0 l/m 5,8 km/h (2 Bft) SW 223 0 min 0,025 mm 0,0 UV-I 0 W/m 17,0 C 22,3 C 9,7 km/h (2 Bft) 96,00 %
25.06.2017 01:01 22,2 C 27,8 C 72 % 1012,1 hPa 0,0 l/m 4,9 km/h (1 Bft) W-SW 242 0 min 0,000 mm 0,0 UV-I 0 W/m 16,9 C 22,2 C 6,4 km/h (2 Bft) 94,74 %
25.06.2017 01:04 22,2 C 27,8 C 72 % 1012,1 hPa 0,0 l/m 6,5 km/h (2 Bft) W 266 0 min 0,000 mm 0,0 UV-I 0 W/m 16,9 C 22,2 C 9,7 km/h (2 Bft) 92,86 %
25.06.2017 01:06 22,2 C 27,8 C 72 % 1012,0 hPa 0,0 l/m 6,9 km/h (2 Bft) W-SW 253 0 min 0,000 mm 0,0 UV-I 0 W/m 16,9 C 22,0 C 11,3 km/h (2 Bft) 94,87 %
25.06.2017 01:08 22,2 C 27,8 C 72 % 1012,0 hPa 0,0 l/m 8,5 km/h (2 Bft) W 271 0 min 0,000 mm 0,0 UV-I 0 W/m 16,9 C 21,5 C 12,9 km/h (3 Bft) 95,74 %
25.06.2017 01:10 22,1 C 27,8 C 72 % 1012,0 hPa 0,0 l/m 9,2 km/h (2 Bft) W-SW 250 0 min 0,000 mm 0,0 UV-I 0 W/m 16,8 C 21,2 C 14,5 km/h (3 Bft) 92,73 %
25.06.2017 01:12 22,2 C 27,8 C 72 % 1012,0 hPa 0,0 l/m 8,2 km/h (2 Bft) W-SW 252 0 min 0,000 mm 0,0 UV-I 0 W/m 16,9 C 21,6 C 12,9 km/h (3 Bft) 95,45 %
25.06.2017 01:14 22,2 C 27,8 C 72 % 1011,9 hPa 0,0 l/m 11,5 km/h (2 Bft) W 264 0 min 0,000 mm 0,0 UV-I 0 W/m 16,9 C 20,7 C 16,1 km/h (3 Bft) 100,00 %
25.06.2017 01:16 22,2 C 27,8 C 72 % 1011,9 hPa 0,0 l/m 11,6 km/h (2 Bft) W 267 0 min 0,000 mm 0,0 UV-I 0 W/m 16,9 C 20,7 C 16,1 km/h (3 Bft) 94,64 %
25.06.2017 01:18 22,2 C 27,8 C 72 % 1011,8 hPa 0,0 l/m 11,9 km/h (2 Bft) W-SW 248 0 min 0,000 mm 0,0 UV-I 0 W/m 16,9 C 20,6 C 17,7 km/h (3 Bft) 92,11 %
25.06.2017 01:20 22,2 C 27,8 C 72 % 1011,8 hPa 0,0 l/m 12,8 km/h (3 Bft) W-SW 254 0 min 0,000 mm 0,0 UV-I 0 W/m 16,9 C 20,4 C 17,7 km/h (3 Bft) 98,11 %
25.06.2017 01:22 22,2 C 27,8 C 72 % 1011,8 hPa 0,0 l/m 13,0 km/h (3 Bft) W-SW 250 0 min 0,000 mm 0,0 UV-I 0 W/m 16,9 C 20,3 C 19,3 km/h (3 Bft) 95,12 %
25.06.2017 01:24 22,3 C 27,8 C 72 % 1011,8 hPa 0,0 l/m 10,7 km/h (2 Bft) W-SW 257 0 min 0,000 mm 0,0 UV-I 0 W/m 17,0 C 21,0 C 16,1 km/h (3 Bft) 95,45 %
25.06.2017 01:26 22,3 C 27,8 C 72 % 1011,8 hPa 0,0 l/m 10,1 km/h (2 Bft) W-SW 244 0 min 0,000 mm 0,0 UV-I 0 W/m 17,0 C 21,2 C 12,9 km/h (3 Bft) 98,21 %
25.06.2017 01:28 22,3 C 27,8 C 71 % 1011,8 hPa 0,0 l/m 10,7 km/h (2 Bft) SW 225 0 min 0,000 mm 0,0 UV-I 0 W/m 16,8 C 21,0 C 16,1 km/h (3 Bft) 94,00 %
25.06.2017 01:30 22,3 C 27,8 C 71 % 1011,9 hPa 0,0 l/m 9,7 km/h (2 Bft) W-SW 246 0 min 0,000 mm 0,0 UV-I 0 W/m 16,8 C 21,3 C 16,1 km/h (3 Bft) 97,37 %
25.06.2017 01:32 22,3 C 27,8 C 72 % 1011,9 hPa 0,0 l/m 9,1 km/h (2 Bft) SW 225 0 min 0,000 mm 0,0 UV-I 0 W/m 17,0 C 21,4 C 12,9 km/h (3 Bft) 96,43 %
25.06.2017 01:34 22,3 C 27,8 C 72 % 1011,9 hPa 0,0 l/m 7,7 km/h (2 Bft) S-SW 213 0 min 0,000 mm 0,0 UV-I 0 W/m 17,0 C 21,9 C 11,3 km/h (2 Bft) 100,00 %
25.06.2017 01:36 22,3 C 27,8 C 72 % 1011,9 hPa 0,0 l/m 6,8 km/h (2 Bft) S-SW 203 0 min 0,000 mm 0,0 UV-I 0 W/m 17,0 C 22,2 C 11,3 km/h (2 Bft) 94,34 %
25.06.2017 01:38 22,3 C 27,8 C 72 % 1011,8 hPa 0,0 l/m 9,8 km/h (2 Bft) S-SW 200 0 min 0,000 mm 0,0 UV-I 0 W/m 17,0 C 21,2 C 14,5 km/h (3 Bft) 97,73 %
25.06.2017 01:40 22,2 C 27,8 C 72 % 1011,8 hPa 0,0 l/m 9,6 km/h (2 Bft) S-SW 202 0 min 0,000 mm 0,0 UV-I 0 W/m 16,9 C 21,2 C 12,9 km/h (3 Bft) 95,83 %
25.06.2017 01:42 22,2 C 27,8 C 72 % 1011,7 hPa 0,0 l/m 7,7 km/h (2 Bft) S-SW 202 0 min 0,000 mm 0,0 UV-I 0 W/m 16,9 C 21,8 C 12,9 km/h (3 Bft) 96,00 %
25.06.2017 01:44 22,1 C 27,8 C 72 % 1011,7 hPa 0,0 l/m 7,9 km/h (2 Bft) S-SW 194 0 min 0,000 mm 0,0 UV-I 0 W/m 16,8 C 21,6 C 12,9 km/h (3 Bft) 95,45 %
25.06.2017 01:46 22,1 C 27,8 C 73 % 1011,7 hPa 0,0 l/m 7,8 km/h (2 Bft) SW 217 0 min 0,000 mm 0,0 UV-I 0 W/m 17,0 C 21,6 C 12,9 km/h (3 Bft) 97,62 %
25.06.2017 01:48 22,0 C 27,8 C 73 % 1011,7 hPa 0,0 l/m 9,0 km/h (2 Bft) SW 215 0 min 0,000 mm 0,0 UV-I 0 W/m 16,9 C 21,1 C 11,3 km/h (2 Bft) 98,00 %
25.06.2017 01:50 21,9 C 27,8 C 73 % 1011,7 hPa 0,0 l/m 8,7 km/h (2 Bft) SW 221 0 min 0,000 mm 0,0 UV-I 0 W/m 16,8 C 21,1 C 12,9 km/h (3 Bft) 97,56 %
25.06.2017 01:52 21,9 C 27,8 C 73 % 1011,7 hPa 0,0 l/m 8,4 km/h (2 Bft) S-SW 198 0 min 0,000 mm 0,0 UV-I 0 W/m 16,8 C 21,2 C 11,3 km/h (2 Bft) 98,11 %
25.06.2017 01:54 21,8 C 27,8 C 73 % 1011,7 hPa 0,0 l/m 7,5 km/h (2 Bft) SW 229 0 min 0,000 mm 0,0 UV-I 0 W/m 16,7 C 21,4 C 12,9 km/h (3 Bft) 92,45 %
25.06.2017 01:56 21,8 C 27,8 C 73 % 1011,7 hPa 0,0 l/m 9,5 km/h (2 Bft) W-SW 244 0 min 0,000 mm 0,0 UV-I 0 W/m 16,7 C 20,8 C 14,5 km/h (3 Bft) 97,56 %
25.06.2017 01:58 21,8 C 27,8 C 74 % 1011,8 hPa 0,0 l/m 8,5 km/h (2 Bft) SW 229 0 min 0,000 mm 0,0 UV-I 0 W/m 17,0 C 21,1 C 14,5 km/h (3 Bft) 95,12 %
25.06.2017 02:00 21,7 C 27,8 C 74 % 1011,8 hPa 0,0 l/m 8,3 km/h (2 Bft) SW 225 0 min 0,051 mm 0,0 UV-I 0 W/m 16,9 C 21,0 C 11,3 km/h (2 Bft) 96,00 %
25.06.2017 02:02 21,7 C 27,8 C 74 % 1011,8 hPa 0,0 l/m 9,1 km/h (2 Bft) W-SW 244 0 min 0,000 mm 0,0 UV-I 0 W/m 16,9 C 20,8 C 12,9 km/h (3 Bft) 95,12 %
25.06.2017 02:04 21,7 C 27,8 C 74 % 1011,8 hPa 0,0 l/m 8,3 km/h (2 Bft) SW 221 0 min 0,000 mm 0,0 UV-I 0 W/m 16,9 C 21,0 C 11,3 km/h (2 Bft) 98,21 %
25.06.2017 02:06 21,6 C 27,8 C 74 % 1011,9 hPa 0,0 l/m 7,2 km/h (2 Bft) S-SW 211 0 min 0,000 mm 0,0 UV-I 0 W/m 16,8 C 21,3 C 9,7 km/h (2 Bft) 96,00 %
25.06.2017 02:08 21,5 C 27,8 C 75 % 1011,9 hPa 0,0 l/m 6,1 km/h (2 Bft) SW 221 0 min 0,000 mm 0,0 UV-I 0 W/m 16,9 C 21,5 C 12,9 km/h (3 Bft) 92,11 %
25.06.2017 02:10 21,4 C 27,8 C 75 % 1011,9 hPa 0,0 l/m 4,3 km/h (1 Bft) SW 234 0 min 0,000 mm 0,0 UV-I 0 W/m 16,8 C 21,4 C 6,4 km/h (2 Bft) 98,11 %
25.06.2017 02:12 21,4 C 27,8 C 75 % 1011,8 hPa 0,0 l/m 5,8 km/h (2 Bft) SW 223 0 min 0,000 mm 0,0 UV-I 0 W/m 16,8 C 21,4 C 8,0 km/h (2 Bft) 92,59 %
25.06.2017 02:14 21,4 C 27,8 C 75 % 1011,9 hPa 0,0 l/m 6,3 km/h (2 Bft) SW 229 0 min 0,000 mm 0,0 UV-I 0 W/m 16,8 C 21,4 C 9,7 km/h (2 Bft) 97,14 %
25.06.2017 02:16 21,4 C 27,8 C 75 % 1011,8 hPa 0,0 l/m 5,9 km/h (2 Bft) SW 221 0 min 0,000 mm 0,0 UV-I 0 W/m 16,8 C 21,4 C 9,7 km/h (2 Bft) 97,37 %
25.06.2017 02:18 21,4 C 27,8 C 75 % 1011,8 hPa 0,0 l/m 3,5 km/h (1 Bft) S-SW 198 0 min 0,000 mm 0,0 UV-I 0 W/m 16,8 C 21,4 C 6,4 km/h (2 Bft) 95,74 %
25.06.2017 02:20 21,3 C 27,8 C 75 % 1011,9 hPa 0,0 l/m 3,4 km/h (1 Bft) S-SW 203 0 min 0,000 mm 0,0 UV-I 0 W/m 16,7 C 21,3 C 6,4 km/h (2 Bft) 94,64 %
25.06.2017 02:22 21,3 C 27,8 C 75 % 1011,9 hPa 0,0 l/m 5,5 km/h (1 Bft) S-SW 205 0 min 0,000 mm 0,0 UV-I 0 W/m 16,7 C 21,3 C 8,0 km/h (2 Bft) 97,37 %
25.06.2017 02:24 21,3 C 27,8 C 75 % 1011,8 hPa 0,0 l/m 5,5 km/h (1 Bft) S 180 0 min 0,000 mm 0,0 UV-I 0 W/m 16,7 C 21,3 C 9,7 km/h (2 Bft) 96,23 %
25.06.2017 02:26 21,3 C 27,8 C 75 % 1011,8 hPa 0,0 l/m 5,1 km/h (1 Bft) S-SW 201 0 min 0,000 mm 0,0 UV-I 0 W/m 16,7 C 21,3 C 8,0 km/h (2 Bft) 95,24 %
25.06.2017 02:28 21,2 C 27,8 C 75 % 1011,9 hPa 0,0 l/m 7,3 km/h (2 Bft) S-SW 197 0 min 0,000 mm 0,0 UV-I 0 W/m 16,6 C 20,9 C 9,7 km/h (2 Bft) 95,12 %
25.06.2017 02:30 21,2 C 27,8 C 75 % 1011,9 hPa 0,0 l/m 6,8 km/h (2 Bft) S-SW 204 0 min 0,000 mm 0,0 UV-I 0 W/m 16,6 C 21,1 C 9,7 km/h (2 Bft) 96,23 %
25.06.2017 02:32 21,2 C 27,8 C 76 % 1011,8 hPa 0,0 l/m 8,6 km/h (2 Bft) SW 214 0 min 0,000 mm 0,0 UV-I 0 W/m 16,8 C 20,4 C 12,9 km/h (3 Bft) 96,00 %
25.06.2017 02:34 21,2 C 27,8 C 76 % 1011,7 hPa 0,0 l/m 8,8 km/h (2 Bft) SW 225 0 min 0,000 mm 0,0 UV-I 0 W/m 16,8 C 20,3 C 11,3 km/h (2 Bft) 98,00 %
25.06.2017 02:36 21,2 C 27,8 C 76 % 1011,8 hPa 0,0 l/m 7,7 km/h (2 Bft) S 183 0 min 0,000 mm 0,0 UV-I 0 W/m 16,8 C 20,7 C 11,3 km/h (2 Bft) 97,87 %
25.06.2017 02:38 21,2 C 27,8 C 76 % 1011,7 hPa 0,0 l/m 7,4 km/h (2 Bft) S-SW 208 0 min 0,000 mm 0,0 UV-I 0 W/m 16,8 C 20,8 C 9,7 km/h (2 Bft) 97,87 %
25.06.2017 02:40 21,2 C 27,8 C 76 % 1011,7 hPa 0,0 l/m 7,2 km/h (2 Bft) SW 228 0 min 0,000 mm 0,0 UV-I 0 W/m 16,8 C 20,9 C 9,7 km/h (2 Bft) 97,14 %
25.06.2017 02:42 21,1 C 27,8 C 76 % 1011,6 hPa 0,0 l/m 6,1 km/h (2 Bft) SW 223 0 min 0,000 mm 0,0 UV-I 0 W/m 16,7 C 21,1 C 8,0 km/h (2 Bft) 98,11 %
25.06.2017 02:44 21,1 C 27,8 C 76 % 1011,7 hPa 0,0 l/m 7,5 km/h (2 Bft) SW 235 0 min 0,000 mm 0,0 UV-I 0 W/m 16,7 C 20,7 C 9,7 km/h (2 Bft) 93,18 %
25.06.2017 02:46 21,1 C 27,8 C 76 % 1011,6 hPa 0,0 l/m 7,3 km/h (2 Bft) SW 236 0 min 0,000 mm 0,0 UV-I 0 W/m 16,7 C 20,8 C 11,3 km/h (2 Bft) 96,55 %
25.06.2017 02:48 21,0 C 27,8 C 76 % 1011,6 hPa 0,0 l/m 7,5 km/h (2 Bft) SW 232 0 min 0,000 mm 0,0 UV-I 0 W/m 16,6 C 20,6 C 11,3 km/h (2 Bft) 95,77 %
25.06.2017 02:50 20,9 C 27,8 C 76 % 1011,6 hPa 0,0 l/m 6,1 km/h (2 Bft) S-SW 205 0 min 0,000 mm 0,0 UV-I 0 W/m 16,5 C 20,9 C 9,7 km/h (2 Bft) 97,37 %
25.06.2017 02:52 20,9 C 27,8 C 77 % 1011,6 hPa 0,0 l/m 6,2 km/h (2 Bft) SW 216 0 min 0,000 mm 0,0 UV-I 0 W/m 16,7 C 20,9 C 9,7 km/h (2 Bft) 95,74 %
25.06.2017 02:54 20,8 C 27,8 C 77 % 1011,6 hPa 0,0 l/m 6,2 km/h (2 Bft) SW 217 0 min 0,000 mm 0,0 UV-I 0 W/m 16,6 C 20,8 C 9,7 km/h (2 Bft) 96,23 %
25.06.2017 02:56 20,8 C 27,8 C 77 % 1011,6 hPa 0,0 l/m 6,5 km/h (2 Bft) SW 223 0 min 0,000 mm 0,0 UV-I 0 W/m 16,6 C 20,8 C 9,7 km/h (2 Bft) 96,00 %
25.06.2017 02:58 20,7 C 27,8 C 77 % 1011,6 hPa 0,0 l/m 7,3 km/h (2 Bft) SW 225 0 min 0,000 mm 0,0 UV-I 0 W/m 16,5 C 20,4 C 9,7 km/h (2 Bft) 97,37 %
25.06.2017 03:00 20,7 C 27,8 C 78 % 1011,6 hPa 0,0 l/m 6,8 km/h (2 Bft) SW 223 0 min 0,026 mm 0,0 UV-I 0 W/m 16,7 C 20,5 C 11,3 km/h (2 Bft) 94,00 %
25.06.2017 03:02 20,7 C 27,8 C 78 % 1011,6 hPa 0,0 l/m 7,1 km/h (2 Bft) SW 232 0 min 0,000 mm 0,0 UV-I 0 W/m 16,7 C 20,4 C 9,7 km/h (2 Bft) 98,21 %
25.06.2017 03:04 20,6 C 27,8 C 78 % 1011,6 hPa 0,0 l/m 6,8 km/h (2 Bft) SW 227 0 min 0,000 mm 0,0 UV-I 0 W/m 16,6 C 20,4 C 9,7 km/h (2 Bft) 94,87 %
25.06.2017 03:06 20,6 C 27,8 C 78 % 1011,6 hPa 0,0 l/m 6,0 km/h (2 Bft) W-SW 238 0 min 0,000 mm 0,0 UV-I 0 W/m 16,6 C 20,6 C 9,7 km/h (2 Bft) 93,62 %
25.06.2017 03:08 20,5 C 27,8 C 78 % 1011,6 hPa 0,0 l/m 6,1 km/h (2 Bft) SW 214 0 min 0,000 mm 0,0 UV-I 0 W/m 16,5 C 20,5 C 9,7 km/h (2 Bft) 94,00 %
25.06.2017 03:10 20,5 C 27,8 C 78 % 1011,6 hPa 0,0 l/m 6,2 km/h (2 Bft) SW 222 0 min 0,000 mm 0,0 UV-I 0 W/m 16,5 C 20,5 C 8,0 km/h (2 Bft) 96,00 %
25.06.2017 03:12 20,5 C 27,8 C 78 % 1011,5 hPa 0,0 l/m 6,3 km/h (2 Bft) SW 234 0 min 0,000 mm 0,0 UV-I 0 W/m 16,5 C 20,5 C 8,0 km/h (2 Bft) 100,00 %
25.06.2017 03:14 20,5 C 27,8 C 78 % 1011,6 hPa 0,0 l/m 6,3 km/h (2 Bft) SW 219 0 min 0,000 mm 0,0 UV-I 0 W/m 16,5 C 20,5 C 8,0 km/h (2 Bft) 98,31 %
25.06.2017 03:16 20,4 C 27,8 C 78 % 1011,5 hPa 0,0 l/m 6,7 km/h (2 Bft) SW 215 0 min 0,000 mm 0,0 UV-I 0 W/m 16,4 C 20,3 C 8,0 km/h (2 Bft) 100,00 %
25.06.2017 03:18 20,4 C 27,8 C 78 % 1011,5 hPa 0,0 l/m 6,2 km/h (2 Bft) SW 233 0 min 0,000 mm 0,0 UV-I 0 W/m 16,4 C 20,4 C 8,0 km/h (2 Bft) 95,12 %
25.06.2017 03:20 20,4 C 27,8 C 78 % 1011,6 hPa 0,0 l/m 6,5 km/h (2 Bft) SW 229 0 min 0,000 mm 0,0 UV-I 0 W/m 16,4 C 20,4 C 9,7 km/h (2 Bft) 100,00 %
25.06.2017 03:22 20,4 C 27,8 C 78 % 1011,5 hPa 0,0 l/m 6,7 km/h (2 Bft) SW 223 0 min 0,000 mm 0,0 UV-I 0 W/m 16,4 C 20,3 C 8,0 km/h (2 Bft) 100,00 %
25.06.2017 03:24 20,3 C 27,8 C 78 % 1011,5 hPa 0,0 l/m 5,7 km/h (1 Bft) SW 230 0 min 0,000 mm 0,0 UV-I 0 W/m 16,3 C 20,3 C 8,0 km/h (2 Bft) 93,55 %
25.06.2017 03:26 20,3 C 27,8 C 78 % 1011,6 hPa 0,0 l/m 5,8 km/h (2 Bft) SW 226 0 min 0,000 mm 0,0 UV-I 0 W/m 16,3 C 20,3 C 8,0 km/h (2 Bft) 100,00 %
25.06.2017 03:28 20,3 C 27,8 C 78 % 1011,5 hPa 0,0 l/m 6,0 km/h (2 Bft) SW 219 0 min 0,000 mm 0,0 UV-I 0 W/m 16,3 C 20,3 C 8,0 km/h (2 Bft) 98,00 %
25.06.2017 03:30 20,3 C 27,8 C 78 % 1011,6 hPa 0,0 l/m 7,0 km/h (2 Bft) S-SW 211 0 min 0,000 mm 0,0 UV-I 0 W/m 16,3 C 20,1 C 9,7 km/h (2 Bft) 100,00 %
25.06.2017 03:32 20,2 C 27,8 C 78 % 1011,7 hPa 0,0 l/m 7,2 km/h (2 Bft) S-SW 207 0 min 0,000 mm 0,0 UV-I 0 W/m 16,2 C 19,9 C 8,0 km/h (2 Bft) 100,00 %
25.06.2017 03:34 20,2 C 27,8 C 78 % 1011,6 hPa 0,0 l/m 5,9 km/h (2 Bft) S-SW 211 0 min 0,000 mm 0,0 UV-I 0 W/m 16,2 C 20,2 C 9,7 km/h (2 Bft) 94,74 %
25.06.2017 03:36 20,2 C 27,8 C 78 % 1011,6 hPa 0,0 l/m 6,2 km/h (2 Bft) S-SW 192 0 min 0,000 mm 0,0 UV-I 0 W/m 16,2 C 20,2 C 9,7 km/h (2 Bft) 100,00 %
25.06.2017 03:38 20,2 C 27,8 C 78 % 1011,7 hPa 0,0 l/m 6,3 km/h (2 Bft) S-SW 207 0 min 0,000 mm 0,0 UV-I 0 W/m 16,2 C 20,2 C 8,0 km/h (2 Bft) 98,11 %
25.06.2017 03:40 20,2 C 27,8 C 77 % 1011,7 hPa 0,0 l/m 6,9 km/h (2 Bft) S-SW 206 0 min 0,000 mm 0,0 UV-I 0 W/m 16,0 C 20,0 C 9,7 km/h (2 Bft) 94,00 %
25.06.2017 03:42 20,2 C 27,8 C 77 % 1011,7 hPa 0,0 l/m 6,3 km/h (2 Bft) S-SW 194 0 min 0,000 mm 0,0 UV-I 0 W/m 16,0 C 20,2 C 8,0 km/h (2 Bft) 100,00 %
25.06.2017 03:44 20,3 C 27,8 C 77 % 1011,7 hPa 0,0 l/m 5,6 km/h (1 Bft) S-SW 202 0 min 0,000 mm 0,0 UV-I 0 W/m 16,1 C 20,3 C 9,7 km/h (2 Bft) 98,00 %
25.06.2017 03:46 20,3 C 27,8 C 76 % 1011,8 hPa 0,0 l/m 4,4 km/h (1 Bft) S-SW 196 0 min 0,000 mm 0,0 UV-I 0 W/m 15,9 C 20,3 C 8,0 km/h (2 Bft) 100,00 %
25.06.2017 03:48 20,3 C 27,8 C 76 % 1011,8 hPa 0,0 l/m 4,7 km/h (1 Bft) S-SW 205 0 min 0,000 mm 0,0 UV-I 0 W/m 15,9 C 20,3 C 6,4 km/h (2 Bft) 97,87 %
25.06.2017 03:50 20,3 C 27,8 C 75 % 1011,8 hPa 0,0 l/m 4,5 km/h (1 Bft) S-SW 202 0 min 0,000 mm 0,0 UV-I 0 W/m 15,7 C 20,3 C 6,4 km/h (2 Bft) 100,00 %
25.06.2017 03:52 20,3 C 27,8 C 75 % 1011,8 hPa 0,0 l/m 5,0 km/h (1 Bft) S-SW 202 0 min 0,000 mm 0,0 UV-I 0 W/m 15,7 C 20,3 C 8,0 km/h (2 Bft) 97,87 %
25.06.2017 03:54 20,3 C 27,8 C 75 % 1011,8 hPa 0,0 l/m 4,9 km/h (1 Bft) S-SW 202 0 min 0,000 mm 0,0 UV-I 0 W/m 15,7 C 20,3 C 9,7 km/h (2 Bft) 94,74 %
25.06.2017 03:56 20,3 C 27,8 C 74 % 1011,8 hPa 0,0 l/m 4,1 km/h (1 Bft) S-SW 202 0 min 0,000 mm 0,0 UV-I 0 W/m 15,5 C 20,3 C 6,4 km/h (2 Bft) 98,00 %
25.06.2017 03:58 20,3 C 27,8 C 74 % 1011,8 hPa 0,0 l/m 5,1 km/h (1 Bft) S-SW 200 0 min 0,000 mm 0,0 UV-I 0 W/m 15,5 C 20,3 C 8,0 km/h (2 Bft) 94,34 %
25.06.2017 04:00 20,3 C 27,8 C 74 % 1011,8 hPa 0,0 l/m 5,0 km/h (1 Bft) S-SW 192 0 min 0,025 mm 0,0 UV-I 0 W/m 15,5 C 20,3 C 8,0 km/h (2 Bft) 97,73 %
25.06.2017 04:02 20,3 C 27,8 C 74 % 1011,8 hPa 0,0 l/m 5,0 km/h (1 Bft) S 186 0 min 0,000 mm 0,0 UV-I 0 W/m 15,5 C 20,3 C 6,4 km/h (2 Bft) 100,00 %
25.06.2017 04:04 20,3 C 27,8 C 74 % 1011,8 hPa 0,0 l/m 5,7 km/h (1 Bft) S-SW 213 0 min 0,000 mm 0,0 UV-I 0 W/m 15,5 C 20,3 C 9,7 km/h (2 Bft) 97,87 %
25.06.2017 04:06 20,3 C 27,8 C 74 % 1011,8 hPa 0,0 l/m 5,2 km/h (1 Bft) S-SW 201 0 min 0,000 mm 0,0 UV-I 0 W/m 15,5 C 20,3 C 6,4 km/h (2 Bft) 100,00 %
25.06.2017 04:08 20,3 C 27,8 C 74 % 1011,9 hPa 0,0 l/m 6,2 km/h (2 Bft) S-SW 200 0 min 0,000 mm 0,0 UV-I 0 W/m 15,5 C 20,3 C 9,7 km/h (2 Bft) 100,00 %
25.06.2017 04:10 20,3 C 27,8 C 74 % 1011,8 hPa 0,0 l/m 5,2 km/h (1 Bft) S-SW 194 0 min 0,000 mm 0,0 UV-I 0 W/m 15,5 C 20,3 C 9,7 km/h (2 Bft) 98,00 %
25.06.2017 04:12 20,2 C 27,8 C 74 % 1011,9 hPa 0,0 l/m 6,1 km/h (2 Bft) S-SW 211 0 min 0,000 mm 0,0 UV-I 0 W/m 15,4 C 20,2 C 8,0 km/h (2 Bft) 100,00 %
25.06.2017 04:14 20,2 C 27,8 C 74 % 1011,8 hPa 0,0 l/m 6,7 km/h (2 Bft) SW 215 0 min 0,000 mm 0,0 UV-I 0 W/m 15,4 C 20,1 C 11,3 km/h (2 Bft) 96,30 %
25.06.2017 04:16 20,2 C 27,8 C 75 % 1011,8 hPa 0,0 l/m 8,2 km/h (2 Bft) S-SW 209 0 min 0,000 mm 0,0 UV-I 0 W/m 15,6 C 19,5 C 9,7 km/h (2 Bft) 98,51 %
25.06.2017 04:18 20,2 C 27,8 C 75 % 1011,9 hPa 0,0 l/m 7,6 km/h (2 Bft) S-SW 208 0 min 0,000 mm 0,0 UV-I 0 W/m 15,6 C 19,7 C 11,3 km/h (2 Bft) 100,00 %
25.06.2017 04:20 20,1 C 27,8 C 75 % 1011,8 hPa 0,0 l/m 6,3 km/h (2 Bft) SW 221 0 min 0,000 mm 0,0 UV-I 0 W/m 15,5 C 20,1 C 9,7 km/h (2 Bft) 95,74 %
25.06.2017 04:22 20,1 C 27,8 C 75 % 1011,8 hPa 0,0 l/m 5,9 km/h (2 Bft) S-SW 212 0 min 0,000 mm 0,0 UV-I 0 W/m 15,5 C 20,1 C 9,7 km/h (2 Bft) 100,00 %
25.06.2017 04:24 20,1 C 27,8 C 76 % 1011,8 hPa 0,0 l/m 4,9 km/h (1 Bft) SW 223 0 min 0,000 mm 0,0 UV-I 0 W/m 15,7 C 20,1 C 8,0 km/h (2 Bft) 98,00 %
25.06.2017 04:26 20,0 C 27,8 C 76 % 1011,9 hPa 0,0 l/m 6,1 km/h (2 Bft) SW 229 0 min 0,000 mm 0,0 UV-I 0 W/m 15,6 C 20,0 C 8,0 km/h (2 Bft) 100,00 %
25.06.2017 04:28 20,0 C 27,8 C 76 % 1011,8 hPa 0,0 l/m 6,0 km/h (2 Bft) SW 234 0 min 0,000 mm 0,0 UV-I 0 W/m 15,6 C 20,0 C 9,7 km/h (2 Bft) 97,87 %
25.06.2017 04:30 19,9 C 27,8 C 76 % 1011,8 hPa 0,0 l/m 6,3 km/h (2 Bft) SW 232 0 min 0,000 mm 0,0 UV-I 0 W/m 15,5 C 19,9 C 9,7 km/h (2 Bft) 98,00 %
25.06.2017 04:32 19,8 C 27,8 C 77 % 1011,7 hPa 0,0 l/m 6,2 km/h (2 Bft) SW 235 0 min 0,000 mm 0,0 UV-I 0 W/m 15,6 C 19,8 C 9,7 km/h (2 Bft) 98,04 %
25.06.2017 04:34 19,8 C 27,8 C 77 % 1011,6 hPa 0,0 l/m 4,6 km/h (1 Bft) W-SW 249 0 min 0,000 mm 0,0 UV-I 0 W/m 15,6 C 19,8 C 6,4 km/h (2 Bft) 94,74 %
25.06.2017 04:36 19,7 C 27,8 C 77 % 1011,6 hPa 0,0 l/m 4,2 km/h (1 Bft) W-SW 249 0 min 0,000 mm 0,0 UV-I 0 W/m 15,5 C 19,7 C 6,4 km/h (2 Bft) 98,11 %
25.06.2017 04:38 19,6 C 27,8 C 77 % 1011,6 hPa 0,0 l/m 3,5 km/h (1 Bft) W-SW 249 0 min 0,000 mm 0,0 UV-I 0 W/m 15,5 C 19,6 C 6,4 km/h (2 Bft) 94,74 %
25.06.2017 04:40 19,5 C 27,8 C 77 % 1011,7 hPa 0,0 l/m 5,0 km/h (1 Bft) W-SW 243 0 min 0,000 mm 0,0 UV-I 0 W/m 15,4 C 19,5 C 8,0 km/h (2 Bft) 96,43 %
25.06.2017 04:42 19,4 C 27,8 C 78 % 1011,7 hPa 0,0 l/m 5,3 km/h (1 Bft) W-SW 241 0 min 0,000 mm 0,0 UV-I 0 W/m 15,5 C 19,4 C 8,0 km/h (2 Bft) 96,00 %
25.06.2017 04:44 19,2 C 27,8 C 78 % 1011,7 hPa 0,0 l/m 5,5 km/h (1 Bft) SW 226 0 min 0,000 mm 0,0 UV-I 5 W/m 15,3 C 19,2 C 8,0 km/h (2 Bft) 92,68 %
25.06.2017 04:46 19,1 C 27,8 C 78 % 1011,7 hPa 0,0 l/m 6,4 km/h (2 Bft) W-SW 239 0 min 0,000 mm 0,0 UV-I 0 W/m 15,2 C 19,1 C 11,3 km/h (2 Bft) 98,11 %
25.06.2017 04:48 19,1 C 27,8 C 78 % 1011,6 hPa 0,0 l/m 5,8 km/h (2 Bft) SW 230 0 min 0,000 mm 0,0 UV-I 7 W/m 15,2 C 19,1 C 8,0 km/h (2 Bft) 94,74 %
25.06.2017 04:50 19,1 C 27,8 C 78 % 1011,6 hPa 0,0 l/m 6,2 km/h (2 Bft) W-SW 241 0 min 0,000 mm 0,0 UV-I 7 W/m 15,2 C 19,1 C 11,3 km/h (2 Bft) 94,34 %
25.06.2017 04:52 19,1 C 27,8 C 79 % 1011,6 hPa 0,0 l/m 6,4 km/h (2 Bft) W-SW 248 0 min 0,000 mm 0,0 UV-I 7 W/m 15,4 C 19,1 C 9,7 km/h (2 Bft) 97,56 %
25.06.2017 04:54 19,0 C 27,8 C 79 % 1011,6 hPa 0,0 l/m 6,0 km/h (2 Bft) SW 229 0 min 0,000 mm 0,0 UV-I 8 W/m 15,3 C 19,0 C 8,0 km/h (2 Bft) 96,23 %
25.06.2017 04:56 18,9 C 27,8 C 79 % 1011,6 hPa 0,0 l/m 6,4 km/h (2 Bft) SW 227 0 min 0,000 mm 0,0 UV-I 9 W/m 15,2 C 18,9 C 11,3 km/h (2 Bft) 94,74 %
25.06.2017 04:58 18,9 C 27,8 C 79 % 1011,6 hPa 0,0 l/m 5,2 km/h (1 Bft) W-SW 238 0 min 0,000 mm 0,0 UV-I 9 W/m 15,2 C 18,9 C 8,0 km/h (2 Bft) 98,11 %
25.06.2017 05:00 18,8 C 27,8 C 79 % 1011,7 hPa 0,0 l/m 6,7 km/h (2 Bft) S-SW 204 0 min 0,025 mm 0,0 UV-I 7 W/m 15,1 C 18,7 C 9,7 km/h (2 Bft) 92,00 %
25.06.2017 05:02 18,8 C 27,8 C 79 % 1011,6 hPa 0,0 l/m 6,9 km/h (2 Bft) SW 228 0 min 0,000 mm 0,0 UV-I 7 W/m 15,1 C 18,6 C 9,7 km/h (2 Bft) 97,62 %
25.06.2017 05:04 18,7 C 27,8 C 79 % 1011,6 hPa 0,0 l/m 5,4 km/h (1 Bft) SW 219 0 min 0,000 mm 0,0 UV-I 8 W/m 15,0 C 18,7 C 8,0 km/h (2 Bft) 98,00 %
25.06.2017 05:06 18,7 C 27,8 C 79 % 1011,5 hPa 0,0 l/m 5,1 km/h (1 Bft) SW 224 0 min 0,000 mm 0,0 UV-I 9 W/m 15,0 C 18,7 C 6,4 km/h (2 Bft) 98,00 %
25.06.2017 05:08 18,7 C 27,8 C 78 % 1011,6 hPa 0,0 l/m 5,5 km/h (1 Bft) SW 224 0 min 0,000 mm 0,0 UV-I 9 W/m 14,8 C 18,7 C 8,0 km/h (2 Bft) 97,37 %
25.06.2017 05:10 18,7 C 27,8 C 78 % 1011,5 hPa 0,0 l/m 5,5 km/h (1 Bft) W-NW 286 0 min 0,000 mm 0,0 UV-I 11 W/m 14,8 C 18,7 C 8,0 km/h (2 Bft) 97,73 %
25.06.2017 05:12 18,7 C 27,8 C 78 % 1011,5 hPa 0,0 l/m 4,4 km/h (1 Bft) SW 223 0 min 0,000 mm 0,0 UV-I 12 W/m 14,8 C 18,7 C 6,4 km/h (2 Bft) 96,43 %
25.06.2017 05:14 18,7 C 27,8 C 78 % 1011,5 hPa 0,0 l/m 4,3 km/h (1 Bft) SW 223 0 min 0,000 mm 0,0 UV-I 12 W/m 14,8 C 18,7 C 6,4 km/h (2 Bft) 96,00 %
25.06.2017 05:16 18,7 C 27,8 C 78 % 1011,6 hPa 0,0 l/m 4,7 km/h (1 Bft) SW 223 0 min 0,000 mm 0,0 UV-I 14 W/m 14,8 C 18,7 C 6,4 km/h (2 Bft) 92,68 %
25.06.2017 05:18 18,7 C 27,8 C 78 % 1011,6 hPa 0,0 l/m 4,5 km/h (1 Bft) SW 223 2 min 0,000 mm 0,0 UV-I 16 W/m 14,8 C 18,7 C 6,4 km/h (2 Bft) 95,12 %
25.06.2017 05:20 18,6 C 27,8 C 78 % 1011,5 hPa 0,0 l/m 4,5 km/h (1 Bft) SW 223 2 min 0,000 mm 0,0 UV-I 17 W/m 14,7 C 18,6 C 6,4 km/h (2 Bft) 96,43 %
25.06.2017 05:22 18,6 C 27,8 C 78 % 1011,6 hPa 0,0 l/m 4,5 km/h (1 Bft) SW 223 2 min 0,000 mm 0,0 UV-I 18 W/m 14,7 C 18,6 C 6,4 km/h (2 Bft) 93,62 %
25.06.2017 05:24 18,6 C 27,8 C 78 % 1011,6 hPa 0,0 l/m 4,1 km/h (1 Bft) SW 223 2 min 0,000 mm 0,0 UV-I 19 W/m 14,7 C 18,6 C 6,4 km/h (2 Bft) 97,87 %
25.06.2017 05:26 18,6 C 27,8 C 78 % 1011,6 hPa 0,0 l/m 4,7 km/h (1 Bft) SW 222 2 min 0,000 mm 0,0 UV-I 20 W/m 14,7 C 18,6 C 6,4 km/h (2 Bft) 95,74 %
25.06.2017 05:28 18,6 C 27,8 C 78 % 1011,6 hPa 0,0 l/m 3,9 km/h (1 Bft) SW 222 0 min 0,000 mm 0,0 UV-I 22 W/m 14,7 C 18,6 C 6,4 km/h (2 Bft) 97,37 %
25.06.2017 05:30 18,6 C 27,8 C 79 % 1011,6 hPa 0,0 l/m 3,3 km/h (1 Bft) SW 222 0 min 0,000 mm 0,0 UV-I 24 W/m 14,9 C 18,6 C 4,8 km/h (1 Bft) 92,45 %
25.06.2017 05:32 18,6 C 27,8 C 79 % 1011,6 hPa 0,0 l/m 2,6 km/h (1 Bft) SW 222 0 min 0,000 mm 0,0 UV-I 25 W/m 14,9 C 18,6 C 6,4 km/h (2 Bft) 96,00 %
25.06.2017 05:34 18,6 C 27,8 C 79 % 1011,6 hPa 0,0 l/m 1,5 km/h (1 Bft) SW 222 0 min 0,000 mm 0,0 UV-I 26 W/m 14,9 C 18,6 C 3,2 km/h (1 Bft) 97,37 %
25.06.2017 05:36 18,5 C 27,8 C 79 % 1011,6 hPa 0,0 l/m 2,0 km/h (1 Bft) SW 222 0 min 0,000 mm 0,0 UV-I 29 W/m 14,8 C 18,5 C 4,8 km/h (1 Bft) 94,34 %
25.06.2017 05:38 18,5 C 27,8 C 79 % 1011,5 hPa 0,0 l/m 1,6 km/h (1 Bft) SW 222 0 min 0,000 mm 0,0 UV-I 30 W/m 14,8 C 18,5 C 3,2 km/h (1 Bft) 97,44 %
25.06.2017 05:40 18,4 C 27,8 C 80 % 1011,5 hPa 0,0 l/m 0,9 km/h (0 Bft) SW 222 0 min 0,000 mm 0,0 UV-I 32 W/m 14,9 C 18,4 C 3,2 km/h (1 Bft) 96,15 %
25.06.2017 05:42 18,4 C 27,8 C 80 % 1011,5 hPa 0,0 l/m 1,6 km/h (1 Bft) SW 222 0 min 0,000 mm 0,0 UV-I 33 W/m 14,9 C 18,4 C 3,2 km/h (1 Bft) 96,00 %
25.06.2017 05:44 18,4 C 27,8 C 80 % 1011,5 hPa 0,0 l/m 1,1 km/h (1 Bft) SW 222 0 min 0,000 mm 0,0 UV-I 33 W/m 14,9 C 18,4 C 3,2 km/h (1 Bft) 95,83 %
25.06.2017 05:46 18,5 C 27,8 C 81 % 1011,5 hPa 0,0 l/m 1,7 km/h (1 Bft) S-SW 207 0 min 0,000 mm 0,0 UV-I 41 W/m 15,2 C 18,5 C 4,8 km/h (1 Bft) 94,74 %
25.06.2017 05:48 18,6 C 27,8 C 81 % 1011,5 hPa 0,0 l/m 1,8 km/h (1 Bft) S-SW 206 0 min 0,000 mm 0,0 UV-I 47 W/m 15,3 C 18,6 C 3,2 km/h (1 Bft) 94,74 %
25.06.2017 05:50 18,6 C 27,8 C 81 % 1011,5 hPa 0,0 l/m 1,7 km/h (1 Bft) S-SW 206 0 min 0,000 mm 0,0 UV-I 46 W/m 15,3 C 18,6 C 3,2 km/h (1 Bft) 96,43 %
25.06.2017 05:52 18,7 C 27,8 C 81 % 1011,4 hPa 0,0 l/m 1,7 km/h (1 Bft) S-SW 206 0 min 0,000 mm 0,0 UV-I 42 W/m 15,4 C 18,7 C 3,2 km/h (1 Bft) 96,55 %
25.06.2017 05:54 18,7 C 27,8 C 81 % 1011,4 hPa 0,0 l/m 1,3 km/h (1 Bft) S-SW 206 0 min 0,000 mm 0,0 UV-I 38 W/m 15,4 C 18,7 C 3,2 km/h (1 Bft) 94,12 %
25.06.2017 05:56 18,7 C 27,8 C 81 % 1011,5 hPa 0,0 l/m 1,4 km/h (1 Bft) S-SW 206 0 min 0,000 mm 0,0 UV-I 43 W/m 15,4 C 18,7 C 3,2 km/h (1 Bft) 98,00 %
25.06.2017 05:58 18,7 C 27,8 C 81 % 1011,5 hPa 0,0 l/m 2,8 km/h (1 Bft) S-SW 205 0 min 0,000 mm 0,0 UV-I 41 W/m 15,4 C 18,7 C 4,8 km/h (1 Bft) 97,37 %
25.06.2017 06:00 18,7 C 27,8 C 81 % 1011,5 hPa 0,0 l/m 2,6 km/h (1 Bft) S-SW 200 0 min 0,026 mm 0,0 UV-I 43 W/m 15,4 C 18,7 C 4,8 km/h (1 Bft) 96,00 %
25.06.2017 06:02 18,8 C 27,8 C 81 % 1011,5 hPa 0,0 l/m 3,7 km/h (1 Bft) S-SW 200 0 min 0,000 mm 0,0 UV-I 50 W/m 15,5 C 18,8 C 6,4 km/h (2 Bft) 96,00 %
25.06.2017 06:04 18,8 C 27,8 C 81 % 1011,6 hPa 0,0 l/m 3,0 km/h (1 Bft) S-SW 200 0 min 0,000 mm 0,0 UV-I 61 W/m 15,5 C 18,8 C 4,8 km/h (1 Bft) 95,74 %
25.06.2017 06:06 18,8 C 27,8 C 81 % 1011,6 hPa 0,0 l/m 3,6 km/h (1 Bft) S-SW 200 0 min 0,000 mm 0,0 UV-I 68 W/m 15,5 C 18,8 C 6,4 km/h (2 Bft) 90,00 %
25.06.2017 06:08 18,8 C 27,8 C 81 % 1011,6 hPa 0,0 l/m 2,7 km/h (1 Bft) S-SW 200 0 min 0,000 mm 0,0 UV-I 75 W/m 15,5 C 18,8 C 6,4 km/h (2 Bft) 97,37 %
25.06.2017 06:10 18,9 C 27,8 C 81 % 1011,5 hPa 0,0 l/m 2,3 km/h (1 Bft) S-SW 200 2 min 0,000 mm 0,0 UV-I 89 W/m 15,6 C 18,9 C 4,8 km/h (1 Bft) 96,00 %
25.06.2017 06:12 18,9 C 27,8 C 81 % 1011,5 hPa 0,0 l/m 2,9 km/h (1 Bft) S-SW 200 2 min 0,000 mm 0,0 UV-I 102 W/m 15,6 C 18,9 C 4,8 km/h (1 Bft) 94,00 %
25.06.2017 06:14 19,0 C 27,8 C 81 % 1011,5 hPa 0,0 l/m 2,8 km/h (1 Bft) S-SW 200 2 min 0,000 mm 0,0 UV-I 109 W/m 15,7 C 19,0 C 4,8 km/h (1 Bft) 96,00 %
25.06.2017 06:16 19,1 C 27,8 C 81 % 1011,5 hPa 0,0 l/m 3,5 km/h (1 Bft) S-SW 200 2 min 0,000 mm 0,0 UV-I 113 W/m 15,8 C 19,1 C 4,8 km/h (1 Bft) 95,12 %
25.06.2017 06:18 19,1 C 27,8 C 81 % 1011,5 hPa 0,0 l/m 2,8 km/h (1 Bft) S-SW 200 2 min 0,000 mm 0,0 UV-I 113 W/m 15,8 C 19,1 C 6,4 km/h (2 Bft) 100,00 %
25.06.2017 06:20 19,2 C 27,8 C 81 % 1011,6 hPa 0,0 l/m 4,2 km/h (1 Bft) S-SW 200 2 min 0,000 mm 0,0 UV-I 94 W/m 15,9 C 19,2 C 6,4 km/h (2 Bft) 100,00 %
25.06.2017 06:22 19,2 C 27,8 C 81 % 1011,6 hPa 0,0 l/m 3,4 km/h (1 Bft) S-SW 200 0 min 0,000 mm 0,0 UV-I 75 W/m 15,9 C 19,2 C 4,8 km/h (1 Bft) 97,62 %
25.06.2017 06:24 19,3 C 27,8 C 81 % 1011,6 hPa 0,0 l/m 2,5 km/h (1 Bft) S-SW 200 0 min 0,000 mm 0,0 UV-I 87 W/m 16,0 C 19,3 C 4,8 km/h (1 Bft) 100,00 %
25.06.2017 06:26 19,4 C 27,8 C 80 % 1011,5 hPa 0,0 l/m 2,8 km/h (1 Bft) S-SW 200 0 min 0,000 mm 0,0 UV-I 100 W/m 15,9 C 19,4 C 4,8 km/h (1 Bft) 97,56 %
25.06.2017 06:28 19,4 C 27,8 C 80 % 1011,5 hPa 0,0 l/m 4,0 km/h (1 Bft) S-SW 200 0 min 0,000 mm 0,0 UV-I 93 W/m 15,9 C 19,4 C 6,4 km/h (2 Bft) 100,00 %
25.06.2017 06:30 19,6 C 27,8 C 80 % 1011,5 hPa 0,0 l/m 4,0 km/h (1 Bft) S-SW 200 0 min 0,000 mm 0,0 UV-I 91 W/m 16,1 C 19,6 C 6,4 km/h (2 Bft) 98,11 %
25.06.2017 06:32 19,6 C 27,8 C 80 % 1011,4 hPa 0,0 l/m 3,8 km/h (1 Bft) S-SW 200 2 min 0,000 mm 0,0 UV-I 127 W/m 16,1 C 19,6 C 6,4 km/h (2 Bft) 94,74 %
25.06.2017 06:34 19,7 C 27,8 C 80 % 1011,5 hPa 0,0 l/m 4,2 km/h (1 Bft) S-SW 200 2 min 0,000 mm 0,0 UV-I 140 W/m 16,1 C 19,7 C 6,4 km/h (2 Bft) 95,45 %
25.06.2017 06:36 19,8 C 27,8 C 80 % 1011,5 hPa 0,0 l/m 3,9 km/h (1 Bft) S-SW 200 2 min 0,000 mm 0,0 UV-I 142 W/m 16,2 C 19,8 C 6,4 km/h (2 Bft) 92,00 %
25.06.2017 06:38 19,8 C 27,8 C 80 % 1011,5 hPa 0,0 l/m 4,6 km/h (1 Bft) S-SW 200 2 min 0,000 mm 0,0 UV-I 149 W/m 16,2 C 19,8 C 6,4 km/h (2 Bft) 97,73 %
25.06.2017 06:40 19,9 C 27,8 C 80 % 1011,6 hPa 0,0 l/m 5,2 km/h (1 Bft) S-SW 205 2 min 0,000 mm 0,0 UV-I 139 W/m 16,3 C 19,9 C 8,0 km/h (2 Bft) 96,23 %
25.06.2017 06:42 19,9 C 27,8 C 80 % 1011,6 hPa 0,0 l/m 5,9 km/h (2 Bft) S-SW 212 2 min 0,000 mm 0,0 UV-I 129 W/m 16,3 C 19,9 C 9,7 km/h (2 Bft) 92,68 %
25.06.2017 06:44 20,0 C 27,8 C 79 % 1011,5 hPa 0,0 l/m 5,6 km/h (1 Bft) S-SW 212 0 min 0,000 mm 0,0 UV-I 120 W/m 16,2 C 20,0 C 8,0 km/h (2 Bft) 98,00 %
25.06.2017 06:46 20,1 C 27,8 C 79 % 1011,4 hPa 0,0 l/m 4,4 km/h (1 Bft) SW 218 2 min 0,000 mm 0,0 UV-I 138 W/m 16,3 C 20,1 C 8,0 km/h (2 Bft) 96,23 %
25.06.2017 06:48 20,1 C 27,8 C 79 % 1011,4 hPa 0,0 l/m 3,4 km/h (1 Bft) SW 218 2 min 0,000 mm 0,0 UV-I 149 W/m 16,3 C 20,1 C 4,8 km/h (1 Bft) 97,56 %
25.06.2017 06:50 20,2 C 27,8 C 79 % 1011,5 hPa 0,0 l/m 2,0 km/h (1 Bft) SW 218 2 min 0,000 mm 0,0 UV-I 159 W/m 16,4 C 20,2 C 4,8 km/h (1 Bft) 98,00 %
25.06.2017 06:52 20,3 C 27,8 C 79 % 1011,4 hPa 0,0 l/m 2,4 km/h (1 Bft) SW 218 2 min 0,000 mm 0,0 UV-I 188 W/m 16,5 C 20,3 C 4,8 km/h (1 Bft) 95,45 %
25.06.2017 06:54 20,4 C 27,8 C 79 % 1011,5 hPa 0,0 l/m 1,5 km/h (1 Bft) SW 218 2 min 0,000 mm 0,0 UV-I 195 W/m 16,6 C 20,4 C 3,2 km/h (1 Bft) 98,11 %
25.06.2017 06:56 20,5 C 27,8 C 78 % 1011,4 hPa 0,0 l/m 1,6 km/h (1 Bft) SW 218 2 min 0,000 mm 0,0 UV-I 200 W/m 16,5 C 20,5 C 3,2 km/h (1 Bft) 94,74 %
25.06.2017 06:58 20,7 C 27,8 C 77 % 1011,4 hPa 0,0 l/m 2,6 km/h (1 Bft) SW 218 2 min 0,000 mm 0,0 UV-I 209 W/m 16,5 C 20,7 C 4,8 km/h (1 Bft) 92,45 %
25.06.2017 07:00 20,8 C 27,8 C 77 % 1011,5 hPa 0,0 l/m 2,1 km/h (1 Bft) SW 218 2 min 0,076 mm 0,0 UV-I 218 W/m 16,6 C 20,8 C 4,8 km/h (1 Bft) 94,87 %
25.06.2017 07:02 20,9 C 27,8 C 76 % 1011,5 hPa 0,0 l/m 2,8 km/h (1 Bft) SW 218 2 min 0,000 mm 0,0 UV-I 225 W/m 16,5 C 20,9 C 4,8 km/h (1 Bft) 96,00 %
25.06.2017 07:04 21,1 C 27,8 C 76 % 1011,5 hPa 0,0 l/m 4,3 km/h (1 Bft) SW 218 2 min 0,000 mm 0,0 UV-I 232 W/m 16,7 C 21,1 C 6,4 km/h (2 Bft) 97,56 %
25.06.2017 07:06 21,1 C 27,8 C 76 % 1011,5 hPa 0,0 l/m 2,8 km/h (1 Bft) SW 218 2 min 0,000 mm 0,3 UV-I 240 W/m 16,7 C 21,1 C 4,8 km/h (1 Bft) 94,92 %
25.06.2017 07:08 21,2 C 27,8 C 74 % 1011,5 hPa 0,0 l/m 2,7 km/h (1 Bft) SW 218 2 min 0,000 mm 0,5 UV-I 246 W/m 16,4 C 21,2 C 4,8 km/h (1 Bft) 100,00 %
25.06.2017 07:10 21,3 C 27,8 C 75 % 1011,5 hPa 0,0 l/m 2,4 km/h (1 Bft) SW 218 2 min 0,000 mm 0,5 UV-I 252 W/m 16,7 C 21,3 C 6,4 km/h (2 Bft) 94,34 %
25.06.2017 07:12 21,4 C 27,8 C 74 % 1011,6 hPa 0,0 l/m 4,1 km/h (1 Bft) W-SW 254 2 min 0,000 mm 0,5 UV-I 247 W/m 16,6 C 21,4 C 6,4 km/h (2 Bft) 100,00 %
25.06.2017 07:14 21,6 C 27,8 C 71 % 1011,7 hPa 0,0 l/m 6,1 km/h (2 Bft) SW 224 2 min 0,000 mm 0,5 UV-I 231 W/m 16,1 C 21,6 C 11,3 km/h (2 Bft) 98,00 %
25.06.2017 07:16 21,7 C 27,8 C 70 % 1011,7 hPa 0,0 l/m 2,8 km/h (1 Bft) SW 229 2 min 0,000 mm 0,5 UV-I 230 W/m 16,0 C 21,7 C 6,4 km/h (2 Bft) 98,11 %
25.06.2017 07:18 21,8 C 27,8 C 70 % 1011,8 hPa 0,0 l/m 4,6 km/h (1 Bft) W 263 2 min 0,000 mm 0,5 UV-I 237 W/m 16,1 C 21,8 C 9,7 km/h (2 Bft) 100,00 %
25.06.2017 07:20 21,9 C 27,8 C 70 % 1011,9 hPa 0,0 l/m 3,5 km/h (1 Bft) W 265 2 min 0,000 mm 0,6 UV-I 252 W/m 16,2 C 21,9 C 9,7 km/h (2 Bft) 97,37 %
25.06.2017 07:22 22,0 C 27,8 C 70 % 1011,9 hPa 0,0 l/m 5,7 km/h (1 Bft) W-SW 257 2 min 0,000 mm 0,6 UV-I 268 W/m 16,3 C 22,0 C 11,3 km/h (2 Bft) 100,00 %
25.06.2017 07:24 22,1 C 27,8 C 67 % 1012,0 hPa 0,0 l/m 5,3 km/h (1 Bft) SW 223 2 min 0,000 mm 0,6 UV-I 268 W/m 15,7 C 22,1 C 9,7 km/h (2 Bft) 95,12 %
25.06.2017 07:26 22,1 C 27,8 C 67 % 1012,1 hPa 0,0 l/m 4,7 km/h (1 Bft) SW 227 2 min 0,000 mm 0,6 UV-I 247 W/m 15,7 C 22,1 C 8,0 km/h (2 Bft) 98,00 %
25.06.2017 07:28 22,1 C 27,8 C 67 % 1012,1 hPa 0,0 l/m 4,4 km/h (1 Bft) W 263 2 min 0,000 mm 0,6 UV-I 249 W/m 15,7 C 22,1 C 11,3 km/h (2 Bft) 100,00 %
25.06.2017 07:30 22,2 C 27,8 C 67 % 1012,1 hPa 0,0 l/m 5,1 km/h (1 Bft) W-SW 249 2 min 0,000 mm 0,7 UV-I 270 W/m 15,8 C 22,2 C 8,0 km/h (2 Bft) 97,87 %
25.06.2017 07:32 22,2 C 27,8 C 66 % 1012,2 hPa 0,0 l/m 4,4 km/h (1 Bft) W-SW 244 2 min 0,000 mm 0,7 UV-I 299 W/m 15,5 C 22,2 C 6,4 km/h (2 Bft) 100,00 %
25.06.2017 07:34 22,3 C 27,8 C 66 % 1012,2 hPa 0,0 l/m 2,7 km/h (1 Bft) W-SW 244 2 min 0,000 mm 0,8 UV-I 321 W/m 15,6 C 22,3 C 4,8 km/h (1 Bft) 100,00 %
25.06.2017 07:36 22,3 C 27,8 C 65 % 1012,2 hPa 0,0 l/m 3,9 km/h (1 Bft) W-SW 240 2 min 0,000 mm 0,8 UV-I 334 W/m 15,4 C 22,3 C 6,4 km/h (2 Bft) 98,00 %
25.06.2017 07:38 22,3 C 27,8 C 62 % 1012,2 hPa 0,0 l/m 4,7 km/h (1 Bft) W 273 2 min 0,000 mm 0,8 UV-I 342 W/m 14,7 C 22,3 C 9,7 km/h (2 Bft) 97,62 %
25.06.2017 07:40 22,3 C 27,8 C 63 % 1012,2 hPa 0,0 l/m 4,8 km/h (1 Bft) W-SW 246 2 min 0,000 mm 0,8 UV-I 345 W/m 14,9 C 22,3 C 8,0 km/h (2 Bft) 98,00 %
25.06.2017 07:42 22,4 C 27,8 C 63 % 1012,3 hPa 0,0 l/m 5,4 km/h (1 Bft) W-SW 238 2 min 0,000 mm 0,9 UV-I 355 W/m 15,0 C 22,4 C 8,0 km/h (2 Bft) 97,87 %
25.06.2017 07:44 22,4 C 27,8 C 62 % 1012,3 hPa 0,0 l/m 5,6 km/h (1 Bft) SW 232 2 min 0,000 mm 0,9 UV-I 365 W/m 14,8 C 22,4 C 9,7 km/h (2 Bft) 100,00 %
25.06.2017 07:46 22,6 C 27,8 C 63 % 1012,3 hPa 0,0 l/m 5,7 km/h (1 Bft) W-SW 254 2 min 0,000 mm 0,9 UV-I 374 W/m 15,2 C 22,6 C 8,0 km/h (2 Bft) 100,00 %
25.06.2017 07:48 22,7 C 27,8 C 61 % 1012,3 hPa 0,0 l/m 4,9 km/h (1 Bft) SW 226 2 min 0,000 mm 1,0 UV-I 387 W/m 14,8 C 22,7 C 8,0 km/h (2 Bft) 100,00 %
25.06.2017 07:50 22,8 C 27,8 C 62 % 1012,2 hPa 0,0 l/m 4,8 km/h (1 Bft) W-SW 252 2 min 0,000 mm 1,0 UV-I 389 W/m 15,1 C 22,8 C 6,4 km/h (2 Bft) 97,73 %
25.06.2017 07:52 22,8 C 27,8 C 62 % 1012,2 hPa 0,0 l/m 4,0 km/h (1 Bft) S-SW 209 2 min 0,000 mm 1,1 UV-I 418 W/m 15,1 C 22,8 C 8,0 km/h (2 Bft) 100,00 %
25.06.2017 07:54 22,8 C 27,8 C 60 % 1012,2 hPa 0,0 l/m 5,9 km/h (2 Bft) SW 233 2 min 0,000 mm 1,1 UV-I 430 W/m 14,6 C 22,8 C 9,7 km/h (2 Bft) 96,23 %
25.06.2017 07:56 22,8 C 27,8 C 60 % 1012,2 hPa 0,0 l/m 3,0 km/h (1 Bft) W-SW 239 2 min 0,000 mm 1,1 UV-I 434 W/m 14,6 C 22,8 C 6,4 km/h (2 Bft) 96,00 %
25.06.2017 07:58 23,0 C 27,8 C 61 % 1012,3 hPa 0,0 l/m 3,0 km/h (1 Bft) S-SW 213 2 min 0,000 mm 1,2 UV-I 434 W/m 15,1 C 23,0 C 8,0 km/h (2 Bft) 100,00 %
25.06.2017 08:00 23,2 C 27,8 C 59 % 1012,3 hPa 0,0 l/m 6,1 km/h (2 Bft) SW 215 2 min 0,203 mm 1,2 UV-I 434 W/m 14,7 C 23,2 C 11,3 km/h (2 Bft) 98,21 %
25.06.2017 08:02 23,3 C 27,8 C 59 % 1012,2 hPa 0,0 l/m 5,7 km/h (1 Bft) W-SW 243 2 min 0,000 mm 1,2 UV-I 433 W/m 14,8 C 23,3 C 8,0 km/h (2 Bft) 100,00 %
25.06.2017 08:04 23,3 C 27,8 C 59 % 1012,3 hPa 0,0 l/m 4,2 km/h (1 Bft) W 279 2 min 0,000 mm 1,2 UV-I 415 W/m 14,8 C 23,3 C 6,4 km/h (2 Bft) 98,00 %
25.06.2017 08:06 23,3 C 27,8 C 58 % 1012,3 hPa 0,0 l/m 2,3 km/h (1 Bft) W 278 2 min 0,000 mm 1,2 UV-I 411 W/m 14,6 C 23,3 C 4,8 km/h (1 Bft) 98,00 %
25.06.2017 08:08 23,3 C 27,8 C 58 % 1012,3 hPa 0,0 l/m 1,1 km/h (1 Bft) W 278 2 min 0,000 mm 1,2 UV-I 393 W/m 14,6 C 23,3 C 4,8 km/h (1 Bft) 100,00 %
25.06.2017 08:10 23,3 C 27,8 C 59 % 1012,3 hPa 0,0 l/m 2,5 km/h (1 Bft) W 279 2 min 0,000 mm 1,2 UV-I 383 W/m 14,8 C 23,3 C 4,8 km/h (1 Bft) 98,11 %
25.06.2017 08:12 23,3 C 27,8 C 58 % 1012,2 hPa 0,0 l/m 0,3 km/h (0 Bft) W 279 2 min 0,000 mm 1,2 UV-I 371 W/m 14,6 C 23,3 C 1,6 km/h (1 Bft) 98,00 %
25.06.2017 08:14 23,3 C 27,8 C 57 % 1012,2 hPa 0,0 l/m 1,4 km/h (1 Bft) W 280 2 min 0,000 mm 1,2 UV-I 369 W/m 14,3 C 23,3 C 4,8 km/h (1 Bft) 97,73 %
25.06.2017 08:16 23,3 C 27,8 C 58 % 1012,2 hPa 0,0 l/m 2,2 km/h (1 Bft) W 280 2 min 0,000 mm 1,3 UV-I 386 W/m 14,6 C 23,3 C 3,2 km/h (1 Bft) 100,00 %
25.06.2017 08:18 23,3 C 27,8 C 54 % 1012,2 hPa 0,0 l/m 3,3 km/h (1 Bft) W 279 2 min 0,000 mm 1,3 UV-I 399 W/m 13,5 C 23,3 C 4,8 km/h (1 Bft) 97,44 %
25.06.2017 08:20 23,3 C 27,8 C 56 % 1012,2 hPa 0,0 l/m 3,4 km/h (1 Bft) W 279 2 min 0,000 mm 1,3 UV-I 394 W/m 14,0 C 23,3 C 6,4 km/h (2 Bft) 100,00 %
25.06.2017 08:22 23,3 C 27,8 C 56 % 1012,2 hPa 0,0 l/m 2,6 km/h (1 Bft) W 279 2 min 0,000 mm 1,3 UV-I 387 W/m 14,0 C 23,3 C 4,8 km/h (1 Bft) 100,00 %
25.06.2017 08:24 23,3 C 27,8 C 54 % 1012,2 hPa 0,0 l/m 1,3 km/h (1 Bft) W 279 2 min 0,000 mm 1,3 UV-I 375 W/m 13,5 C 23,3 C 3,2 km/h (1 Bft) 97,37 %
25.06.2017 08:26 23,4 C 27,8 C 57 % 1012,2 hPa 0,0 l/m 1,5 km/h (1 Bft) W 279 2 min 0,000 mm 1,3 UV-I 362 W/m 14,4 C 23,4 C 3,2 km/h (1 Bft) 98,00 %
25.06.2017 08:28 23,5 C 27,8 C 56 % 1012,2 hPa 0,0 l/m 0,4 km/h (0 Bft) W 279 2 min 0,000 mm 1,3 UV-I 354 W/m 14,2 C 23,5 C 1,6 km/h (1 Bft) 97,56 %
25.06.2017 08:30 23,5 C 27,8 C 57 % 1012,2 hPa 0,0 l/m 1,4 km/h (1 Bft) W 279 2 min 0,000 mm 1,3 UV-I 350 W/m 14,5 C 23,5 C 3,2 km/h (1 Bft) 93,62 %
25.06.2017 08:32 23,5 C 27,8 C 55 % 1012,2 hPa 0,0 l/m 2,5 km/h (1 Bft) W 279 2 min 0,000 mm 1,3 UV-I 341 W/m 13,9 C 23,5 C 4,8 km/h (1 Bft) 98,21 %
25.06.2017 08:34 23,4 C 27,8 C 55 % 1012,2 hPa 0,0 l/m 3,1 km/h (1 Bft) NW 304 2 min 0,000 mm 1,4 UV-I 363 W/m 13,8 C 23,4 C 6,4 km/h (2 Bft) 97,37 %
25.06.2017 08:36 23,4 C 27,8 C 56 % 1012,2 hPa 0,0 l/m 2,7 km/h (1 Bft) W 266 2 min 0,000 mm 1,5 UV-I 409 W/m 14,1 C 23,4 C 6,4 km/h (2 Bft) 91,07 %
25.06.2017 08:38 23,6 C 27,8 C 56 % 1012,2 hPa 0,0 l/m 3,2 km/h (1 Bft) SW 232 2 min 0,000 mm 1,5 UV-I 400 W/m 14,3 C 23,6 C 6,4 km/h (2 Bft) 97,37 %
25.06.2017 08:40 23,6 C 27,8 C 56 % 1012,2 hPa 0,0 l/m 3,5 km/h (1 Bft) SW 232 2 min 0,000 mm 1,4 UV-I 382 W/m 14,3 C 23,6 C 6,4 km/h (2 Bft) 96,00 %
25.06.2017 08:42 23,6 C 27,8 C 57 % 1012,2 hPa 0,0 l/m 4,7 km/h (1 Bft) W 272 2 min 0,000 mm 1,5 UV-I 381 W/m 14,6 C 23,6 C 9,7 km/h (2 Bft) 95,12 %
25.06.2017 08:44 23,7 C 27,8 C 56 % 1012,2 hPa 0,0 l/m 1,3 km/h (1 Bft) W 272 2 min 0,000 mm 1,5 UV-I 396 W/m 14,4 C 23,7 C 3,2 km/h (1 Bft) 92,45 %
25.06.2017 08:46 23,7 C 27,8 C 56 % 1012,1 hPa 0,0 l/m 2,7 km/h (1 Bft) W-SW 248 2 min 0,000 mm 1,6 UV-I 403 W/m 14,4 C 23,7 C 6,4 km/h (2 Bft) 95,12 %
25.06.2017 08:48 23,8 C 27,8 C 55 % 1012,1 hPa 0,0 l/m 3,9 km/h (1 Bft) W-SW 244 2 min 0,000 mm 1,6 UV-I 398 W/m 14,2 C 23,8 C 6,4 km/h (2 Bft) 98,00 %
25.06.2017 08:50 23,9 C 27,8 C 52 % 1012,1 hPa 0,0 l/m 4,1 km/h (1 Bft) SW 223 2 min 0,000 mm 1,6 UV-I 407 W/m 13,4 C 23,9 C 6,4 km/h (2 Bft) 94,64 %
25.06.2017 08:52 23,9 C 27,8 C 53 % 1012,0 hPa 0,0 l/m 4,8 km/h (1 Bft) SW 227 2 min 0,000 mm 1,6 UV-I 407 W/m 13,7 C 23,9 C 8,0 km/h (2 Bft) 97,44 %
25.06.2017 08:54 24,0 C 27,8 C 53 % 1012,0 hPa 0,0 l/m 2,2 km/h (1 Bft) SW 227 2 min 0,000 mm 1,6 UV-I 394 W/m 13,8 C 24,0 C 4,8 km/h (1 Bft) 93,88 %
25.06.2017 08:56 24,0 C 27,8 C 53 % 1011,9 hPa 0,0 l/m 1,4 km/h (1 Bft) SW 236 2 min 0,000 mm 1,6 UV-I 391 W/m 13,8 C 24,0 C 4,8 km/h (1 Bft) 100,00 %
25.06.2017 08:58 24,0 C 27,8 C 52 % 1011,9 hPa 0,0 l/m 3,2 km/h (1 Bft) SW 236 2 min 0,000 mm 1,6 UV-I 389 W/m 13,5 C 24,0 C 4,8 km/h (1 Bft) 94,34 %
25.06.2017 09:00 24,0 C 27,8 C 52 % 1011,9 hPa 0,0 l/m 2,1 km/h (1 Bft) SW 236 2 min 0,254 mm 1,6 UV-I 378 W/m 13,5 C 24,0 C 4,8 km/h (1 Bft) 96,23 %
25.06.2017 09:02 23,9 C 27,8 C 52 % 1011,9 hPa 0,0 l/m 3,2 km/h (1 Bft) W-SW 243 2 min 0,000 mm 1,6 UV-I 377 W/m 13,4 C 23,9 C 8,0 km/h (2 Bft) 94,00 %
25.06.2017 09:04 23,9 C 27,8 C 51 % 1011,8 hPa 0,0 l/m 2,6 km/h (1 Bft) W-SW 244 2 min 0,000 mm 1,6 UV-I 365 W/m 13,1 C 23,9 C 4,8 km/h (1 Bft) 97,87 %
25.06.2017 09:06 23,9 C 27,8 C 50 % 1011,8 hPa 0,0 l/m 3,6 km/h (1 Bft) SW 218 2 min 0,000 mm 1,5 UV-I 354 W/m 12,8 C 23,9 C 8,0 km/h (2 Bft) 94,74 %
25.06.2017 09:08 24,0 C 27,8 C 52 % 1011,9 hPa 0,0 l/m 5,1 km/h (1 Bft) W-SW 238 2 min 0,000 mm 1,5 UV-I 348 W/m 13,5 C 24,0 C 6,4 km/h (2 Bft) 92,86 %
25.06.2017 09:10 24,1 C 27,8 C 51 % 1011,9 hPa 0,0 l/m 3,8 km/h (1 Bft) W-SW 239 2 min 0,000 mm 1,5 UV-I 344 W/m 13,3 C 24,1 C 6,4 km/h (2 Bft) 94,74 %
25.06.2017 09:12 23,9 C 27,8 C 50 % 1011,9 hPa 0,0 l/m 1,8 km/h (1 Bft) W-SW 240 2 min 0,000 mm 1,5 UV-I 336 W/m 12,8 C 23,9 C 3,2 km/h (1 Bft) 96,23 %
25.06.2017 09:14 23,9 C 27,8 C 52 % 1011,9 hPa 0,0 l/m 3,3 km/h (1 Bft) W-SW 247 0 min 0,000 mm 1,5 UV-I 328 W/m 13,4 C 23,9 C 8,0 km/h (2 Bft) 94,74 %
25.06.2017 09:16 23,9 C 27,8 C 52 % 1011,8 hPa 0,0 l/m 3,1 km/h (1 Bft) W-SW 248 0 min 0,000 mm 1,5 UV-I 327 W/m 13,4 C 23,9 C 8,0 km/h (2 Bft) 96,00 %
25.06.2017 09:18 24,0 C 27,8 C 52 % 1011,9 hPa 0,0 l/m 4,9 km/h (1 Bft) SW 232 0 min 0,000 mm 1,5 UV-I 336 W/m 13,5 C 24,0 C 6,4 km/h (2 Bft) 93,75 %
25.06.2017 09:20 24,0 C 27,8 C 51 % 1011,9 hPa 0,0 l/m 3,3 km/h (1 Bft) SW 236 0 min 0,000 mm 1,5 UV-I 335 W/m 13,2 C 24,0 C 8,0 km/h (2 Bft) 94,92 %
25.06.2017 09:22 24,0 C 27,8 C 52 % 1011,9 hPa 0,0 l/m 3,6 km/h (1 Bft) SW 232 0 min 0,000 mm 1,4 UV-I 321 W/m 13,5 C 24,0 C 4,8 km/h (1 Bft) 98,00 %
25.06.2017 09:24 24,0 C 27,8 C 52 % 1011,9 hPa 0,0 l/m 5,6 km/h (1 Bft) W 264 0 min 0,000 mm 1,3 UV-I 297 W/m 13,5 C 24,0 C 9,7 km/h (2 Bft) 96,23 %
25.06.2017 09:26 23,9 C 27,8 C 51 % 1011,9 hPa 0,0 l/m 5,4 km/h (1 Bft) W 263 0 min 0,000 mm 1,3 UV-I 289 W/m 13,1 C 23,9 C 11,3 km/h (2 Bft) 94,74 %
25.06.2017 09:28 23,8 C 26,1 C 52 % 1011,9 hPa 0,0 l/m 5,8 km/h (2 Bft) SW 223 0 min 0,000 mm 1,2 UV-I 265 W/m 13,3 C 23,8 C 9,7 km/h (2 Bft) 94,64 %
25.06.2017 09:30 23,8 C 26,1 C 52 % 1011,9 hPa 0,0 l/m 6,1 km/h (2 Bft) W-SW 240 0 min 0,000 mm 1,2 UV-I 247 W/m 13,3 C 23,8 C 11,3 km/h (2 Bft) 97,56 %
25.06.2017 09:32 23,7 C 26,1 C 52 % 1011,9 hPa 0,0 l/m 2,9 km/h (1 Bft) W-SW 251 0 min 0,000 mm 1,1 UV-I 235 W/m 13,2 C 23,7 C 8,0 km/h (2 Bft) 94,34 %
25.06.2017 09:34 23,7 C 26,1 C 52 % 1011,9 hPa 0,0 l/m 4,5 km/h (1 Bft) W-NW 282 0 min 0,000 mm 1,1 UV-I 232 W/m 13,2 C 23,7 C 11,3 km/h (2 Bft) 97,62 %
25.06.2017 09:36 23,7 C 26,1 C 53 % 1011,9 hPa 0,0 l/m 3,9 km/h (1 Bft) W-NW 287 0 min 0,000 mm 1,1 UV-I 232 W/m 13,5 C 23,7 C 6,4 km/h (2 Bft) 95,74 %
25.06.2017 09:38 23,6 C 26,1 C 54 % 1011,9 hPa 0,0 l/m 1,8 km/h (1 Bft) W 278 0 min 0,000 mm 1,2 UV-I 232 W/m 13,7 C 23,6 C 6,4 km/h (2 Bft) 97,87 %
25.06.2017 09:40 23,6 C 26,1 C 55 % 1011,9 hPa 0,0 l/m 2,3 km/h (1 Bft) W 278 0 min 0,000 mm 1,2 UV-I 232 W/m 14,0 C 23,6 C 4,8 km/h (1 Bft) 96,00 %
25.06.2017 09:42 23,6 C 26,1 C 54 % 1011,9 hPa 0,0 l/m 2,4 km/h (1 Bft) W 278 0 min 0,000 mm 1,2 UV-I 229 W/m 13,7 C 23,6 C 4,8 km/h (1 Bft) 97,87 %
25.06.2017 09:44 23,7 C 26,1 C 54 % 1011,9 hPa 0,0 l/m 4,0 km/h (1 Bft) W 277 0 min 0,000 mm 1,1 UV-I 225 W/m 13,8 C 23,7 C 6,4 km/h (2 Bft) 90,00 %
25.06.2017 09:46 23,6 C 26,1 C 54 % 1012,0 hPa 0,0 l/m 2,5 km/h (1 Bft) W 276 0 min 0,000 mm 1,1 UV-I 219 W/m 13,7 C 23,6 C 6,4 km/h (2 Bft) 95,74 %
25.06.2017 09:48 23,7 C 26,1 C 55 % 1011,9 hPa 0,0 l/m 0,3 km/h (0 Bft) W 276 0 min 0,000 mm 1,1 UV-I 211 W/m 14,1 C 23,7 C 1,6 km/h (1 Bft) 94,34 %
25.06.2017 09:50 23,7 C 26,1 C 54 % 1011,9 hPa 0,0 l/m 2,6 km/h (1 Bft) W 273 0 min 0,000 mm 1,1 UV-I 204 W/m 13,8 C 23,7 C 4,8 km/h (1 Bft) 97,87 %
25.06.2017 09:52 23,7 C 26,1 C 55 % 1011,9 hPa 0,0 l/m 3,8 km/h (1 Bft) W-SW 242 0 min 0,000 mm 1,0 UV-I 200 W/m 14,1 C 23,7 C 6,4 km/h (2 Bft) 97,37 %
25.06.2017 09:54 23,7 C 26,1 C 55 % 1012,0 hPa 0,0 l/m 3,8 km/h (1 Bft) W-SW 242 0 min 0,000 mm 1,0 UV-I 198 W/m 14,1 C 23,7 C 4,8 km/h (1 Bft) 95,92 %
25.06.2017 09:56 23,8 C 26,1 C 55 % 1012,1 hPa 0,0 l/m 3,3 km/h (1 Bft) W-SW 242 0 min 0,000 mm 1,0 UV-I 195 W/m 14,2 C 23,8 C 4,8 km/h (1 Bft) 96,43 %
25.06.2017 09:58 23,8 C 26,1 C 56 % 1012,1 hPa 0,0 l/m 3,4 km/h (1 Bft) W-SW 242 0 min 0,000 mm 1,0 UV-I 192 W/m 14,5 C 23,8 C 6,4 km/h (2 Bft) 95,12 %
25.06.2017 10:00 23,8 C 26,1 C 55 % 1012,1 hPa 0,0 l/m 5,4 km/h (1 Bft) SW 219 0 min 0,000 mm 1,0 UV-I 190 W/m 14,2 C 23,8 C 9,7 km/h (2 Bft) 94,74 %
25.06.2017 10:02 23,8 C 26,1 C 54 % 1012,1 hPa 0,0 l/m 6,6 km/h (2 Bft) W-SW 243 0 min 0,203 mm 1,0 UV-I 188 W/m 13,9 C 23,7 C 9,7 km/h (2 Bft) 96,43 %
25.06.2017 10:04 23,8 C 26,1 C 54 % 1012,1 hPa 0,0 l/m 4,7 km/h (1 Bft) SW 233 0 min 0,000 mm 1,0 UV-I 184 W/m 13,9 C 23,8 C 9,7 km/h (2 Bft) 97,56 %
25.06.2017 10:06 23,7 C 26,1 C 54 % 1012,2 hPa 0,0 l/m 6,0 km/h (2 Bft) SW 227 0 min 0,000 mm 1,0 UV-I 182 W/m 13,8 C 23,7 C 8,0 km/h (2 Bft) 97,87 %
25.06.2017 10:08 23,7 C 26,1 C 55 % 1012,2 hPa 0,0 l/m 3,6 km/h (1 Bft) SW 229 0 min 0,000 mm 1,0 UV-I 180 W/m 14,1 C 23,7 C 4,8 km/h (1 Bft) 98,00 %
25.06.2017 10:10 23,8 C 26,1 C 55 % 1012,2 hPa 0,0 l/m 4,6 km/h (1 Bft) SW 236 0 min 0,000 mm 1,0 UV-I 177 W/m 14,2 C 23,8 C 6,4 km/h (2 Bft) 100,00 %
25.06.2017 10:12 23,8 C 26,1 C 56 % 1012,3 hPa 0,0 l/m 5,9 km/h (2 Bft) W-SW 239 0 min 0,000 mm 1,0 UV-I 173 W/m 14,5 C 23,8 C 11,3 km/h (2 Bft) 100,00 %
25.06.2017 10:14 23,8 C 26,1 C 56 % 1012,3 hPa 0,0 l/m 5,5 km/h (1 Bft) W-SW 238 0 min 0,000 mm 0,9 UV-I 166 W/m 14,5 C 23,8 C 8,0 km/h (2 Bft) 100,00 %
25.06.2017 10:16 23,7 C 26,1 C 55 % 1012,3 hPa 0,0 l/m 4,9 km/h (1 Bft) W-SW 238 0 min 0,000 mm 0,9 UV-I 160 W/m 14,1 C 23,7 C 6,4 km/h (2 Bft) 100,00 %
25.06.2017 10:18 23,7 C 26,1 C 56 % 1012,3 hPa 0,0 l/m 5,2 km/h (1 Bft) W-SW 240 0 min 0,000 mm 0,8 UV-I 152 W/m 14,4 C 23,7 C 8,0 km/h (2 Bft) 92,00 %
25.06.2017 10:20 23,7 C 26,1 C 56 % 1012,4 hPa 0,0 l/m 4,6 km/h (1 Bft) W-SW 243 0 min 0,000 mm 0,8 UV-I 145 W/m 14,4 C 23,7 C 8,0 km/h (2 Bft) 100,00 %
25.06.2017 10:22 23,7 C 26,1 C 55 % 1012,3 hPa 0,0 l/m 6,4 km/h (2 Bft) W-SW 245 0 min 0,000 mm 0,8 UV-I 136 W/m 14,1 C 23,7 C 9,7 km/h (2 Bft) 96,23 %
25.06.2017 10:24 23,6 C 26,1 C 55 % 1012,3 hPa 0,0 l/m 7,0 km/h (2 Bft) W-SW 252 0 min 0,000 mm 0,7 UV-I 131 W/m 14,0 C 23,4 C 12,9 km/h (3 Bft) 95,12 %
25.06.2017 10:26 23,6 C 26,1 C 54 % 1012,3 hPa 0,0 l/m 7,8 km/h (2 Bft) SW 219 0 min 0,000 mm 0,7 UV-I 127 W/m 13,7 C 23,2 C 12,9 km/h (3 Bft) 94,00 %
25.06.2017 10:28 23,6 C 26,1 C 54 % 1012,3 hPa 0,0 l/m 4,8 km/h (1 Bft) W-SW 254 0 min 0,000 mm 0,7 UV-I 125 W/m 13,7 C 23,6 C 8,0 km/h (2 Bft) 98,11 %
25.06.2017 10:30 23,6 C 26,1 C 54 % 1012,3 hPa 0,0 l/m 5,6 km/h (1 Bft) W-SW 238 0 min 0,000 mm 0,7 UV-I 123 W/m 13,7 C 23,6 C 8,0 km/h (2 Bft) 96,15 %
25.06.2017 10:32 23,5 C 26,1 C 55 % 1012,2 hPa 0,0 l/m 6,4 km/h (2 Bft) W 266 0 min 0,000 mm 0,7 UV-I 122 W/m 13,9 C 23,5 C 9,7 km/h (2 Bft) 98,55 %
25.06.2017 10:34 23,5 C 26,1 C 55 % 1012,3 hPa 0,0 l/m 6,8 km/h (2 Bft) SW 226 0 min 0,000 mm 0,7 UV-I 121 W/m 13,9 C 23,4 C 11,3 km/h (2 Bft) 97,37 %
25.06.2017 10:36 23,5 C 26,1 C 55 % 1012,3 hPa 0,0 l/m 5,9 km/h (2 Bft) W 278 0 min 0,000 mm 0,7 UV-I 121 W/m 13,9 C 23,5 C 9,7 km/h (2 Bft) 93,62 %
25.06.2017 10:38 23,5 C 26,1 C 56 % 1012,3 hPa 0,0 l/m 5,4 km/h (1 Bft) W-SW 248 0 min 0,000 mm 0,7 UV-I 121 W/m 14,2 C 23,5 C 9,7 km/h (2 Bft) 92,45 %
25.06.2017 10:40 23,4 C 26,1 C 55 % 1012,3 hPa 0,0 l/m 5,5 km/h (1 Bft) SW 229 0 min 0,000 mm 0,7 UV-I 121 W/m 13,8 C 23,4 C 11,3 km/h (2 Bft) 95,74 %
25.06.2017 10:42 23,4 C 26,1 C 56 % 1012,3 hPa 0,0 l/m 6,3 km/h (2 Bft) W-SW 257 0 min 0,000 mm 0,7 UV-I 122 W/m 14,1 C 23,4 C 14,5 km/h (3 Bft) 89,47 %
25.06.2017 10:44 23,4 C 26,1 C 56 % 1012,3 hPa 0,0 l/m 6,3 km/h (2 Bft) W-SW 252 0 min 0,000 mm 0,7 UV-I 124 W/m 14,1 C 23,4 C 8,0 km/h (2 Bft) 96,23 %
25.06.2017 10:46 23,4 C 26,1 C 57 % 1012,3 hPa 0,0 l/m 6,1 km/h (2 Bft) W-SW 244 0 min 0,000 mm 0,7 UV-I 125 W/m 14,4 C 23,4 C 8,0 km/h (2 Bft) 98,00 %
25.06.2017 10:48 23,4 C 26,1 C 57 % 1012,3 hPa 0,0 l/m 6,9 km/h (2 Bft) W-SW 252 0 min 0,000 mm 0,7 UV-I 127 W/m 14,4 C 23,3 C 11,3 km/h (2 Bft) 94,87 %
25.06.2017 10:50 23,4 C 26,1 C 58 % 1012,4 hPa 0,0 l/m 4,6 km/h (1 Bft) W-SW 250 0 min 0,000 mm 0,7 UV-I 128 W/m 14,7 C 23,4 C 6,4 km/h (2 Bft) 94,29 %
25.06.2017 10:52 23,3 C 26,1 C 57 % 1012,4 hPa 0,0 l/m 6,5 km/h (2 Bft) W-SW 239 0 min 0,000 mm 0,7 UV-I 128 W/m 14,3 C 23,3 C 11,3 km/h (2 Bft) 96,88 %
25.06.2017 10:54 23,3 C 26,1 C 57 % 1012,4 hPa 0,0 l/m 4,9 km/h (1 Bft) W 265 0 min 0,000 mm 0,7 UV-I 128 W/m 14,3 C 23,3 C 9,7 km/h (2 Bft) 100,00 %
25.06.2017 10:56 23,3 C 26,1 C 58 % 1012,4 hPa 0,0 l/m 3,4 km/h (1 Bft) W 277 0 min 0,000 mm 0,7 UV-I 127 W/m 14,6 C 23,3 C 6,4 km/h (2 Bft) 96,92 %
25.06.2017 10:58 23,3 C 26,1 C 59 % 1012,4 hPa 0,0 l/m 3,6 km/h (1 Bft) W-SW 250 0 min 0,000 mm 0,7 UV-I 127 W/m 14,8 C 23,3 C 6,4 km/h (2 Bft) 98,21 %
25.06.2017 11:00 23,3 C 26,1 C 58 % 1012,4 hPa 0,0 l/m 6,7 km/h (2 Bft) W-SW 249 0 min 0,127 mm 0,7 UV-I 126 W/m 14,6 C 23,2 C 11,3 km/h (2 Bft) 100,00 %
25.06.2017 11:02 23,3 C 26,1 C 59 % 1012,4 hPa 0,0 l/m 8,0 km/h (2 Bft) W-SW 257 0 min 0,000 mm 0,7 UV-I 124 W/m 14,8 C 22,8 C 12,9 km/h (3 Bft) 98,31 %
25.06.2017 11:04 23,2 C 26,1 C 60 % 1012,4 hPa 0,0 l/m 5,7 km/h (1 Bft) SW 224 0 min 0,000 mm 0,7 UV-I 123 W/m 15,0 C 23,2 C 9,7 km/h (2 Bft) 97,87 %
25.06.2017 11:06 23,2 C 26,1 C 60 % 1012,4 hPa 0,0 l/m 7,3 km/h (2 Bft) SW 236 0 min 0,000 mm 0,7 UV-I 121 W/m 15,0 C 22,9 C 12,9 km/h (3 Bft) 94,34 %
25.06.2017 11:08 23,1 C 26,1 C 62 % 1012,4 hPa 0,0 l/m 7,5 km/h (2 Bft) SW 223 0 min 0,000 mm 0,7 UV-I 120 W/m 15,4 C 22,8 C 14,5 km/h (3 Bft) 100,00 %
25.06.2017 11:10 23,0 C 26,1 C 64 % 1012,4 hPa 0,0 l/m 12,7 km/h (3 Bft) W-SW 250 0 min 0,000 mm 0,7 UV-I 120 W/m 15,8 C 21,3 C 24,1 km/h (4 Bft) 94,34 %
25.06.2017 11:12 22,9 C 26,1 C 65 % 1012,4 hPa 0,0 l/m 11,1 km/h (2 Bft) SW 231 0 min 0,000 mm 0,7 UV-I 118 W/m 16,0 C 21,6 C 20,9 km/h (4 Bft) 97,37 %
25.06.2017 11:14 22,8 C 26,1 C 67 % 1012,4 hPa 0,0 l/m 11,9 km/h (2 Bft) W-SW 249 0 min 0,000 mm 0,7 UV-I 117 W/m 16,3 C 21,3 C 16,1 km/h (3 Bft) 100,00 %
25.06.2017 11:16 22,6 C 26,1 C 68 % 1012,4 hPa 0,0 l/m 11,9 km/h (2 Bft) W 267 0 min 0,000 mm 0,7 UV-I 114 W/m 16,4 C 21,0 C 19,3 km/h (3 Bft) 97,37 %
25.06.2017 11:18 22,4 C 26,1 C 69 % 1012,4 hPa 0,0 l/m 10,3 km/h (2 Bft) W-SW 248 0 min 0,000 mm 0,6 UV-I 112 W/m 16,4 C 21,2 C 17,7 km/h (3 Bft) 97,87 %
25.06.2017 11:20 22,3 C 26,1 C 71 % 1012,4 hPa 0,0 l/m 11,0 km/h (2 Bft) W-SW 248 0 min 0,000 mm 0,6 UV-I 108 W/m 16,8 C 20,9 C 16,1 km/h (3 Bft) 100,00 %
25.06.2017 11:22 22,1 C 26,1 C 71 % 1012,4 hPa 0,0 l/m 11,7 km/h (2 Bft) W-SW 246 0 min 0,000 mm 0,6 UV-I 107 W/m 16,6 C 20,5 C 17,7 km/h (3 Bft) 100,00 %
25.06.2017 11:24 21,9 C 26,1 C 73 % 1012,4 hPa 0,0 l/m 10,3 km/h (2 Bft) W-SW 258 0 min 0,000 mm 0,6 UV-I 107 W/m 16,8 C 20,7 C 14,5 km/h (3 Bft) 96,43 %
25.06.2017 11:26 21,8 C 26,1 C 74 % 1012,4 hPa 0,0 l/m 10,2 km/h (2 Bft) W-SW 246 0 min 0,000 mm 0,6 UV-I 105 W/m 17,0 C 20,6 C 14,5 km/h (3 Bft) 100,00 %
25.06.2017 11:28 21,7 C 26,1 C 75 % 1012,4 hPa 0,0 l/m 10,0 km/h (2 Bft) W-SW 243 0 min 0,000 mm 0,6 UV-I 103 W/m 17,1 C 20,5 C 16,1 km/h (3 Bft) 98,21 %
25.06.2017 11:30 21,6 C 26,1 C 77 % 1012,5 hPa 0,0 l/m 11,9 km/h (2 Bft) W-SW 248 0 min 0,000 mm 0,6 UV-I 99 W/m 17,4 C 19,9 C 16,1 km/h (3 Bft) 96,30 %
25.06.2017 11:32 21,6 C 26,1 C 76 % 1012,5 hPa 0,0 l/m 8,2 km/h (2 Bft) W-SW 250 0 min 0,000 mm 0,6 UV-I 96 W/m 17,2 C 21,0 C 12,9 km/h (3 Bft) 98,39 %
25.06.2017 11:34 21,4 C 26,1 C 77 % 1012,5 hPa 0,2 l/m 11,0 km/h (2 Bft) W 263 0 min 0,000 mm 0,5 UV-I 91 W/m 17,2 C 19,9 C 16,1 km/h (3 Bft) 100,00 %
25.06.2017 11:36 21,3 C 26,1 C 78 % 1012,5 hPa 0,0 l/m 10,0 km/h (2 Bft) W 259 0 min 0,000 mm 0,5 UV-I 86 W/m 17,3 C 20,1 C 14,5 km/h (3 Bft) 92,00 %
25.06.2017 11:38 21,2 C 26,1 C 79 % 1012,5 hPa 0,0 l/m 9,3 km/h (2 Bft) W-SW 247 0 min 0,000 mm 0,5 UV-I 82 W/m 17,4 C 20,2 C 16,1 km/h (3 Bft) 100,00 %
25.06.2017 11:40 21,1 C 26,1 C 79 % 1012,5 hPa 0,0 l/m 8,9 km/h (2 Bft) W-SW 256 0 min 0,000 mm 0,2 UV-I 76 W/m 17,3 C 20,2 C 14,5 km/h (3 Bft) 97,73 %
25.06.2017 11:42 21,1 C 26,1 C 80 % 1012,5 hPa 0,0 l/m 9,3 km/h (2 Bft) W 260 0 min 0,000 mm 0,0 UV-I 74 W/m 17,5 C 20,1 C 12,9 km/h (3 Bft) 100,00 %
25.06.2017 11:44 21,0 C 26,1 C 82 % 1012,5 hPa 0,0 l/m 7,8 km/h (2 Bft) W-SW 240 0 min 0,000 mm 0,0 UV-I 70 W/m 17,8 C 20,5 C 11,3 km/h (2 Bft) 98,00 %
25.06.2017 11:46 20,9 C 26,1 C 82 % 1012,5 hPa 0,2 l/m 7,9 km/h (2 Bft) W-SW 254 0 min 0,000 mm 0,0 UV-I 69 W/m 17,7 C 20,3 C 12,9 km/h (3 Bft) 100,00 %
25.06.2017 11:48 20,8 C 26,1 C 83 % 1012,5 hPa 0,0 l/m 9,3 km/h (2 Bft) W-SW 246 0 min 0,000 mm 0,0 UV-I 69 W/m 17,8 C 19,7 C 14,5 km/h (3 Bft) 100,00 %
25.06.2017 11:50 20,7 C 26,1 C 83 % 1012,5 hPa 0,0 l/m 9,4 km/h (2 Bft) W 278 0 min 0,000 mm 0,0 UV-I 69 W/m 17,7 C 19,6 C 14,5 km/h (3 Bft) 100,00 %
25.06.2017 11:52 20,7 C 26,1 C 84 % 1012,6 hPa 0,2 l/m 8,8 km/h (2 Bft) W-SW 253 0 min 0,000 mm 0,0 UV-I 70 W/m 17,9 C 19,8 C 14,5 km/h (3 Bft) 92,68 %
25.06.2017 11:54 20,6 C 26,1 C 85 % 1012,5 hPa 0,0 l/m 8,7 km/h (2 Bft) W-SW 257 0 min 0,000 mm 0,0 UV-I 73 W/m 18,0 C 19,7 C 12,9 km/h (3 Bft) 96,00 %
25.06.2017 11:56 20,5 C 26,1 C 85 % 1012,5 hPa 0,0 l/m 11,3 km/h (2 Bft) W 262 0 min 0,000 mm 0,0 UV-I 75 W/m 17,9 C 18,8 C 16,1 km/h (3 Bft) 97,37 %
25.06.2017 11:58 20,4 C 26,1 C 86 % 1012,6 hPa 0,2 l/m 11,4 km/h (2 Bft) W-SW 238 0 min 0,000 mm 0,5 UV-I 77 W/m 18,0 C 18,7 C 17,7 km/h (3 Bft) 97,56 %
25.06.2017 12:00 20,4 C 26,1 C 86 % 1012,6 hPa 0,0 l/m 9,9 km/h (2 Bft) W 262 0 min 0,102 mm 0,5 UV-I 78 W/m 18,0 C 19,1 C 14,5 km/h (3 Bft) 95,38 %
25.06.2017 12:02 20,3 C 26,1 C 86 % 1012,6 hPa 0,0 l/m 8,6 km/h (2 Bft) W 259 0 min 0,000 mm 0,5 UV-I 79 W/m 17,9 C 19,4 C 14,5 km/h (3 Bft) 95,74 %
25.06.2017 12:04 20,3 C 26,1 C 87 % 1012,6 hPa 0,0 l/m 8,7 km/h (2 Bft) W-SW 239 0 min 0,000 mm 0,5 UV-I 79 W/m 18,1 C 19,4 C 12,9 km/h (3 Bft) 97,37 %
25.06.2017 12:06 20,3 C 26,1 C 87 % 1012,6 hPa 0,2 l/m 10,2 km/h (2 Bft) W 263 0 min 0,000 mm 0,5 UV-I 80 W/m 18,1 C 18,9 C 14,5 km/h (3 Bft) 98,11 %
25.06.2017 12:08 20,2 C 26,1 C 87 % 1012,6 hPa 0,0 l/m 8,7 km/h (2 Bft) W-SW 257 0 min 0,000 mm 0,5 UV-I 82 W/m 18,0 C 19,3 C 12,9 km/h (3 Bft) 100,00 %
25.06.2017 12:10 20,2 C 26,1 C 88 % 1012,6 hPa 0,0 l/m 9,4 km/h (2 Bft) W-SW 240 0 min 0,000 mm 0,5 UV-I 84 W/m 18,1 C 19,1 C 14,5 km/h (3 Bft) 98,18 %
25.06.2017 12:12 20,2 C 26,1 C 88 % 1012,6 hPa 0,0 l/m 6,5 km/h (2 Bft) SW 228 0 min 0,000 mm 0,5 UV-I 86 W/m 18,1 C 20,2 C 12,9 km/h (3 Bft) 100,00 %
25.06.2017 12:14 20,2 C 26,1 C 88 % 1012,6 hPa 0,0 l/m 5,4 km/h (1 Bft) SW 232 0 min 0,000 mm 0,5 UV-I 86 W/m 18,1 C 20,2 C 9,7 km/h (2 Bft) 96,00 %
25.06.2017 12:16 20,2 C 26,1 C 88 % 1012,6 hPa 0,0 l/m 5,1 km/h (1 Bft) SW 229 0 min 0,000 mm 0,5 UV-I 83 W/m 18,1 C 20,2 C 6,4 km/h (2 Bft) 97,37 %
25.06.2017 12:18 20,2 C 26,1 C 89 % 1012,6 hPa 0,0 l/m 6,4 km/h (2 Bft) SW 227 0 min 0,000 mm 0,5 UV-I 80 W/m 18,3 C 20,2 C 11,3 km/h (2 Bft) 96,00 %
25.06.2017 12:20 20,2 C 26,1 C 89 % 1012,6 hPa 0,0 l/m 6,8 km/h (2 Bft) SW 236 0 min 0,000 mm 0,5 UV-I 77 W/m 18,3 C 20,0 C 9,7 km/h (2 Bft) 90,00 %
25.06.2017 12:22 20,2 C 26,1 C 89 % 1012,6 hPa 0,0 l/m 5,5 km/h (1 Bft) W 261 0 min 0,000 mm 0,5 UV-I 76 W/m 18,3 C 20,2 C 9,7 km/h (2 Bft) 95,12 %
25.06.2017 12:24 20,2 C 26,1 C 89 % 1012,6 hPa 0,0 l/m 5,6 km/h (1 Bft) W 267 0 min 0,000 mm 0,5 UV-I 76 W/m 18,3 C 20,2 C 8,0 km/h (2 Bft) 97,87 %
25.06.2017 12:26 20,2 C 26,1 C 89 % 1012,6 hPa 0,0 l/m 7,5 km/h (2 Bft) SW 236 0 min 0,000 mm 0,5 UV-I 76 W/m 18,3 C 19,8 C 11,3 km/h (2 Bft) 97,73 %
25.06.2017 12:28 20,2 C 26,1 C 89 % 1012,6 hPa 0,0 l/m 6,9 km/h (2 Bft) W-SW 251 0 min 0,000 mm 0,5 UV-I 76 W/m 18,3 C 20,0 C 11,3 km/h (2 Bft) 95,12 %
25.06.2017 12:30 20,1 C 26,1 C 89 % 1012,6 hPa 0,0 l/m 7,6 km/h (2 Bft) W 259 0 min 0,000 mm 0,5 UV-I 77 W/m 18,2 C 19,6 C 12,9 km/h (3 Bft) 96,23 %
25.06.2017 12:32 20,1 C 26,1 C 89 % 1012,6 hPa 0,2 l/m 5,9 km/h (2 Bft) W-SW 250 0 min 0,000 mm 0,5 UV-I 77 W/m 18,2 C 20,1 C 9,7 km/h (2 Bft) 95,74 %
25.06.2017 12:34 20,1 C 26,1 C 89 % 1012,6 hPa 0,0 l/m 6,8 km/h (2 Bft) W-SW 251 0 min 0,000 mm 0,5 UV-I 77 W/m 18,2 C 19,9 C 11,3 km/h (2 Bft) 96,61 %
25.06.2017 12:36 20,0 C 26,1 C 89 % 1012,7 hPa 0,0 l/m 10,0 km/h (2 Bft) W-SW 256 0 min 0,000 mm 0,5 UV-I 79 W/m 18,1 C 18,6 C 16,1 km/h (3 Bft) 96,15 %
25.06.2017 12:38 19,9 C 26,1 C 89 % 1012,6 hPa 0,0 l/m 8,3 km/h (2 Bft) W-SW 246 0 min 0,000 mm 0,5 UV-I 78 W/m 18,0 C 19,1 C 14,5 km/h (3 Bft) 96,23 %
25.06.2017 12:40 19,9 C 26,1 C 90 % 1012,7 hPa 0,2 l/m 9,4 km/h (2 Bft) W-SW 250 0 min 0,000 mm 0,5 UV-I 77 W/m 18,2 C 18,7 C 17,7 km/h (3 Bft) 96,23 %
25.06.2017 12:42 19,8 C 26,1 C 90 % 1012,6 hPa 0,0 l/m 9,3 km/h (2 Bft) SW 219 0 min 0,000 mm 0,1 UV-I 75 W/m 18,1 C 18,7 C 12,9 km/h (3 Bft) 94,34 %
25.06.2017 12:44 19,8 C 26,1 C 90 % 1012,7 hPa 0,0 l/m 5,8 km/h (2 Bft) W-SW 246 0 min 0,000 mm 0,0 UV-I 72 W/m 18,1 C 19,8 C 11,3 km/h (2 Bft) 97,37 %
25.06.2017 12:46 19,8 C 26,1 C 90 % 1012,7 hPa 0,0 l/m 7,7 km/h (2 Bft) W-SW 254 0 min 0,000 mm 0,0 UV-I 73 W/m 18,1 C 19,3 C 11,3 km/h (2 Bft) 98,11 %
25.06.2017 12:48 19,8 C 26,1 C 90 % 1012,7 hPa 0,2 l/m 7,8 km/h (2 Bft) SW 218 0 min 0,000 mm 0,0 UV-I 74 W/m 18,1 C 19,2 C 14,5 km/h (3 Bft) 98,00 %
25.06.2017 12:50 19,7 C 26,1 C 90 % 1012,7 hPa 0,0 l/m 9,8 km/h (2 Bft) W-SW 244 0 min 0,000 mm 0,0 UV-I 72 W/m 18,0 C 18,4 C 16,1 km/h (3 Bft) 100,00 %
25.06.2017 12:52 19,7 C 26,1 C 91 % 1012,7 hPa 0,0 l/m 11,0 km/h (2 Bft) W-SW 245 0 min 0,000 mm 0,0 UV-I 72 W/m 18,2 C 18,0 C 16,1 km/h (3 Bft) 94,87 %
25.06.2017 12:54 19,7 C 26,1 C 91 % 1012,7 hPa 0,2 l/m 7,1 km/h (2 Bft) W-SW 239 0 min 0,000 mm 0,0 UV-I 74 W/m 18,2 C 19,4 C 11,3 km/h (2 Bft) 97,37 %
25.06.2017 12:56 19,7 C 26,1 C 91 % 1012,7 hPa 0,0 l/m 10,7 km/h (2 Bft) W-SW 255 0 min 0,000 mm 0,2 UV-I 74 W/m 18,2 C 18,1 C 16,1 km/h (3 Bft) 98,21 %
25.06.2017 12:58 19,7 C 26,1 C 91 % 1012,7 hPa 0,0 l/m 10,3 km/h (2 Bft) SW 236 0 min 0,000 mm 0,5 UV-I 76 W/m 18,2 C 18,2 C 16,1 km/h (3 Bft) 98,11 %
25.06.2017 13:00 19,6 C 26,1 C 91 % 1012,8 hPa 0,0 l/m 9,7 km/h (2 Bft) W 262 0 min 0,051 mm 0,5 UV-I 76 W/m 18,1 C 18,3 C 14,5 km/h (3 Bft) 93,62 %
25.06.2017 13:02 19,6 C 26,1 C 91 % 1012,8 hPa 0,2 l/m 8,5 km/h (2 Bft) W-SW 237 0 min 0,000 mm 0,5 UV-I 76 W/m 18,1 C 18,7 C 12,9 km/h (3 Bft) 96,00 %
25.06.2017 13:04 19,6 C 26,1 C 91 % 1012,8 hPa 0,0 l/m 10,9 km/h (2 Bft) W-SW 245 0 min 0,000 mm 0,5 UV-I 77 W/m 18,1 C 17,9 C 17,7 km/h (3 Bft) 95,45 %
25.06.2017 13:06 19,5 C 26,1 C 91 % 1012,8 hPa 0,2 l/m 12,8 km/h (3 Bft) SW 222 0 min 0,000 mm 0,5 UV-I 77 W/m 18,0 C 17,2 C 19,3 km/h (3 Bft) 97,14 %
25.06.2017 13:08 19,4 C 26,1 C 91 % 1012,8 hPa 0,0 l/m 12,6 km/h (3 Bft) W-SW 257 0 min 0,000 mm 0,3 UV-I 74 W/m 17,9 C 17,2 C 16,1 km/h (3 Bft) 98,31 %
25.06.2017 13:10 19,4 C 26,1 C 91 % 1012,9 hPa 0,0 l/m 11,9 km/h (2 Bft) SW 223 0 min 0,000 mm 0,0 UV-I 70 W/m 17,9 C 17,4 C 22,5 km/h (4 Bft) 97,83 %
25.06.2017 13:12 19,4 C 26,1 C 91 % 1013,0 hPa 0,0 l/m 9,8 km/h (2 Bft) SW 215 0 min 0,000 mm 0,0 UV-I 66 W/m 17,9 C 18,0 C 17,7 km/h (3 Bft) 97,56 %
25.06.2017 13:14 19,4 C 26,1 C 91 % 1013,0 hPa 0,2 l/m 11,7 km/h (2 Bft) SW 223 0 min 0,000 mm 0,0 UV-I 63 W/m 17,9 C 17,4 C 17,7 km/h (3 Bft) 97,87 %
25.06.2017 13:16 19,3 C 26,1 C 91 % 1013,0 hPa 0,0 l/m 13,7 km/h (3 Bft) SW 236 0 min 0,000 mm 0,0 UV-I 61 W/m 17,8 C 16,7 C 20,9 km/h (4 Bft) 96,00 %
25.06.2017 13:18 19,3 C 26,1 C 92 % 1013,0 hPa 0,0 l/m 9,9 km/h (2 Bft) W-SW 244 0 min 0,000 mm 0,0 UV-I 60 W/m 18,0 C 17,9 C 14,5 km/h (3 Bft) 97,56 %
25.06.2017 13:20 19,3 C 26,1 C 92 % 1013,0 hPa 0,0 l/m 11,7 km/h (2 Bft) SW 227 0 min 0,000 mm 0,0 UV-I 60 W/m 18,0 C 17,3 C 19,3 km/h (3 Bft) 94,34 %
25.06.2017 13:23 19,3 C 26,1 C 92 % 1013,0 hPa 0,2 l/m 13,2 km/h (3 Bft) SW 230 0 min 0,000 mm 0,0 UV-I 62 W/m 18,0 C 16,9 C 19,3 km/h (3 Bft) 95,59 %
25.06.2017 13:24 19,2 C 26,1 C 92 % 1013,0 hPa 0,0 l/m 13,7 km/h (3 Bft) SW 230 0 min 0,000 mm 0,0 UV-I 63 W/m 17,9 C 16,6 C 20,9 km/h (4 Bft) 96,15 %
25.06.2017 13:26 19,2 C 26,1 C 92 % 1013,0 hPa 0,0 l/m 11,1 km/h (2 Bft) S 172 0 min 0,000 mm 0,0 UV-I 63 W/m 17,9 C 17,4 C 17,7 km/h (3 Bft) 95,45 %
25.06.2017 13:28 19,1 C 26,1 C 92 % 1013,0 hPa 0,2 l/m 14,1 km/h (3 Bft) W-SW 238 0 min 0,000 mm 0,0 UV-I 63 W/m 17,8 C 16,4 C 20,9 km/h (4 Bft) 98,00 %
25.06.2017 13:30 19,1 C 26,1 C 92 % 1013,1 hPa 0,2 l/m 12,9 km/h (3 Bft) SW 217 0 min 0,000 mm 0,0 UV-I 65 W/m 17,8 C 16,7 C 20,9 km/h (4 Bft) 96,08 %
25.06.2017 13:32 19,0 C 26,1 C 92 % 1013,1 hPa 0,0 l/m 11,3 km/h (2 Bft) S-SW 206 0 min 0,000 mm 0,0 UV-I 65 W/m 17,7 C 17,1 C 19,3 km/h (3 Bft) 95,45 %
25.06.2017 13:34 18,9 C 26,1 C 92 % 1013,1 hPa 0,2 l/m 11,6 km/h (2 Bft) SW 224 0 min 0,000 mm 0,0 UV-I 65 W/m 17,6 C 16,9 C 16,1 km/h (3 Bft) 97,37 %
25.06.2017 13:36 18,9 C 26,1 C 92 % 1013,1 hPa 0,0 l/m 9,4 km/h (2 Bft) S-SW 205 0 min 0,000 mm 0,0 UV-I 65 W/m 17,6 C 17,6 C 14,5 km/h (3 Bft) 96,61 %
25.06.2017 13:38 18,8 C 26,1 C 92 % 1013,1 hPa 0,2 l/m 11,7 km/h (2 Bft) S 177 0 min 0,000 mm 0,0 UV-I 65 W/m 17,5 C 16,7 C 19,3 km/h (3 Bft) 92,68 %
25.06.2017 13:40 18,8 C 26,1 C 92 % 1013,0 hPa 0,0 l/m 11,3 km/h (2 Bft) SW 216 0 min 0,000 mm 0,0 UV-I 65 W/m 17,5 C 16,9 C 20,9 km/h (4 Bft) 97,37 %
25.06.2017 13:42 18,8 C 26,1 C 92 % 1013,1 hPa 0,2 l/m 10,4 km/h (2 Bft) S-SW 205 0 min 0,000 mm 0,0 UV-I 65 W/m 17,5 C 17,2 C 16,1 km/h (3 Bft) 98,21 %
25.06.2017 13:44 18,7 C 26,1 C 92 % 1013,0 hPa 0,0 l/m 9,2 km/h (2 Bft) W-SW 245 0 min 0,000 mm 0,0 UV-I 67 W/m 17,4 C 17,5 C 12,9 km/h (3 Bft) 95,12 %
25.06.2017 13:46 18,7 C 26,1 C 92 % 1013,0 hPa 0,2 l/m 10,1 km/h (2 Bft) SW 221 0 min 0,000 mm 0,0 UV-I 69 W/m 17,4 C 17,2 C 12,9 km/h (3 Bft) 96,43 %
25.06.2017 13:48 18,7 C 26,1 C 92 % 1013,0 hPa 0,0 l/m 8,8 km/h (2 Bft) SW 231 0 min 0,000 mm 0,0 UV-I 70 W/m 17,4 C 17,7 C 12,9 km/h (3 Bft) 92,50 %
25.06.2017 13:50 18,6 C 26,1 C 92 % 1013,0 hPa 0,2 l/m 9,1 km/h (2 Bft) W-SW 240 0 min 0,000 mm 0,3 UV-I 74 W/m 17,3 C 17,4 C 14,5 km/h (3 Bft) 92,45 %
25.06.2017 13:52 18,6 C 26,1 C 92 % 1013,0 hPa 0,2 l/m 9,1 km/h (2 Bft) W-SW 246 0 min 0,000 mm 0,5 UV-I 80 W/m 17,3 C 17,4 C 12,9 km/h (3 Bft) 97,56 %
25.06.2017 13:54 18,6 C 26,1 C 92 % 1013,0 hPa 0,0 l/m 9,9 km/h (2 Bft) W 263 0 min 0,000 mm 0,5 UV-I 85 W/m 17,3 C 17,1 C 17,7 km/h (3 Bft) 98,11 %
25.06.2017 13:56 18,5 C 26,1 C 92 % 1013,1 hPa 0,2 l/m 12,6 km/h (3 Bft) SW 230 0 min 0,000 mm 0,6 UV-I 91 W/m 17,2 C 16,1 C 20,9 km/h (4 Bft) 97,56 %
25.06.2017 13:58 18,4 C 26,1 C 92 % 1013,1 hPa 0,2 l/m 13,5 km/h (3 Bft) W-SW 237 0 min 0,000 mm 0,6 UV-I 96 W/m 17,1 C 15,7 C 17,7 km/h (3 Bft) 98,11 %
25.06.2017 14:00 18,4 C 26,1 C 92 % 1013,2 hPa 0,0 l/m 12,4 km/h (3 Bft) W-SW 255 0 min 0,051 mm 0,6 UV-I 102 W/m 17,1 C 16,1 C 17,7 km/h (3 Bft) 100,00 %
25.06.2017 14:02 18,3 C 26,1 C 92 % 1013,2 hPa 0,0 l/m 16,7 km/h (3 Bft) W 259 0 min 0,000 mm 0,7 UV-I 107 W/m 17,0 C 14,8 C 24,1 km/h (4 Bft) 95,74 %
25.06.2017 14:04 18,3 C 26,1 C 92 % 1013,2 hPa 0,2 l/m 12,1 km/h (2 Bft) W-SW 241 0 min 0,000 mm 0,7 UV-I 115 W/m 17,0 C 16,0 C 17,7 km/h (3 Bft) 98,21 %
25.06.2017 14:06 18,3 C 26,1 C 92 % 1013,2 hPa 0,0 l/m 12,2 km/h (2 Bft) SW 228 0 min 0,000 mm 0,8 UV-I 123 W/m 17,0 C 16,0 C 20,9 km/h (4 Bft) 100,00 %
25.06.2017 14:08 18,2 C 26,1 C 92 % 1013,2 hPa 0,2 l/m 15,9 km/h (3 Bft) W 266 0 min 0,000 mm 0,9 UV-I 132 W/m 16,9 C 14,8 C 25,7 km/h (4 Bft) 100,00 %
25.06.2017 14:10 18,2 C 26,1 C 92 % 1013,3 hPa 0,0 l/m 12,8 km/h (3 Bft) W-SW 239 0 min 0,000 mm 0,9 UV-I 139 W/m 16,9 C 15,7 C 22,5 km/h (4 Bft) 100,00 %
25.06.2017 14:12 18,2 C 26,1 C 92 % 1013,2 hPa 0,2 l/m 13,7 km/h (3 Bft) SW 216 0 min 0,000 mm 1,0 UV-I 148 W/m 16,9 C 15,4 C 19,3 km/h (3 Bft) 96,92 %
25.06.2017 14:14 18,2 C 26,1 C 92 % 1013,3 hPa 0,0 l/m 11,3 km/h (2 Bft) SW 236 0 min 0,000 mm 1,0 UV-I 158 W/m 16,9 C 16,2 C 16,1 km/h (3 Bft) 98,00 %
25.06.2017 14:16 18,2 C 26,1 C 92 % 1013,3 hPa 0,2 l/m 13,4 km/h (3 Bft) SW 229 0 min 0,000 mm 1,1 UV-I 167 W/m 16,9 C 15,5 C 17,7 km/h (3 Bft) 95,45 %
25.06.2017 14:18 18,2 C 26,1 C 92 % 1013,3 hPa 0,0 l/m 10,4 km/h (2 Bft) W-SW 250 0 min 0,000 mm 1,2 UV-I 180 W/m 16,9 C 16,5 C 14,5 km/h (3 Bft) 97,56 %
25.06.2017 14:20 18,2 C 26,1 C 92 % 1013,2 hPa 0,0 l/m 9,7 km/h (2 Bft) SW 215 0 min 0,000 mm 1,3 UV-I 196 W/m 16,9 C 16,8 C 17,7 km/h (3 Bft) 96,23 %
25.06.2017 14:22 18,2 C 26,1 C 92 % 1013,2 hPa 0,0 l/m 11,8 km/h (2 Bft) SW 232 0 min 0,000 mm 1,4 UV-I 213 W/m 16,9 C 16,0 C 17,7 km/h (3 Bft) 95,12 %
25.06.2017 14:24 18,2 C 26,1 C 92 % 1013,1 hPa 0,2 l/m 11,9 km/h (2 Bft) W-SW 256 0 min 0,000 mm 1,5 UV-I 231 W/m 16,9 C 16,0 C 19,3 km/h (3 Bft) 96,23 %
25.06.2017 14:26 18,3 C 26,1 C 92 % 1013,1 hPa 0,0 l/m 9,2 km/h (2 Bft) W 265 0 min 0,000 mm 1,7 UV-I 246 W/m 17,0 C 17,1 C 14,5 km/h (3 Bft) 95,12 %
25.06.2017 14:28 18,3 C 26,1 C 92 % 1013,0 hPa 0,0 l/m 9,7 km/h (2 Bft) SW 234 0 min 0,000 mm 1,7 UV-I 256 W/m 17,0 C 16,9 C 14,5 km/h (3 Bft) 95,74 %
25.06.2017 14:30 18,3 C 26,1 C 92 % 1013,0 hPa 0,0 l/m 11,4 km/h (2 Bft) SW 225 0 min 0,000 mm 1,7 UV-I 259 W/m 17,0 C 16,3 C 16,1 km/h (3 Bft) 96,00 %
25.06.2017 14:32 18,4 C 26,1 C 93 % 1013,0 hPa 0,0 l/m 12,2 km/h (2 Bft) SW 228 0 min 0,000 mm 1,7 UV-I 258 W/m 17,2 C 16,1 C 19,3 km/h (3 Bft) 97,56 %
25.06.2017 14:34 18,5 C 26,1 C 93 % 1012,9 hPa 0,2 l/m 12,2 km/h (2 Bft) W-SW 250 0 min 0,000 mm 1,7 UV-I 250 W/m 17,3 C 16,2 C 20,9 km/h (4 Bft) 96,43 %
25.06.2017 14:36 18,5 C 26,1 C 93 % 1012,9 hPa 0,0 l/m 9,3 km/h (2 Bft) SW 229 0 min 0,000 mm 1,6 UV-I 234 W/m 17,3 C 17,2 C 12,9 km/h (3 Bft) 96,00 %
25.06.2017 14:38 18,5 C 26,1 C 92 % 1012,8 hPa 0,0 l/m 14,4 km/h (3 Bft) SW 225 0 min 0,000 mm 1,4 UV-I 222 W/m 17,2 C 15,6 C 19,3 km/h (3 Bft) 97,56 %
25.06.2017 14:40 18,4 C 26,1 C 92 % 1012,7 hPa 0,0 l/m 13,3 km/h (3 Bft) W-SW 250 0 min 0,000 mm 1,4 UV-I 221 W/m 17,1 C 15,8 C 19,3 km/h (3 Bft) 96,23 %
25.06.2017 14:43 18,5 C 26,1 C 92 % 1012,6 hPa 0,0 l/m 10,5 km/h (2 Bft) W 261 0 min 0,000 mm 1,5 UV-I 227 W/m 17,2 C 16,8 C 19,3 km/h (3 Bft) 97,06 %
25.06.2017 14:44 18,5 C 26,1 C 92 % 1012,6 hPa 0,0 l/m 12,4 km/h (3 Bft) W-SW 243 0 min 0,000 mm 1,5 UV-I 230 W/m 17,2 C 16,2 C 16,1 km/h (3 Bft) 100,00 %
25.06.2017 14:46 18,5 C 26,1 C 91 % 1012,6 hPa 0,0 l/m 13,2 km/h (3 Bft) W 259 0 min 0,000 mm 1,5 UV-I 230 W/m 17,0 C 15,9 C 16,1 km/h (3 Bft) 97,37 %
25.06.2017 14:48 18,6 C 26,1 C 92 % 1012,5 hPa 0,0 l/m 9,1 km/h (2 Bft) W-SW 244 0 min 0,000 mm 1,5 UV-I 233 W/m 17,3 C 17,4 C 14,5 km/h (3 Bft) 98,36 %
25.06.2017 14:50 18,6 C 26,1 C 92 % 1012,5 hPa 0,0 l/m 10,1 km/h (2 Bft) W 261 0 min 0,000 mm 1,5 UV-I 237 W/m 17,3 C 17,1 C 14,5 km/h (3 Bft) 97,62 %
25.06.2017 14:52 18,7 C 26,1 C 92 % 1012,4 hPa 0,0 l/m 11,2 km/h (2 Bft) SW 220 0 min 0,000 mm 1,5 UV-I 237 W/m 17,4 C 16,8 C 16,1 km/h (3 Bft) 97,87 %
25.06.2017 14:54 18,7 C 26,1 C 91 % 1012,4 hPa 0,0 l/m 8,8 km/h (2 Bft) SW 215 0 min 0,000 mm 1,5 UV-I 240 W/m 17,2 C 17,7 C 14,5 km/h (3 Bft) 100,00 %
25.06.2017 14:56 18,7 C 26,1 C 92 % 1012,4 hPa 0,0 l/m 11,0 km/h (2 Bft) SW 215 0 min 0,000 mm 1,6 UV-I 243 W/m 17,4 C 16,9 C 20,9 km/h (4 Bft) 97,87 %
25.06.2017 14:58 18,8 C 26,1 C 92 % 1012,4 hPa 0,0 l/m 11,0 km/h (2 Bft) W 273 0 min 0,000 mm 1,6 UV-I 249 W/m 17,5 C 17,0 C 14,5 km/h (3 Bft) 100,00 %
25.06.2017 15:00 18,8 C 26,1 C 92 % 1012,4 hPa 0,0 l/m 10,3 km/h (2 Bft) S-SW 213 0 min 0,127 mm 1,6 UV-I 256 W/m 17,5 C 17,2 C 14,5 km/h (3 Bft) 98,00 %
25.06.2017 15:02 18,8 C 26,1 C 92 % 1012,4 hPa 0,0 l/m 9,9 km/h (2 Bft) SW 214 0 min 0,000 mm 1,7 UV-I 260 W/m 17,5 C 17,4 C 14,5 km/h (3 Bft) 97,87 %
25.06.2017 15:04 18,9 C 26,1 C 91 % 1012,3 hPa 0,0 l/m 10,8 km/h (2 Bft) SW 219 0 min 0,000 mm 1,7 UV-I 265 W/m 17,4 C 17,1 C 17,7 km/h (3 Bft) 98,11 %
25.06.2017 15:06 18,9 C 26,1 C 91 % 1012,3 hPa 0,0 l/m 8,5 km/h (2 Bft) W-SW 242 0 min 0,000 mm 1,7 UV-I 270 W/m 17,4 C 18,0 C 14,5 km/h (3 Bft) 100,00 %
25.06.2017 15:08 18,9 C 26,1 C 91 % 1012,3 hPa 0,0 l/m 9,8 km/h (2 Bft) SW 233 0 min 0,000 mm 1,7 UV-I 274 W/m 17,4 C 17,5 C 14,5 km/h (3 Bft) 98,11 %
25.06.2017 15:10 18,9 C 26,1 C 91 % 1012,3 hPa 0,0 l/m 8,9 km/h (2 Bft) SW 221 0 min 0,000 mm 1,8 UV-I 280 W/m 17,4 C 17,8 C 12,9 km/h (3 Bft) 97,87 %
25.06.2017 15:12 19,1 C 26,1 C 91 % 1012,3 hPa 0,0 l/m 8,4 km/h (2 Bft) W-SW 246 0 min 0,000 mm 1,8 UV-I 294 W/m 17,6 C 18,2 C 12,9 km/h (3 Bft) 97,87 %
25.06.2017 15:14 19,2 C 26,1 C 92 % 1012,3 hPa 0,0 l/m 6,1 km/h (2 Bft) W-SW 251 0 min 0,000 mm 2,0 UV-I 312 W/m 17,9 C 19,2 C 11,3 km/h (2 Bft) 98,00 %
25.06.2017 15:16 19,2 C 26,1 C 92 % 1012,4 hPa 0,0 l/m 6,6 km/h (2 Bft) W-SW 248 0 min 0,000 mm 2,1 UV-I 322 W/m 17,9 C 19,1 C 12,9 km/h (3 Bft) 97,37 %
25.06.2017 15:18 19,2 C 26,1 C 91 % 1012,3 hPa 0,0 l/m 9,3 km/h (2 Bft) W-SW 250 0 min 0,000 mm 2,1 UV-I 326 W/m 17,7 C 18,0 C 17,7 km/h (3 Bft) 100,00 %
25.06.2017 15:20 19,3 C 26,1 C 91 % 1012,3 hPa 0,0 l/m 8,4 km/h (2 Bft) W-SW 256 0 min 0,000 mm 2,2 UV-I 340 W/m 17,8 C 18,5 C 11,3 km/h (2 Bft) 97,73 %
25.06.2017 15:22 19,3 C 26,1 C 91 % 1012,3 hPa 0,0 l/m 10,6 km/h (2 Bft) SW 225 0 min 0,000 mm 2,3 UV-I 355 W/m 17,8 C 17,7 C 16,1 km/h (3 Bft) 100,00 %
25.06.2017 15:24 19,3 C 26,1 C 90 % 1012,2 hPa 0,0 l/m 8,7 km/h (2 Bft) SW 223 0 min 0,000 mm 2,3 UV-I 357 W/m 17,6 C 18,3 C 16,1 km/h (3 Bft) 97,44 %
25.06.2017 15:26 19,4 C 26,1 C 90 % 1012,2 hPa 0,0 l/m 9,5 km/h (2 Bft) W-SW 255 0 min 0,000 mm 2,2 UV-I 340 W/m 17,7 C 18,2 C 14,5 km/h (3 Bft) 100,00 %
25.06.2017 15:28 19,4 C 26,1 C 89 % 1012,3 hPa 0,0 l/m 12,2 km/h (2 Bft) W-SW 240 0 min 0,000 mm 2,1 UV-I 309 W/m 17,5 C 17,3 C 19,3 km/h (3 Bft) 98,00 %
25.06.2017 15:30 19,5 C 26,1 C 89 % 1012,3 hPa 0,0 l/m 10,8 km/h (2 Bft) W-SW 250 0 min 0,000 mm 1,8 UV-I 280 W/m 17,6 C 17,8 C 16,1 km/h (3 Bft) 95,12 %
25.06.2017 15:32 19,6 C 26,1 C 90 % 1012,3 hPa 0,0 l/m 8,1 km/h (2 Bft) SW 233 0 min 0,000 mm 1,7 UV-I 262 W/m 17,9 C 18,9 C 12,9 km/h (3 Bft) 96,43 %
25.06.2017 15:34 19,6 C 26,1 C 89 % 1012,4 hPa 0,0 l/m 11,8 km/h (2 Bft) SW 230 0 min 0,000 mm 1,6 UV-I 256 W/m 17,7 C 17,6 C 17,7 km/h (3 Bft) 96,55 %
25.06.2017 15:36 19,7 C 26,1 C 89 % 1012,4 hPa 0,0 l/m 5,2 km/h (1 Bft) S-SW 211 0 min 0,000 mm 1,6 UV-I 258 W/m 17,8 C 19,7 C 9,7 km/h (2 Bft) 98,00 %
25.06.2017 15:38 19,7 C 26,1 C 89 % 1012,5 hPa 0,0 l/m 9,8 km/h (2 Bft) W 281 0 min 0,000 mm 1,7 UV-I 278 W/m 17,8 C 18,4 C 16,1 km/h (3 Bft) 98,21 %
25.06.2017 15:40 19,7 C 26,1 C 89 % 1012,5 hPa 0,0 l/m 8,3 km/h (2 Bft) W-SW 258 0 min 0,000 mm 1,8 UV-I 293 W/m 17,8 C 18,9 C 12,9 km/h (3 Bft) 96,00 %
25.06.2017 15:42 19,7 C 26,1 C 87 % 1012,5 hPa 0,0 l/m 11,3 km/h (2 Bft) W-SW 250 0 min 0,000 mm 1,7 UV-I 285 W/m 17,5 C 17,9 C 19,3 km/h (3 Bft) 100,00 %
25.06.2017 15:44 19,7 C 26,1 C 88 % 1012,5 hPa 0,0 l/m 11,4 km/h (2 Bft) W 259 0 min 0,000 mm 1,6 UV-I 271 W/m 17,7 C 17,9 C 19,3 km/h (3 Bft) 98,78 %
25.06.2017 15:46 19,7 C 26,1 C 88 % 1012,5 hPa 0,0 l/m 13,9 km/h (3 Bft) S-SW 212 0 min 0,000 mm 1,6 UV-I 266 W/m 17,7 C 17,2 C 24,1 km/h (4 Bft) 97,56 %
25.06.2017 15:48 19,7 C 26,1 C 86 % 1012,5 hPa 0,0 l/m 14,7 km/h (3 Bft) W-SW 237 0 min 0,000 mm 1,6 UV-I 267 W/m 17,3 C 17,0 C 20,9 km/h (4 Bft) 98,11 %
25.06.2017 15:50 19,7 C 26,1 C 87 % 1012,5 hPa 0,0 l/m 11,7 km/h (2 Bft) W-SW 248 0 min 0,000 mm 1,6 UV-I 272 W/m 17,5 C 17,8 C 17,7 km/h (3 Bft) 97,56 %
25.06.2017 15:52 19,8 C 26,1 C 87 % 1012,4 hPa 0,0 l/m 9,9 km/h (2 Bft) S-SW 204 0 min 0,000 mm 1,7 UV-I 279 W/m 17,6 C 18,5 C 14,5 km/h (3 Bft) 100,00 %
25.06.2017 15:54 19,8 C 26,1 C 87 % 1012,5 hPa 0,0 l/m 9,1 km/h (2 Bft) W-SW 254 0 min 0,000 mm 1,7 UV-I 280 W/m 17,6 C 18,7 C 20,9 km/h (4 Bft) 97,87 %
25.06.2017 15:56 19,8 C 26,1 C 87 % 1012,5 hPa 0,0 l/m 9,5 km/h (2 Bft) SW 235 0 min 0,000 mm 1,7 UV-I 270 W/m 17,6 C 18,6 C 16,1 km/h (3 Bft) 100,00 %
25.06.2017 15:58 19,8 C 26,1 C 86 % 1012,5 hPa 0,0 l/m 12,0 km/h (2 Bft) SW 236 0 min 0,000 mm 1,5 UV-I 251 W/m 17,4 C 17,8 C 17,7 km/h (3 Bft) 100,00 %
25.06.2017 16:00 19,9 C 26,1 C 87 % 1012,6 hPa 0,0 l/m 8,6 km/h (2 Bft) SW 232 0 min 0,000 mm 1,4 UV-I 239 W/m 17,7 C 19,0 C 14,5 km/h (3 Bft) 98,00 %
25.06.2017 16:02 19,9 C 26,1 C 87 % 1012,6 hPa 0,0 l/m 9,0 km/h (2 Bft) S-SW 205 0 min 0,177 mm 1,4 UV-I 232 W/m 17,7 C 18,9 C 14,5 km/h (3 Bft) 97,62 %
25.06.2017 16:04 19,9 C 26,1 C 87 % 1012,6 hPa 0,0 l/m 8,5 km/h (2 Bft) SW 230 0 min 0,000 mm 1,4 UV-I 232 W/m 17,7 C 19,1 C 16,1 km/h (3 Bft) 97,56 %
25.06.2017 16:06 20,0 C 26,1 C 87 % 1012,6 hPa 0,0 l/m 10,3 km/h (2 Bft) W-SW 244 0 min 0,000 mm 1,4 UV-I 244 W/m 17,8 C 18,5 C 17,7 km/h (3 Bft) 96,23 %
25.06.2017 16:08 20,0 C 26,1 C 87 % 1012,5 hPa 0,0 l/m 13,4 km/h (3 Bft) W-SW 257 0 min 0,000 mm 1,6 UV-I 268 W/m 17,8 C 17,6 C 20,9 km/h (4 Bft) 97,73 %
25.06.2017 16:10 20,0 C 26,1 C 86 % 1012,5 hPa 0,0 l/m 10,7 km/h (2 Bft) W-SW 237 0 min 0,000 mm 1,7 UV-I 286 W/m 17,6 C 18,4 C 16,1 km/h (3 Bft) 96,00 %
25.06.2017 16:12 20,0 C 26,1 C 86 % 1012,5 hPa 0,0 l/m 10,8 km/h (2 Bft) W-SW 248 0 min 0,000 mm 1,7 UV-I 290 W/m 17,6 C 18,4 C 16,1 km/h (3 Bft) 96,00 %
25.06.2017 16:14 20,0 C 26,1 C 86 % 1012,5 hPa 0,0 l/m 9,1 km/h (2 Bft) W 263 0 min 0,000 mm 1,7 UV-I 287 W/m 17,6 C 18,9 C 12,9 km/h (3 Bft) 94,74 %
25.06.2017 16:16 20,1 C 26,1 C 87 % 1012,5 hPa 0,0 l/m 9,6 km/h (2 Bft) W-SW 257 0 min 0,000 mm 1,7 UV-I 283 W/m 17,9 C 18,9 C 12,9 km/h (3 Bft) 96,61 %
25.06.2017 16:18 20,1 C 26,1 C 87 % 1012,4 hPa 0,0 l/m 8,0 km/h (2 Bft) W-SW 256 0 min 0,000 mm 1,7 UV-I 289 W/m 17,9 C 19,5 C 14,5 km/h (3 Bft) 95,12 %
25.06.2017 16:20 20,1 C 26,1 C 87 % 1012,4 hPa 0,0 l/m 11,0 km/h (2 Bft) S-SW 213 0 min 0,000 mm 1,7 UV-I 282 W/m 17,9 C 18,4 C 14,5 km/h (3 Bft) 98,11 %
25.06.2017 16:22 20,2 C 26,1 C 87 % 1012,4 hPa 0,0 l/m 6,8 km/h (2 Bft) W-SW 249 0 min 0,000 mm 1,5 UV-I 254 W/m 18,0 C 20,0 C 12,9 km/h (3 Bft) 97,56 %
25.06.2017 16:24 20,2 C 26,1 C 87 % 1012,5 hPa 0,0 l/m 10,0 km/h (2 Bft) W-SW 251 0 min 0,000 mm 1,3 UV-I 233 W/m 18,0 C 18,9 C 14,5 km/h (3 Bft) 93,62 %
25.06.2017 16:26 20,2 C 26,1 C 87 % 1012,4 hPa 0,0 l/m 7,1 km/h (2 Bft) W-SW 253 0 min 0,000 mm 1,3 UV-I 218 W/m 18,0 C 19,9 C 11,3 km/h (2 Bft) 98,00 %
25.06.2017 16:28 20,2 C 26,1 C 86 % 1012,4 hPa 0,0 l/m 8,0 km/h (2 Bft) SW 236 0 min 0,000 mm 1,2 UV-I 212 W/m 17,8 C 19,6 C 12,9 km/h (3 Bft) 94,00 %
25.06.2017 16:30 20,2 C 26,1 C 86 % 1012,4 hPa 0,0 l/m 9,0 km/h (2 Bft) W 260 0 min 0,000 mm 1,2 UV-I 217 W/m 17,8 C 19,2 C 12,9 km/h (3 Bft) 97,37 %
25.06.2017 16:32 20,2 C 26,1 C 86 % 1012,4 hPa 0,0 l/m 9,1 km/h (2 Bft) SW 234 0 min 0,000 mm 1,3 UV-I 227 W/m 17,8 C 19,2 C 14,5 km/h (3 Bft) 97,73 %
25.06.2017 16:34 20,2 C 26,1 C 86 % 1012,4 hPa 0,0 l/m 7,8 km/h (2 Bft) W 259 0 min 0,000 mm 1,3 UV-I 230 W/m 17,8 C 19,6 C 12,9 km/h (3 Bft) 95,12 %
25.06.2017 16:36 20,2 C 26,1 C 87 % 1012,4 hPa 0,0 l/m 5,8 km/h (2 Bft) W-SW 247 0 min 0,000 mm 1,3 UV-I 225 W/m 18,0 C 20,2 C 8,0 km/h (2 Bft) 94,34 %
25.06.2017 16:38 20,2 C 26,1 C 86 % 1012,4 hPa 0,0 l/m 9,9 km/h (2 Bft) W-SW 244 0 min 0,000 mm 1,1 UV-I 202 W/m 17,8 C 18,9 C 17,7 km/h (3 Bft) 98,11 %
25.06.2017 16:40 20,2 C 26,1 C 86 % 1012,5 hPa 0,0 l/m 10,2 km/h (2 Bft) W-NW 299 0 min 0,000 mm 1,0 UV-I 184 W/m 17,8 C 18,8 C 14,5 km/h (3 Bft) 95,74 %
25.06.2017 16:42 20,2 C 26,1 C 85 % 1012,5 hPa 0,0 l/m 10,8 km/h (2 Bft) W 279 0 min 0,000 mm 0,9 UV-I 170 W/m 17,6 C 18,6 C 20,9 km/h (4 Bft) 100,00 %
25.06.2017 16:44 20,2 C 26,1 C 84 % 1012,5 hPa 0,0 l/m 9,6 km/h (2 Bft) W 265 0 min 0,000 mm 0,9 UV-I 160 W/m 17,4 C 19,0 C 14,5 km/h (3 Bft) 94,44 %
25.06.2017 16:46 20,2 C 26,1 C 84 % 1012,5 hPa 0,0 l/m 11,4 km/h (2 Bft) W 259 0 min 0,000 mm 0,8 UV-I 149 W/m 17,4 C 18,4 C 14,5 km/h (3 Bft) 100,00 %
25.06.2017 16:48 20,1 C 26,1 C 84 % 1012,5 hPa 0,0 l/m 9,4 km/h (2 Bft) SW 219 0 min 0,000 mm 0,7 UV-I 140 W/m 17,3 C 19,0 C 17,7 km/h (3 Bft) 98,00 %
25.06.2017 16:50 20,1 C 26,1 C 85 % 1012,5 hPa 0,0 l/m 12,0 km/h (2 Bft) S 191 0 min 0,000 mm 0,7 UV-I 136 W/m 17,5 C 18,1 C 20,9 km/h (4 Bft) 100,00 %
25.06.2017 16:52 20,1 C 26,1 C 84 % 1012,5 hPa 0,0 l/m 11,3 km/h (2 Bft) W-SW 238 0 min 0,000 mm 0,7 UV-I 138 W/m 17,3 C 18,3 C 16,1 km/h (3 Bft) 96,00 %
25.06.2017 16:54 20,1 C 26,1 C 84 % 1012,5 hPa 0,0 l/m 11,9 km/h (2 Bft) SW 228 0 min 0,000 mm 0,8 UV-I 143 W/m 17,3 C 18,2 C 19,3 km/h (3 Bft) 92,45 %
25.06.2017 16:56 20,1 C 26,1 C 84 % 1012,5 hPa 0,0 l/m 9,2 km/h (2 Bft) S 180 0 min 0,000 mm 0,8 UV-I 158 W/m 17,3 C 19,0 C 14,5 km/h (3 Bft) 97,73 %
25.06.2017 16:58 20,1 C 26,1 C 84 % 1012,5 hPa 0,0 l/m 10,3 km/h (2 Bft) S-SO 163 0 min 0,000 mm 1,0 UV-I 179 W/m 17,3 C 18,7 C 16,1 km/h (3 Bft) 92,68 %
25.06.2017 17:00 20,1 C 26,1 C 84 % 1012,4 hPa 0,0 l/m 11,6 km/h (2 Bft) W-SW 238 0 min 0,153 mm 1,0 UV-I 191 W/m 17,3 C 18,3 C 19,3 km/h (3 Bft) 96,00 %
25.06.2017 17:02 20,1 C 26,1 C 83 % 1012,5 hPa 0,0 l/m 15,5 km/h (3 Bft) S-SW 193 0 min 0,000 mm 1,0 UV-I 187 W/m 17,1 C 17,3 C 22,5 km/h (4 Bft) 97,37 %
25.06.2017 17:04 20,1 C 26,1 C 83 % 1012,5 hPa 0,0 l/m 11,4 km/h (2 Bft) W 278 0 min 0,000 mm 0,9 UV-I 171 W/m 17,1 C 18,3 C 19,3 km/h (3 Bft) 95,74 %
25.06.2017 17:06 20,1 C 26,1 C 83 % 1012,5 hPa 0,0 l/m 12,3 km/h (3 Bft) SW 221 0 min 0,000 mm 0,8 UV-I 153 W/m 17,1 C 18,1 C 20,9 km/h (4 Bft) 94,00 %
25.06.2017 17:08 20,1 C 26,1 C 83 % 1012,5 hPa 0,0 l/m 15,4 km/h (3 Bft) S-SO 157 0 min 0,000 mm 0,7 UV-I 140 W/m 17,1 C 17,3 C 24,1 km/h (4 Bft) 98,00 %
25.06.2017 17:10 20,1 C 26,1 C 83 % 1012,5 hPa 0,0 l/m 12,4 km/h (3 Bft) SW 232 0 min 0,000 mm 0,7 UV-I 141 W/m 17,1 C 18,0 C 19,3 km/h (3 Bft) 97,56 %
25.06.2017 17:12 20,0 C 25,6 C 83 % 1012,4 hPa 0,0 l/m 13,9 km/h (3 Bft) W-SW 242 0 min 0,000 mm 0,7 UV-I 147 W/m 17,0 C 17,5 C 19,3 km/h (3 Bft) 96,43 %
25.06.2017 17:14 20,0 C 25,6 C 83 % 1012,4 hPa 0,0 l/m 11,9 km/h (2 Bft) W 261 0 min 0,000 mm 0,8 UV-I 156 W/m 17,0 C 18,1 C 19,3 km/h (3 Bft) 96,30 %
25.06.2017 17:16 20,0 C 25,6 C 83 % 1012,4 hPa 0,0 l/m 8,9 km/h (2 Bft) W-SW 257 0 min 0,000 mm 0,8 UV-I 161 W/m 17,0 C 19,0 C 12,9 km/h (3 Bft) 97,01 %
25.06.2017 17:18 19,9 C 25,6 C 83 % 1012,4 hPa 0,0 l/m 10,5 km/h (2 Bft) SW 224 0 min 0,000 mm 0,8 UV-I 158 W/m 16,9 C 18,4 C 19,3 km/h (3 Bft) 95,12 %
25.06.2017 17:20 20,0 C 25,6 C 83 % 1012,4 hPa 0,0 l/m 11,5 km/h (2 Bft) W-SW 250 0 min 0,000 mm 0,8 UV-I 153 W/m 17,0 C 18,2 C 16,1 km/h (3 Bft) 95,83 %
25.06.2017 17:22 20,0 C 25,6 C 83 % 1012,5 hPa 0,0 l/m 13,2 km/h (3 Bft) SW 231 0 min 0,000 mm 0,8 UV-I 162 W/m 17,0 C 17,7 C 17,7 km/h (3 Bft) 95,74 %
25.06.2017 17:24 20,0 C 25,6 C 83 % 1012,5 hPa 0,0 l/m 10,3 km/h (2 Bft) W-SW 256 0 min 0,000 mm 0,9 UV-I 186 W/m 17,0 C 18,5 C 17,7 km/h (3 Bft) 96,00 %
25.06.2017 17:26 20,0 C 25,6 C 82 % 1012,4 hPa 0,0 l/m 11,2 km/h (2 Bft) W 274 0 min 0,000 mm 0,9 UV-I 206 W/m 16,8 C 18,3 C 17,7 km/h (3 Bft) 95,12 %
25.06.2017 17:28 20,1 C 25,6 C 83 % 1012,4 hPa 0,0 l/m 8,5 km/h (2 Bft) S-SW 212 0 min 0,000 mm 1,0 UV-I 211 W/m 17,1 C 19,3 C 14,5 km/h (3 Bft) 98,00 %
25.06.2017 17:30 20,2 C 25,6 C 82 % 1012,4 hPa 0,0 l/m 8,2 km/h (2 Bft) SW 235 0 min 0,000 mm 0,9 UV-I 206 W/m 17,0 C 19,5 C 11,3 km/h (2 Bft) 98,11 %
25.06.2017 17:32 20,2 C 25,6 C 82 % 1012,4 hPa 0,0 l/m 11,3 km/h (2 Bft) SW 230 0 min 0,000 mm 0,9 UV-I 196 W/m 17,0 C 18,5 C 16,1 km/h (3 Bft) 97,56 %
25.06.2017 17:34 20,2 C 25,6 C 81 % 1012,4 hPa 0,0 l/m 8,8 km/h (2 Bft) W-SW 252 0 min 0,000 mm 0,9 UV-I 197 W/m 16,8 C 19,3 C 12,9 km/h (3 Bft) 95,12 %
25.06.2017 17:36 20,2 C 25,6 C 82 % 1012,3 hPa 0,0 l/m 9,6 km/h (2 Bft) W-SW 257 0 min 0,000 mm 0,9 UV-I 205 W/m 17,0 C 19,0 C 14,5 km/h (3 Bft) 98,11 %
25.06.2017 17:38 20,3 C 25,6 C 82 % 1012,3 hPa 0,0 l/m 7,5 km/h (2 Bft) SW 215 0 min 0,000 mm 0,9 UV-I 212 W/m 17,1 C 19,9 C 12,9 km/h (3 Bft) 98,11 %
25.06.2017 17:40 20,3 C 25,6 C 82 % 1012,3 hPa 0,0 l/m 8,8 km/h (2 Bft) W-SW 239 0 min 0,000 mm 0,9 UV-I 216 W/m 17,1 C 19,4 C 12,9 km/h (3 Bft) 97,37 %
25.06.2017 17:42 20,4 C 25,6 C 81 % 1012,3 hPa 0,0 l/m 6,7 km/h (2 Bft) W-SW 238 0 min 0,000 mm 0,9 UV-I 221 W/m 17,0 C 20,3 C 11,3 km/h (2 Bft) 92,86 %
25.06.2017 17:44 20,4 C 25,6 C 82 % 1012,3 hPa 0,0 l/m 8,0 km/h (2 Bft) W-SW 253 0 min 0,000 mm 1,0 UV-I 241 W/m 17,2 C 19,8 C 12,9 km/h (3 Bft) 97,73 %
25.06.2017 17:46 20,5 C 25,6 C 81 % 1012,2 hPa 0,0 l/m 10,2 km/h (2 Bft) SW 232 0 min 0,000 mm 1,0 UV-I 264 W/m 17,1 C 19,1 C 14,5 km/h (3 Bft) 97,73 %
25.06.2017 17:48 20,6 C 25,6 C 82 % 1012,2 hPa 0,0 l/m 7,6 km/h (2 Bft) W 267 0 min 0,000 mm 1,1 UV-I 270 W/m 17,4 C 20,1 C 12,9 km/h (3 Bft) 96,00 %
25.06.2017 17:50 20,6 C 25,6 C 81 % 1012,2 hPa 0,0 l/m 9,6 km/h (2 Bft) SW 221 0 min 0,000 mm 1,0 UV-I 258 W/m 17,2 C 19,4 C 16,1 km/h (3 Bft) 95,12 %
25.06.2017 17:52 20,6 C 25,6 C 81 % 1012,1 hPa 0,0 l/m 6,7 km/h (2 Bft) S-SW 201 0 min 0,000 mm 1,0 UV-I 248 W/m 17,2 C 20,5 C 11,3 km/h (2 Bft) 92,45 %
25.06.2017 17:54 20,7 C 25,6 C 80 % 1012,1 hPa 0,0 l/m 8,2 km/h (2 Bft) W-SW 248 0 min 0,000 mm 0,9 UV-I 237 W/m 17,1 C 20,0 C 14,5 km/h (3 Bft) 97,37 %
25.06.2017 17:56 20,7 C 25,6 C 80 % 1012,1 hPa 0,0 l/m 9,5 km/h (2 Bft) S-SW 199 0 min 0,000 mm 0,9 UV-I 227 W/m 17,1 C 19,6 C 14,5 km/h (3 Bft) 94,34 %
25.06.2017 17:58 20,7 C 25,6 C 80 % 1012,1 hPa 0,0 l/m 8,0 km/h (2 Bft) W-SW 244 0 min 0,000 mm 0,8 UV-I 222 W/m 17,1 C 20,1 C 12,9 km/h (3 Bft) 95,24 %
25.06.2017 18:00 20,7 C 25,6 C 81 % 1012,0 hPa 0,0 l/m 11,1 km/h (2 Bft) W 261 0 min 0,000 mm 0,8 UV-I 225 W/m 17,3 C 19,1 C 20,9 km/h (4 Bft) 94,23 %
25.06.2017 18:02 20,7 C 25,6 C 80 % 1012,0 hPa 0,0 l/m 8,3 km/h (2 Bft) SW 228 0 min 0,152 mm 0,8 UV-I 233 W/m 17,1 C 20,0 C 14,5 km/h (3 Bft) 92,86 %
25.06.2017 18:04 20,7 C 25,6 C 80 % 1012,0 hPa 0,0 l/m 10,0 km/h (2 Bft) W-SW 246 0 min 0,000 mm 0,8 UV-I 237 W/m 17,1 C 19,4 C 14,5 km/h (3 Bft) 98,00 %
25.06.2017 18:06 20,7 C 25,6 C 80 % 1012,0 hPa 0,0 l/m 12,1 km/h (2 Bft) W-SW 256 0 min 0,000 mm 0,8 UV-I 235 W/m 17,1 C 18,8 C 19,3 km/h (3 Bft) 94,00 %
25.06.2017 18:08 20,7 C 25,6 C 80 % 1011,9 hPa 0,0 l/m 11,1 km/h (2 Bft) W-SW 250 0 min 0,000 mm 0,8 UV-I 224 W/m 17,1 C 19,1 C 17,7 km/h (3 Bft) 97,56 %
25.06.2017 18:10 20,8 C 25,6 C 80 % 1012,0 hPa 0,0 l/m 10,7 km/h (2 Bft) W 265 0 min 0,000 mm 0,7 UV-I 217 W/m 17,2 C 19,3 C 16,1 km/h (3 Bft) 94,64 %
25.06.2017 18:12 20,8 C 25,6 C 79 % 1012,0 hPa 0,0 l/m 11,9 km/h (2 Bft) W 259 0 min 0,000 mm 0,7 UV-I 205 W/m 17,0 C 19,0 C 17,7 km/h (3 Bft) 97,37 %
25.06.2017 18:14 20,7 C 25,6 C 78 % 1012,0 hPa 0,0 l/m 12,3 km/h (3 Bft) W-SW 239 0 min 0,000 mm 0,7 UV-I 199 W/m 16,7 C 18,8 C 16,1 km/h (3 Bft) 93,18 %
25.06.2017 18:16 20,8 C 25,6 C 79 % 1012,0 hPa 0,0 l/m 12,6 km/h (3 Bft) W-SW 244 0 min 0,000 mm 0,7 UV-I 193 W/m 17,0 C 18,8 C 17,7 km/h (3 Bft) 92,86 %
25.06.2017 18:18 20,8 C 25,6 C 79 % 1012,1 hPa 0,0 l/m 10,9 km/h (2 Bft) W-SW 245 0 min 0,000 mm 0,7 UV-I 187 W/m 17,0 C 19,3 C 19,3 km/h (3 Bft) 97,87 %
25.06.2017 18:20 20,8 C 25,6 C 79 % 1012,1 hPa 0,0 l/m 12,7 km/h (3 Bft) SW 227 0 min 0,000 mm 0,6 UV-I 179 W/m 17,0 C 18,8 C 19,3 km/h (3 Bft) 94,74 %
25.06.2017 18:22 20,8 C 25,6 C 79 % 1012,0 hPa 0,0 l/m 9,7 km/h (2 Bft) W 269 0 min 0,000 mm 0,6 UV-I 176 W/m 17,0 C 19,6 C 17,7 km/h (3 Bft) 98,00 %
25.06.2017 18:24 20,8 C 25,6 C 79 % 1011,9 hPa 0,0 l/m 9,0 km/h (2 Bft) SW 217 0 min 0,000 mm 0,6 UV-I 176 W/m 17,0 C 19,8 C 14,5 km/h (3 Bft) 92,68 %
25.06.2017 18:26 20,8 C 25,6 C 79 % 1011,9 hPa 0,0 l/m 13,4 km/h (3 Bft) SW 215 0 min 0,000 mm 0,6 UV-I 196 W/m 17,0 C 18,6 C 20,9 km/h (4 Bft) 88,68 %
25.06.2017 18:28 20,8 C 25,6 C 79 % 1011,9 hPa 0,0 l/m 10,3 km/h (2 Bft) SW 220 2 min 0,000 mm 0,6 UV-I 216 W/m 17,0 C 19,4 C 17,7 km/h (3 Bft) 92,45 %
25.06.2017 18:30 20,8 C 25,6 C 78 % 1011,9 hPa 0,0 l/m 12,0 km/h (2 Bft) W 260 0 min 0,000 mm 0,6 UV-I 189 W/m 16,8 C 19,0 C 17,7 km/h (3 Bft) 97,37 %
25.06.2017 18:32 20,8 C 25,6 C 77 % 1011,9 hPa 0,0 l/m 13,8 km/h (3 Bft) SW 215 0 min 0,000 mm 0,5 UV-I 183 W/m 16,6 C 18,5 C 22,5 km/h (4 Bft) 96,00 %
25.06.2017 18:34 20,8 C 25,6 C 79 % 1011,9 hPa 0,0 l/m 13,9 km/h (3 Bft) SW 223 0 min 0,000 mm 0,5 UV-I 184 W/m 17,0 C 18,5 C 24,1 km/h (4 Bft) 92,45 %
25.06.2017 18:36 20,8 C 25,6 C 78 % 1011,8 hPa 0,0 l/m 12,1 km/h (2 Bft) S-SW 208 0 min 0,000 mm 0,5 UV-I 192 W/m 16,8 C 18,9 C 17,7 km/h (3 Bft) 93,62 %
25.06.2017 18:38 20,9 C 25,6 C 79 % 1011,7 hPa 0,0 l/m 10,9 km/h (2 Bft) W-SW 244 2 min 0,000 mm 0,6 UV-I 301 W/m 17,1 C 19,4 C 22,5 km/h (4 Bft) 94,87 %
25.06.2017 18:40 21,0 C 25,6 C 78 % 1011,6 hPa 0,0 l/m 9,8 km/h (2 Bft) S 183 2 min 0,000 mm 0,6 UV-I 307 W/m 17,0 C 19,8 C 19,3 km/h (3 Bft) 98,08 %
25.06.2017 18:42 21,2 C 25,6 C 78 % 1011,6 hPa 0,0 l/m 12,4 km/h (3 Bft) W-SW 238 2 min 0,000 mm 0,6 UV-I 319 W/m 17,2 C 19,3 C 20,9 km/h (4 Bft) 100,00 %
25.06.2017 18:44 21,3 C 25,6 C 77 % 1011,5 hPa 0,0 l/m 13,0 km/h (3 Bft) W-SW 238 2 min 0,000 mm 0,6 UV-I 260 W/m 17,1 C 19,3 C 19,3 km/h (3 Bft) 94,64 %
25.06.2017 18:46 21,3 C 25,6 C 77 % 1011,6 hPa 0,0 l/m 13,3 km/h (3 Bft) W-SW 248 2 min 0,000 mm 0,6 UV-I 216 W/m 17,1 C 19,2 C 22,5 km/h (4 Bft) 97,37 %
25.06.2017 18:48 21,3 C 25,6 C 77 % 1011,6 hPa 0,0 l/m 12,0 km/h (2 Bft) W-SW 251 2 min 0,000 mm 0,5 UV-I 231 W/m 17,1 C 19,5 C 17,7 km/h (3 Bft) 92,00 %
25.06.2017 18:50 21,3 C 25,6 C 77 % 1011,6 hPa 0,0 l/m 12,9 km/h (3 Bft) W 259 2 min 0,000 mm 0,5 UV-I 254 W/m 17,1 C 19,3 C 20,9 km/h (4 Bft) 98,00 %
25.06.2017 18:52 21,3 C 25,6 C 77 % 1011,6 hPa 0,0 l/m 12,2 km/h (2 Bft) SW 225 2 min 0,000 mm 0,5 UV-I 208 W/m 17,1 C 19,5 C 16,1 km/h (3 Bft) 97,37 %
25.06.2017 18:54 21,3 C 25,6 C 77 % 1011,6 hPa 0,0 l/m 10,7 km/h (2 Bft) S-SW 207 2 min 0,000 mm 0,5 UV-I 186 W/m 17,1 C 19,9 C 16,1 km/h (3 Bft) 96,23 %
25.06.2017 18:56 21,3 C 25,6 C 76 % 1011,5 hPa 0,0 l/m 10,5 km/h (2 Bft) W-SW 237 2 min 0,000 mm 0,5 UV-I 180 W/m 16,9 C 19,9 C 20,9 km/h (4 Bft) 92,31 %
25.06.2017 18:58 21,2 C 25,6 C 76 % 1011,6 hPa 0,0 l/m 15,4 km/h (3 Bft) W-SW 246 2 min 0,000 mm 0,5 UV-I 202 W/m 16,8 C 18,6 C 25,7 km/h (4 Bft) 98,53 %
25.06.2017 19:00 21,2 C 25,6 C 76 % 1011,5 hPa 0,0 l/m 12,8 km/h (3 Bft) W-SW 240 2 min 0,153 mm 0,5 UV-I 221 W/m 16,8 C 19,2 C 25,7 km/h (4 Bft) 98,11 %
25.06.2017 19:02 21,2 C 25,6 C 75 % 1011,5 hPa 0,0 l/m 14,0 km/h (3 Bft) W-SW 249 2 min 0,000 mm 0,5 UV-I 218 W/m 16,6 C 18,9 C 20,9 km/h (4 Bft) 97,56 %
25.06.2017 19:04 21,2 C 25,6 C 75 % 1011,5 hPa 0,0 l/m 15,8 km/h (3 Bft) W-SW 250 2 min 0,000 mm 0,1 UV-I 206 W/m 16,6 C 18,5 C 24,1 km/h (4 Bft) 100,00 %
25.06.2017 19:06 21,2 C 25,6 C 75 % 1011,5 hPa 0,0 l/m 14,0 km/h (3 Bft) W 260 2 min 0,000 mm 0,0 UV-I 218 W/m 16,6 C 18,9 C 19,3 km/h (3 Bft) 94,00 %
25.06.2017 19:08 21,2 C 25,6 C 75 % 1011,6 hPa 0,0 l/m 13,8 km/h (3 Bft) W-SW 252 2 min 0,000 mm 0,0 UV-I 227 W/m 16,6 C 19,0 C 19,3 km/h (3 Bft) 100,00 %
25.06.2017 19:10 21,3 C 25,6 C 75 % 1011,6 hPa 0,0 l/m 16,4 km/h (3 Bft) W 267 2 min 0,000 mm 0,0 UV-I 226 W/m 16,7 C 18,5 C 22,5 km/h (4 Bft) 97,73 %
25.06.2017 19:12 21,3 C 25,6 C 75 % 1011,5 hPa 0,0 l/m 12,6 km/h (3 Bft) W-SW 251 2 min 0,000 mm 0,0 UV-I 205 W/m 16,7 C 19,4 C 20,9 km/h (4 Bft) 98,11 %
25.06.2017 19:14 21,3 C 25,6 C 75 % 1011,6 hPa 0,0 l/m 8,4 km/h (2 Bft) W-SW 248 2 min 0,000 mm 0,0 UV-I 190 W/m 16,7 C 20,6 C 16,1 km/h (3 Bft) 95,45 %
25.06.2017 19:16 21,3 C 25,6 C 75 % 1011,6 hPa 0,0 l/m 11,2 km/h (2 Bft) W-NW 296 2 min 0,000 mm 0,0 UV-I 188 W/m 16,7 C 19,7 C 16,1 km/h (3 Bft) 100,00 %
25.06.2017 19:18 21,3 C 25,6 C 76 % 1011,7 hPa 0,0 l/m 9,9 km/h (2 Bft) S-SW 210 2 min 0,000 mm 0,0 UV-I 184 W/m 16,9 C 20,1 C 16,1 km/h (3 Bft) 97,22 %
25.06.2017 19:20 21,3 C 25,6 C 76 % 1011,8 hPa 0,0 l/m 10,1 km/h (2 Bft) W-SW 238 2 min 0,000 mm 0,0 UV-I 182 W/m 16,9 C 20,0 C 16,1 km/h (3 Bft) 98,28 %
25.06.2017 19:22 21,3 C 25,6 C 76 % 1011,8 hPa 0,0 l/m 10,1 km/h (2 Bft) W-SW 254 2 min 0,000 mm 0,0 UV-I 162 W/m 16,9 C 20,0 C 16,1 km/h (3 Bft) 97,44 %
25.06.2017 19:24 21,3 C 25,6 C 76 % 1011,8 hPa 0,0 l/m 10,1 km/h (2 Bft) S-SW 200 2 min 0,000 mm 0,0 UV-I 169 W/m 16,9 C 20,0 C 14,5 km/h (3 Bft) 98,11 %
25.06.2017 19:26 21,3 C 25,6 C 76 % 1011,8 hPa 0,0 l/m 11,1 km/h (2 Bft) SW 229 2 min 0,000 mm 0,0 UV-I 195 W/m 16,9 C 19,8 C 20,9 km/h (4 Bft) 98,00 %
25.06.2017 19:28 21,3 C 25,6 C 75 % 1011,8 hPa 0,0 l/m 8,4 km/h (2 Bft) W-SW 244 2 min 0,000 mm 0,0 UV-I 207 W/m 16,7 C 20,6 C 12,9 km/h (3 Bft) 97,56 %
25.06.2017 19:30 21,3 C 25,6 C 76 % 1011,9 hPa 0,0 l/m 9,6 km/h (2 Bft) SW 225 2 min 0,000 mm 0,0 UV-I 183 W/m 16,9 C 20,2 C 17,7 km/h (3 Bft) 100,00 %
25.06.2017 19:32 21,3 C 25,6 C 75 % 1011,9 hPa 0,0 l/m 12,1 km/h (2 Bft) SW 225 2 min 0,000 mm 0,0 UV-I 174 W/m 16,7 C 19,5 C 19,3 km/h (3 Bft) 100,00 %
25.06.2017 19:34 21,3 C 25,6 C 75 % 1011,9 hPa 0,0 l/m 10,6 km/h (2 Bft) W-SW 240 2 min 0,000 mm 0,0 UV-I 167 W/m 16,7 C 19,9 C 16,1 km/h (3 Bft) 97,87 %
25.06.2017 19:36 21,3 C 25,6 C 75 % 1011,9 hPa 0,0 l/m 13,1 km/h (3 Bft) W-SW 253 2 min 0,000 mm 0,0 UV-I 147 W/m 16,7 C 19,3 C 17,7 km/h (3 Bft) 100,00 %
25.06.2017 19:38 21,3 C 25,6 C 75 % 1011,9 hPa 0,0 l/m 12,5 km/h (3 Bft) W 269 2 min 0,000 mm 0,0 UV-I 136 W/m 16,7 C 19,4 C 19,3 km/h (3 Bft) 100,00 %
25.06.2017 19:40 21,2 C 25,6 C 75 % 1011,9 hPa 0,0 l/m 12,6 km/h (3 Bft) W 270 2 min 0,000 mm 0,0 UV-I 140 W/m 16,6 C 19,3 C 20,9 km/h (4 Bft) 98,00 %
25.06.2017 19:42 21,2 C 25,6 C 76 % 1011,9 hPa 0,0 l/m 12,8 km/h (3 Bft) W-SW 243 2 min 0,000 mm 0,0 UV-I 159 W/m 16,8 C 19,2 C 19,3 km/h (3 Bft) 94,74 %
25.06.2017 19:44 21,2 C 25,6 C 75 % 1011,9 hPa 0,0 l/m 12,2 km/h (2 Bft) S-SW 212 2 min 0,000 mm 0,0 UV-I 159 W/m 16,6 C 19,4 C 20,9 km/h (4 Bft) 100,00 %
25.06.2017 19:46 21,2 C 25,6 C 75 % 1011,8 hPa 0,0 l/m 10,9 km/h (2 Bft) SW 215 2 min 0,000 mm 0,0 UV-I 165 W/m 16,6 C 19,7 C 16,1 km/h (3 Bft) 97,56 %
25.06.2017 19:48 21,2 C 25,6 C 76 % 1011,8 hPa 0,0 l/m 11,0 km/h (2 Bft) SW 232 2 min 0,000 mm 0,0 UV-I 133 W/m 16,8 C 19,7 C 17,7 km/h (3 Bft) 98,11 %
25.06.2017 19:50 21,2 C 25,6 C 76 % 1011,8 hPa 0,0 l/m 12,2 km/h (2 Bft) SW 234 2 min 0,000 mm 0,0 UV-I 110 W/m 16,8 C 19,4 C 20,9 km/h (4 Bft) 100,00 %
25.06.2017 19:52 21,2 C 25,6 C 75 % 1011,8 hPa 0,0 l/m 13,8 km/h (3 Bft) W-SW 238 2 min 0,000 mm 0,0 UV-I 97 W/m 16,6 C 19,0 C 20,9 km/h (4 Bft) 98,00 %
25.06.2017 19:54 21,1 C 25,6 C 76 % 1011,8 hPa 0,0 l/m 13,8 km/h (3 Bft) SW 231 0 min 0,000 mm 0,0 UV-I 90 W/m 16,7 C 18,9 C 19,3 km/h (3 Bft) 97,56 %
25.06.2017 19:56 21,1 C 25,6 C 76 % 1011,8 hPa 0,0 l/m 13,3 km/h (3 Bft) W-SW 240 0 min 0,000 mm 0,0 UV-I 87 W/m 16,7 C 19,0 C 19,3 km/h (3 Bft) 96,23 %
25.06.2017 19:58 21,0 C 25,6 C 76 % 1011,8 hPa 0,0 l/m 11,2 km/h (2 Bft) SW 216 2 min 0,000 mm 0,0 UV-I 86 W/m 16,6 C 19,4 C 16,1 km/h (3 Bft) 95,45 %
25.06.2017 20:00 20,9 C 25,6 C 76 % 1011,8 hPa 0,0 l/m 13,4 km/h (3 Bft) W-SW 237 2 min 0,000 mm 0,0 UV-I 102 W/m 16,5 C 18,7 C 17,7 km/h (3 Bft) 94,87 %
25.06.2017 20:02 20,9 C 25,6 C 76 % 1011,8 hPa 0,0 l/m 10,4 km/h (2 Bft) SW 229 2 min 0,152 mm 0,0 UV-I 120 W/m 16,5 C 19,5 C 14,5 km/h (3 Bft) 98,00 %
25.06.2017 20:04 21,0 C 25,6 C 76 % 1011,7 hPa 0,0 l/m 15,0 km/h (3 Bft) SW 224 2 min 0,000 mm 0,0 UV-I 116 W/m 16,6 C 18,5 C 24,1 km/h (4 Bft) 94,34 %
25.06.2017 20:06 21,0 C 25,6 C 76 % 1011,8 hPa 0,0 l/m 14,7 km/h (3 Bft) SW 234 2 min 0,000 mm 0,0 UV-I 107 W/m 16,6 C 18,5 C 24,1 km/h (4 Bft) 97,56 %
25.06.2017 20:08 21,1 C 25,6 C 76 % 1011,8 hPa 0,0 l/m 13,7 km/h (3 Bft) SW 230 2 min 0,000 mm 0,0 UV-I 103 W/m 16,7 C 18,9 C 20,9 km/h (4 Bft) 96,23 %
25.06.2017 20:10 21,1 C 25,6 C 76 % 1011,7 hPa 0,0 l/m 11,1 km/h (2 Bft) SW 236 2 min 0,000 mm 0,0 UV-I 101 W/m 16,7 C 19,5 C 16,1 km/h (3 Bft) 95,12 %
25.06.2017 20:12 21,1 C 25,6 C 76 % 1011,7 hPa 0,0 l/m 14,3 km/h (3 Bft) W-SW 242 2 min 0,000 mm 0,0 UV-I 96 W/m 16,7 C 18,7 C 25,7 km/h (4 Bft) 95,12 %
25.06.2017 20:14 21,1 C 25,6 C 75 % 1011,6 hPa 0,0 l/m 13,9 km/h (3 Bft) W-SW 237 2 min 0,000 mm 0,0 UV-I 88 W/m 16,5 C 18,8 C 20,9 km/h (4 Bft) 96,23 %
25.06.2017 20:16 21,1 C 25,6 C 75 % 1011,8 hPa 0,0 l/m 12,5 km/h (3 Bft) SW 231 2 min 0,000 mm 0,0 UV-I 81 W/m 16,5 C 19,2 C 19,3 km/h (3 Bft) 96,23 %
25.06.2017 20:18 21,1 C 25,6 C 75 % 1011,7 hPa 0,0 l/m 10,1 km/h (2 Bft) W 265 2 min 0,000 mm 0,0 UV-I 75 W/m 16,5 C 19,8 C 16,1 km/h (3 Bft) 94,29 %
25.06.2017 20:20 21,1 C 25,6 C 75 % 1011,7 hPa 0,0 l/m 9,0 km/h (2 Bft) W-SW 242 2 min 0,000 mm 0,0 UV-I 71 W/m 16,5 C 20,2 C 14,5 km/h (3 Bft) 96,61 %
25.06.2017 20:22 21,0 C 25,6 C 76 % 1011,8 hPa 0,0 l/m 10,2 km/h (2 Bft) W-SW 240 2 min 0,000 mm 0,0 UV-I 69 W/m 16,6 C 19,7 C 17,7 km/h (3 Bft) 95,12 %
25.06.2017 20:24 20,9 C 25,6 C 75 % 1011,7 hPa 0,0 l/m 13,2 km/h (3 Bft) W 259 2 min 0,000 mm 0,0 UV-I 65 W/m 16,3 C 18,8 C 20,9 km/h (4 Bft) 98,11 %
25.06.2017 20:26 20,9 C 25,6 C 75 % 1011,7 hPa 0,0 l/m 11,3 km/h (2 Bft) W-SW 257 2 min 0,000 mm 0,0 UV-I 62 W/m 16,3 C 19,3 C 19,3 km/h (3 Bft) 97,37 %
25.06.2017 20:28 20,8 C 25,6 C 75 % 1011,6 hPa 0,0 l/m 10,1 km/h (2 Bft) W 263 2 min 0,000 mm 0,0 UV-I 60 W/m 16,2 C 19,5 C 16,1 km/h (3 Bft) 96,00 %
25.06.2017 20:30 20,8 C 25,6 C 76 % 1011,6 hPa 0,0 l/m 9,1 km/h (2 Bft) W-SW 237 2 min 0,000 mm 0,0 UV-I 58 W/m 16,4 C 19,8 C 14,5 km/h (3 Bft) 96,00 %
25.06.2017 20:32 20,8 C 25,6 C 76 % 1011,6 hPa 0,0 l/m 6,8 km/h (2 Bft) W-SW 256 2 min 0,000 mm 0,0 UV-I 58 W/m 16,4 C 20,7 C 11,3 km/h (2 Bft) 97,37 %
25.06.2017 20:34 20,7 C 25,6 C 76 % 1011,6 hPa 0,0 l/m 8,9 km/h (2 Bft) W-SW 250 2 min 0,000 mm 0,0 UV-I 58 W/m 16,3 C 19,8 C 14,5 km/h (3 Bft) 100,00 %
25.06.2017 20:36 20,7 C 25,6 C 77 % 1011,6 hPa 0,0 l/m 7,6 km/h (2 Bft) W-SW 246 2 min 0,000 mm 0,0 UV-I 56 W/m 16,5 C 20,2 C 11,3 km/h (2 Bft) 100,00 %
25.06.2017 20:38 20,6 C 25,6 C 76 % 1011,6 hPa 0,0 l/m 5,1 km/h (1 Bft) W-SW 258 2 min 0,000 mm 0,0 UV-I 49 W/m 16,2 C 20,6 C 8,0 km/h (2 Bft) 94,44 %
25.06.2017 20:40 20,6 C 25,6 C 76 % 1011,7 hPa 0,0 l/m 5,4 km/h (1 Bft) SW 224 2 min 0,000 mm 0,0 UV-I 45 W/m 16,2 C 20,6 C 8,0 km/h (2 Bft) 100,00 %
25.06.2017 20:42 20,6 C 25,6 C 77 % 1011,6 hPa 0,0 l/m 6,3 km/h (2 Bft) W 265 2 min 0,000 mm 0,0 UV-I 42 W/m 16,4 C 20,6 C 9,7 km/h (2 Bft) 100,00 %
25.06.2017 20:44 20,6 C 25,6 C 77 % 1011,6 hPa 0,0 l/m 5,6 km/h (1 Bft) W-SW 255 2 min 0,000 mm 0,0 UV-I 39 W/m 16,4 C 20,6 C 9,7 km/h (2 Bft) 97,87 %
25.06.2017 20:46 20,5 C 25,6 C 77 % 1011,5 hPa 0,0 l/m 6,2 km/h (2 Bft) W 267 2 min 0,000 mm 0,0 UV-I 36 W/m 16,3 C 20,5 C 9,7 km/h (2 Bft) 100,00 %
25.06.2017 20:48 20,5 C 25,6 C 77 % 1011,5 hPa 0,0 l/m 6,5 km/h (2 Bft) W-SW 252 2 min 0,000 mm 0,0 UV-I 32 W/m 16,3 C 20,5 C 11,3 km/h (2 Bft) 96,00 %
25.06.2017 20:50 20,4 C 25,6 C 77 % 1011,4 hPa 0,0 l/m 7,1 km/h (2 Bft) W-SW 247 2 min 0,000 mm 0,0 UV-I 28 W/m 16,2 C 20,1 C 12,9 km/h (3 Bft) 100,00 %
25.06.2017 20:52 20,4 C 25,6 C 76 % 1011,4 hPa 0,0 l/m 8,0 km/h (2 Bft) W-SW 244 2 min 0,000 mm 0,0 UV-I 25 W/m 16,0 C 19,8 C 17,7 km/h (3 Bft) 97,37 %
25.06.2017 20:54 20,4 C 25,6 C 76 % 1011,4 hPa 0,0 l/m 9,8 km/h (2 Bft) W-NW 288 2 min 0,000 mm 0,0 UV-I 23 W/m 16,0 C 19,1 C 14,5 km/h (3 Bft) 92,45 %
25.06.2017 20:56 20,4 C 25,6 C 76 % 1011,3 hPa 0,0 l/m 5,1 km/h (1 Bft) W-SW 248 0 min 0,000 mm 0,0 UV-I 19 W/m 16,0 C 20,4 C 6,4 km/h (2 Bft) 98,00 %
25.06.2017 20:58 20,3 C 25,6 C 76 % 1011,4 hPa 0,0 l/m 6,2 km/h (2 Bft) W-SW 244 0 min 0,000 mm 0,0 UV-I 17 W/m 15,9 C 20,3 C 9,7 km/h (2 Bft) 100,00 %
25.06.2017 21:00 20,3 C 25,6 C 75 % 1011,5 hPa 0,0 l/m 8,9 km/h (2 Bft) W-SW 253 0 min 0,000 mm 0,0 UV-I 16 W/m 15,7 C 19,3 C 14,5 km/h (3 Bft) 97,37 %
25.06.2017 21:02 20,3 C 25,6 C 75 % 1011,5 hPa 0,0 l/m 8,4 km/h (2 Bft) W-SW 254 0 min 0,076 mm 0,0 UV-I 14 W/m 15,7 C 19,5 C 12,9 km/h (3 Bft) 98,00 %
25.06.2017 21:04 20,2 C 25,6 C 76 % 1011,5 hPa 0,0 l/m 7,9 km/h (2 Bft) W-NW 282 0 min 0,000 mm 0,0 UV-I 12 W/m 15,8 C 19,6 C 11,3 km/h (2 Bft) 97,73 %
25.06.2017 21:06 20,2 C 25,6 C 75 % 1011,5 hPa 0,0 l/m 11,2 km/h (2 Bft) W 263 0 min 0,000 mm 0,0 UV-I 12 W/m 15,6 C 18,5 C 17,7 km/h (3 Bft) 98,00 %
25.06.2017 21:08 20,2 C 25,6 C 75 % 1011,6 hPa 0,0 l/m 7,8 km/h (2 Bft) W-SW 252 0 min 0,000 mm 0,0 UV-I 12 W/m 15,6 C 19,6 C 12,9 km/h (3 Bft) 96,00 %
25.06.2017 21:10 20,1 C 25,6 C 75 % 1011,8 hPa 0,0 l/m 5,8 km/h (2 Bft) W-SW 248 0 min 0,000 mm 0,0 UV-I 12 W/m 15,5 C 20,1 C 14,5 km/h (3 Bft) 97,56 %
25.06.2017 21:12 20,1 C 25,6 C 75 % 1011,9 hPa 0,0 l/m 6,7 km/h (2 Bft) SW 235 0 min 0,000 mm 0,0 UV-I 11 W/m 15,5 C 20,0 C 11,3 km/h (2 Bft) 96,00 %
25.06.2017 21:14 20,1 C 25,6 C 75 % 1011,9 hPa 0,0 l/m 9,0 km/h (2 Bft) W-SW 243 0 min 0,000 mm 0,0 UV-I 11 W/m 15,5 C 19,1 C 14,5 km/h (3 Bft) 95,74 %
25.06.2017 21:16 20,1 C 25,6 C 75 % 1012,0 hPa 0,0 l/m 7,4 km/h (2 Bft) W-SW 237 0 min 0,000 mm 0,0 UV-I 9 W/m 15,5 C 19,7 C 11,3 km/h (2 Bft) 97,62 %
25.06.2017 21:18 20,0 C 25,6 C 76 % 1012,0 hPa 0,0 l/m 7,8 km/h (2 Bft) W-SW 246 0 min 0,000 mm 0,0 UV-I 9 W/m 15,6 C 19,4 C 14,5 km/h (3 Bft) 96,00 %
25.06.2017 21:20 20,0 C 25,6 C 75 % 1012,1 hPa 0,0 l/m 8,3 km/h (2 Bft) W-SW 240 0 min 0,000 mm 0,0 UV-I 7 W/m 15,4 C 19,2 C 14,5 km/h (3 Bft) 93,62 %
25.06.2017 21:22 19,9 C 25,6 C 75 % 1012,1 hPa 0,0 l/m 8,8 km/h (2 Bft) W 261 0 min 0,000 mm 0,0 UV-I 7 W/m 15,3 C 18,9 C 12,9 km/h (3 Bft) 94,34 %
25.06.2017 21:24 19,9 C 25,6 C 75 % 1012,1 hPa 0,0 l/m 10,7 km/h (2 Bft) W-SW 250 0 min 0,000 mm 0,0 UV-I 5 W/m 15,3 C 18,3 C 14,5 km/h (3 Bft) 97,73 %
25.06.2017 21:26 19,9 C 25,6 C 75 % 1012,1 hPa 0,0 l/m 8,0 km/h (2 Bft) W-SW 247 0 min 0,000 mm 0,0 UV-I 5 W/m 15,3 C 19,2 C 12,9 km/h (3 Bft) 95,74 %
25.06.2017 21:28 19,8 C 25,6 C 75 % 1012,2 hPa 0,0 l/m 8,4 km/h (2 Bft) W-SW 247 0 min 0,000 mm 0,0 UV-I 1 W/m 15,2 C 19,0 C 12,9 km/h (3 Bft) 97,37 %
25.06.2017 21:30 19,8 C 25,6 C 75 % 1012,3 hPa 0,0 l/m 7,4 km/h (2 Bft) W-SW 257 0 min 0,000 mm 0,0 UV-I 0 W/m 15,2 C 19,4 C 14,5 km/h (3 Bft) 96,23 %
25.06.2017 21:32 19,8 C 25,6 C 75 % 1012,3 hPa 0,0 l/m 7,3 km/h (2 Bft) W-SW 246 0 min 0,000 mm 0,0 UV-I 0 W/m 15,2 C 19,4 C 14,5 km/h (3 Bft) 94,34 %
25.06.2017 21:34 19,8 C 25,6 C 76 % 1012,3 hPa 0,0 l/m 8,0 km/h (2 Bft) W-SW 246 0 min 0,000 mm 0,0 UV-I 0 W/m 15,4 C 19,1 C 11,3 km/h (2 Bft) 95,45 %
25.06.2017 21:36 19,8 C 25,6 C 76 % 1012,3 hPa 0,0 l/m 8,9 km/h (2 Bft) SW 226 0 min 0,000 mm 0,0 UV-I 0 W/m 15,4 C 18,8 C 14,5 km/h (3 Bft) 97,56 %
25.06.2017 21:38 19,7 C 25,6 C 76 % 1012,4 hPa 0,0 l/m 10,1 km/h (2 Bft) W-SW 247 0 min 0,000 mm 0,0 UV-I 0 W/m 15,3 C 18,3 C 12,9 km/h (3 Bft) 94,00 %
25.06.2017 21:40 19,7 C 25,6 C 76 % 1012,5 hPa 0,0 l/m 9,6 km/h (2 Bft) SW 225 0 min 0,000 mm 0,0 UV-I 0 W/m 15,3 C 18,4 C 14,5 km/h (3 Bft) 98,00 %
25.06.2017 21:42 19,7 C 25,6 C 76 % 1012,5 hPa 0,0 l/m 9,3 km/h (2 Bft) W-SW 254 0 min 0,000 mm 0,0 UV-I 0 W/m 15,3 C 18,6 C 14,5 km/h (3 Bft) 95,74 %
25.06.2017 21:44 19,6 C 25,6 C 77 % 1012,5 hPa 0,0 l/m 8,6 km/h (2 Bft) S-SW 213 0 min 0,000 mm 0,0 UV-I 0 W/m 15,5 C 18,7 C 12,9 km/h (3 Bft) 93,62 %
25.06.2017 21:46 19,6 C 25,6 C 76 % 1012,5 hPa 0,0 l/m 8,6 km/h (2 Bft) SW 226 0 min 0,000 mm 0,0 UV-I 0 W/m 15,2 C 18,7 C 12,9 km/h (3 Bft) 97,87 %
25.06.2017 21:48 19,6 C 25,6 C 76 % 1012,6 hPa 0,0 l/m 8,3 km/h (2 Bft) SW 215 0 min 0,000 mm 0,0 UV-I 0 W/m 15,2 C 18,8 C 12,9 km/h (3 Bft) 97,56 %
25.06.2017 21:50 19,6 C 25,6 C 76 % 1012,5 hPa 0,0 l/m 7,6 km/h (2 Bft) SW 225 0 min 0,000 mm 0,0 UV-I 0 W/m 15,2 C 19,1 C 11,3 km/h (2 Bft) 98,11 %
25.06.2017 21:52 19,6 C 25,6 C 76 % 1012,6 hPa 0,0 l/m 7,4 km/h (2 Bft) SW 221 0 min 0,000 mm 0,0 UV-I 0 W/m 15,2 C 19,2 C 11,3 km/h (2 Bft) 97,73 %
25.06.2017 21:54 19,5 C 25,6 C 77 % 1012,7 hPa 0,0 l/m 7,2 km/h (2 Bft) S-SW 209 0 min 0,000 mm 0,0 UV-I 0 W/m 15,4 C 19,2 C 11,3 km/h (2 Bft) 89,74 %
25.06.2017 21:56 19,5 C 25,6 C 77 % 1012,7 hPa 0,0 l/m 7,2 km/h (2 Bft) S-SW 208 0 min 0,000 mm 0,0 UV-I 0 W/m 15,4 C 19,2 C 11,3 km/h (2 Bft) 93,10 %
25.06.2017 21:58 19,5 C 25,6 C 77 % 1012,8 hPa 0,0 l/m 8,3 km/h (2 Bft) SW 225 0 min 0,000 mm 0,0 UV-I 0 W/m 15,4 C 18,7 C 12,9 km/h (3 Bft) 94,12 %
25.06.2017 22:00 19,4 C 25,6 C 78 % 1012,8 hPa 0,0 l/m 7,9 km/h (2 Bft) SW 219 0 min 0,000 mm 0,0 UV-I 0 W/m 15,5 C 18,8 C 11,3 km/h (2 Bft) 95,74 %
25.06.2017 22:02 19,4 C 25,6 C 78 % 1012,8 hPa 0,0 l/m 6,1 km/h (2 Bft) SW 225 0 min 0,026 mm 0,0 UV-I 0 W/m 15,5 C 19,4 C 11,3 km/h (2 Bft) 94,64 %
25.06.2017 22:04 19,4 C 25,6 C 78 % 1012,8 hPa 0,0 l/m 7,1 km/h (2 Bft) S-SW 201 0 min 0,000 mm 0,0 UV-I 0 W/m 15,5 C 19,1 C 11,3 km/h (2 Bft) 95,45 %
25.06.2017 22:06 19,4 C 25,6 C 78 % 1012,9 hPa 0,0 l/m 9,4 km/h (2 Bft) S-SW 207 0 min 0,000 mm 0,0 UV-I 0 W/m 15,5 C 18,2 C 12,9 km/h (3 Bft) 92,11 %
25.06.2017 22:08 19,4 C 25,6 C 78 % 1012,9 hPa 0,0 l/m 8,0 km/h (2 Bft) S-SW 209 0 min 0,000 mm 0,0 UV-I 0 W/m 15,5 C 18,7 C 11,3 km/h (2 Bft) 94,64 %
25.06.2017 22:10 19,4 C 25,6 C 78 % 1012,9 hPa 0,0 l/m 6,9 km/h (2 Bft) S-SW 204 0 min 0,000 mm 0,0 UV-I 0 W/m 15,5 C 19,2 C 9,7 km/h (2 Bft) 95,12 %
25.06.2017 22:13 19,4 C 25,6 C 78 % 1012,8 hPa 0,0 l/m 4,4 km/h (1 Bft) SW 223 0 min 0,000 mm 0,0 UV-I 0 W/m 15,5 C 19,4 C 8,0 km/h (2 Bft) 94,94 %
25.06.2017 22:14 19,3 C 25,6 C 78 % 1012,8 hPa 0,0 l/m 4,8 km/h (1 Bft) S-SW 213 0 min 0,000 mm 0,0 UV-I 0 W/m 15,4 C 19,3 C 8,0 km/h (2 Bft) 91,67 %
25.06.2017 22:16 19,3 C 25,6 C 79 % 1012,8 hPa 0,0 l/m 4,2 km/h (1 Bft) S-SW 213 0 min 0,000 mm 0,0 UV-I 0 W/m 15,6 C 19,3 C 6,4 km/h (2 Bft) 96,23 %
25.06.2017 22:18 19,3 C 25,6 C 79 % 1012,7 hPa 0,0 l/m 5,2 km/h (1 Bft) S-SW 213 0 min 0,000 mm 0,0 UV-I 0 W/m 15,6 C 19,3 C 8,0 km/h (2 Bft) 94,74 %
25.06.2017 22:20 19,3 C 25,6 C 78 % 1012,8 hPa 0,0 l/m 4,4 km/h (1 Bft) S-SW 213 0 min 0,000 mm 0,0 UV-I 0 W/m 15,4 C 19,3 C 6,4 km/h (2 Bft) 96,00 %
25.06.2017 22:22 19,2 C 25,6 C 79 % 1012,8 hPa 0,0 l/m 3,5 km/h (1 Bft) S-SW 213 0 min 0,000 mm 0,0 UV-I 0 W/m 15,5 C 19,2 C 6,4 km/h (2 Bft) 98,11 %
25.06.2017 22:24 19,2 C 25,6 C 79 % 1012,8 hPa 0,0 l/m 2,2 km/h (1 Bft) S-SW 213 0 min 0,000 mm 0,0 UV-I 0 W/m 15,5 C 19,2 C 4,8 km/h (1 Bft) 96,30 %
25.06.2017 22:26 19,2 C 25,6 C 79 % 1012,8 hPa 0,0 l/m 3,4 km/h (1 Bft) S-SW 194 0 min 0,000 mm 0,0 UV-I 0 W/m 15,5 C 19,2 C 6,4 km/h (2 Bft) 98,57 %
25.06.2017 22:28 19,1 C 25,6 C 79 % 1012,8 hPa 0,0 l/m 3,2 km/h (1 Bft) S-SW 194 0 min 0,000 mm 0,0 UV-I 0 W/m 15,4 C 19,1 C 4,8 km/h (1 Bft) 97,37 %
25.06.2017 22:30 19,1 C 25,6 C 79 % 1012,8 hPa 0,0 l/m 2,4 km/h (1 Bft) S-SW 194 0 min 0,000 mm 0,0 UV-I 0 W/m 15,4 C 19,1 C 4,8 km/h (1 Bft) 100,00 %
25.06.2017 22:32 19,1 C 25,6 C 80 % 1012,7 hPa 0,0 l/m 1,7 km/h (1 Bft) S-SW 194 0 min 0,000 mm 0,0 UV-I 0 W/m 15,6 C 19,1 C 4,8 km/h (1 Bft) 96,55 %
25.06.2017 22:34 19,1 C 25,6 C 80 % 1012,7 hPa 0,0 l/m 0,5 km/h (0 Bft) S-SW 194 0 min 0,000 mm 0,0 UV-I 0 W/m 15,6 C 19,1 C 3,2 km/h (1 Bft) 97,44 %
25.06.2017 22:36 19,1 C 25,6 C 80 % 1012,7 hPa 0,0 l/m 2,1 km/h (1 Bft) S-SW 194 0 min 0,000 mm 0,0 UV-I 0 W/m 15,6 C 19,1 C 4,8 km/h (1 Bft) 98,11 %
25.06.2017 22:38 19,1 C 25,6 C 80 % 1012,7 hPa 0,0 l/m 0,8 km/h (0 Bft) S-SW 194 0 min 0,000 mm 0,0 UV-I 0 W/m 15,6 C 19,1 C 3,2 km/h (1 Bft) 97,73 %
25.06.2017 22:40 19,0 C 25,6 C 80 % 1012,7 hPa 0,0 l/m 2,4 km/h (1 Bft) S-SW 194 0 min 0,000 mm 0,0 UV-I 0 W/m 15,5 C 19,0 C 4,8 km/h (1 Bft) 100,00 %
25.06.2017 22:42 19,0 C 25,6 C 80 % 1012,7 hPa 0,0 l/m 2,3 km/h (1 Bft) S-SW 194 0 min 0,000 mm 0,0 UV-I 0 W/m 15,5 C 19,0 C 4,8 km/h (1 Bft) 98,11 %
25.06.2017 22:44 19,0 C 25,6 C 80 % 1012,7 hPa 0,0 l/m 3,1 km/h (1 Bft) S-SW 194 0 min 0,000 mm 0,0 UV-I 0 W/m 15,5 C 19,0 C 6,4 km/h (2 Bft) 97,87 %
25.06.2017 22:46 19,0 C 25,6 C 80 % 1012,6 hPa 0,0 l/m 2,1 km/h (1 Bft) S-SW 194 0 min 0,000 mm 0,0 UV-I 0 W/m 15,5 C 19,0 C 4,8 km/h (1 Bft) 97,56 %
25.06.2017 22:48 19,0 C 25,6 C 80 % 1012,6 hPa 0,0 l/m 2,0 km/h (1 Bft) S-SW 194 0 min 0,000 mm 0,0 UV-I 0 W/m 15,5 C 19,0 C 6,4 km/h (2 Bft) 100,00 %
25.06.2017 22:50 18,9 C 25,6 C 80 % 1012,6 hPa 0,0 l/m 2,8 km/h (1 Bft) S-SW 194 0 min 0,000 mm 0,0 UV-I 0 W/m 15,4 C 18,9 C 4,8 km/h (1 Bft) 97,87 %
25.06.2017 22:52 18,9 C 25,6 C 80 % 1012,6 hPa 0,0 l/m 3,1 km/h (1 Bft) S-SW 194 0 min 0,000 mm 0,0 UV-I 0 W/m 15,4 C 18,9 C 4,8 km/h (1 Bft) 96,43 %
25.06.2017 22:54 18,8 C 25,6 C 80 % 1012,6 hPa 0,0 l/m 3,7 km/h (1 Bft) S-SW 194 0 min 0,000 mm 0,0 UV-I 0 W/m 15,3 C 18,8 C 4,8 km/h (1 Bft) 95,74 %
25.06.2017 22:56 18,8 C 25,6 C 81 % 1012,6 hPa 0,0 l/m 5,1 km/h (1 Bft) S-SW 205 0 min 0,000 mm 0,0 UV-I 0 W/m 15,5 C 18,8 C 8,0 km/h (2 Bft) 100,00 %
25.06.2017 22:58 18,7 C 25,6 C 81 % 1012,6 hPa 0,0 l/m 4,6 km/h (1 Bft) S-SW 205 0 min 0,000 mm 0,0 UV-I 0 W/m 15,4 C 18,7 C 6,4 km/h (2 Bft) 97,37 %
25.06.2017 23:00 18,7 C 25,6 C 81 % 1012,6 hPa 0,0 l/m 5,7 km/h (1 Bft) S-SW 205 0 min 0,000 mm 0,0 UV-I 0 W/m 15,4 C 18,7 C 8,0 km/h (2 Bft) 100,00 %
25.06.2017 23:02 18,6 C 25,6 C 81 % 1012,6 hPa 0,0 l/m 4,6 km/h (1 Bft) S-SW 205 0 min 0,025 mm 0,0 UV-I 0 W/m 15,3 C 18,6 C 6,4 km/h (2 Bft) 97,37 %
25.06.2017 23:04 18,6 C 25,6 C 81 % 1012,6 hPa 0,0 l/m 5,8 km/h (2 Bft) SW 216 0 min 0,000 mm 0,0 UV-I 0 W/m 15,3 C 18,6 C 9,7 km/h (2 Bft) 98,00 %
25.06.2017 23:06 18,5 C 25,6 C 81 % 1012,6 hPa 0,0 l/m 5,1 km/h (1 Bft) S-SW 196 0 min 0,000 mm 0,0 UV-I 0 W/m 15,2 C 18,5 C 8,0 km/h (2 Bft) 100,00 %
25.06.2017 23:08 18,4 C 25,6 C 81 % 1012,6 hPa 0,0 l/m 4,8 km/h (1 Bft) SW 217 0 min 0,000 mm 0,0 UV-I 0 W/m 15,1 C 18,4 C 8,0 km/h (2 Bft) 98,11 %
25.06.2017 23:10 18,4 C 25,6 C 80 % 1012,7 hPa 0,0 l/m 4,0 km/h (1 Bft) S-SW 201 0 min 0,000 mm 0,0 UV-I 0 W/m 14,9 C 18,4 C 6,4 km/h (2 Bft) 95,74 %
25.06.2017 23:12 18,4 C 25,6 C 80 % 1012,8 hPa 0,0 l/m 4,1 km/h (1 Bft) S-SW 210 0 min 0,000 mm 0,0 UV-I 0 W/m 14,9 C 18,4 C 6,4 km/h (2 Bft) 100,00 %
25.06.2017 23:14 18,4 C 25,6 C 80 % 1012,8 hPa 0,0 l/m 3,1 km/h (1 Bft) S-SW 202 0 min 0,000 mm 0,0 UV-I 0 W/m 14,9 C 18,4 C 6,4 km/h (2 Bft) 98,11 %
25.06.2017 23:16 18,4 C 25,6 C 80 % 1012,8 hPa 0,0 l/m 3,9 km/h (1 Bft) S-SW 202 0 min 0,000 mm 0,0 UV-I 0 W/m 14,9 C 18,4 C 6,4 km/h (2 Bft) 98,00 %
25.06.2017 23:18 18,4 C 25,6 C 80 % 1012,8 hPa 0,0 l/m 4,2 km/h (1 Bft) S-SW 202 0 min 0,000 mm 0,0 UV-I 0 W/m 14,9 C 18,4 C 6,4 km/h (2 Bft) 100,00 %
25.06.2017 23:20 18,4 C 25,6 C 80 % 1012,8 hPa 0,0 l/m 3,9 km/h (1 Bft) S-SW 202 0 min 0,000 mm 0,0 UV-I 0 W/m 14,9 C 18,4 C 8,0 km/h (2 Bft) 96,00 %
25.06.2017 23:22 18,3 C 25,6 C 80 % 1012,9 hPa 0,0 l/m 4,2 km/h (1 Bft) S-SW 212 0 min 0,000 mm 0,0 UV-I 0 W/m 14,8 C 18,3 C 6,4 km/h (2 Bft) 100,00 %
25.06.2017 23:24 18,3 C 25,6 C 80 % 1012,8 hPa 0,0 l/m 3,0 km/h (1 Bft) S 184 0 min 0,000 mm 0,0 UV-I 0 W/m 14,8 C 18,3 C 8,0 km/h (2 Bft) 100,00 %
25.06.2017 23:26 18,3 C 25,6 C 80 % 1012,8 hPa 0,0 l/m 4,7 km/h (1 Bft) S-SW 209 0 min 0,000 mm 0,0 UV-I 0 W/m 14,8 C 18,3 C 6,4 km/h (2 Bft) 97,56 %
25.06.2017 23:28 18,3 C 25,6 C 80 % 1012,8 hPa 0,0 l/m 4,7 km/h (1 Bft) S 184 0 min 0,000 mm 0,0 UV-I 0 W/m 14,8 C 18,3 C 8,0 km/h (2 Bft) 100,00 %
25.06.2017 23:30 18,3 C 25,6 C 80 % 1012,8 hPa 0,0 l/m 3,6 km/h (1 Bft) S-SW 207 0 min 0,000 mm 0,0 UV-I 0 W/m 14,8 C 18,3 C 6,4 km/h (2 Bft) 97,14 %
25.06.2017 23:32 18,4 C 25,6 C 81 % 1012,8 hPa 0,0 l/m 3,8 km/h (1 Bft) S-SW 207 0 min 0,000 mm 0,0 UV-I 0 W/m 15,1 C 18,4 C 6,4 km/h (2 Bft) 98,11 %
25.06.2017 23:34 18,3 C 25,6 C 81 % 1012,9 hPa 0,0 l/m 5,3 km/h (1 Bft) S-SW 207 0 min 0,000 mm 0,0 UV-I 0 W/m 15,0 C 18,3 C 8,0 km/h (2 Bft) 100,00 %
25.06.2017 23:36 18,3 C 25,6 C 81 % 1012,9 hPa 0,0 l/m 5,0 km/h (1 Bft) S-SW 207 0 min 0,000 mm 0,0 UV-I 0 W/m 15,0 C 18,3 C 8,0 km/h (2 Bft) 98,57 %
25.06.2017 23:38 18,3 C 25,6 C 81 % 1012,9 hPa 0,0 l/m 5,5 km/h (1 Bft) S-SW 203 0 min 0,000 mm 0,0 UV-I 0 W/m 15,0 C 18,3 C 8,0 km/h (2 Bft) 100,00 %
25.06.2017 23:40 18,3 C 25,6 C 81 % 1012,9 hPa 0,0 l/m 4,1 km/h (1 Bft) SW 223 0 min 0,000 mm 0,0 UV-I 0 W/m 15,0 C 18,3 C 9,7 km/h (2 Bft) 100,00 %
25.06.2017 23:42 18,3 C 25,6 C 81 % 1012,9 hPa 0,0 l/m 5,7 km/h (1 Bft) SW 216 0 min 0,000 mm 0,0 UV-I 0 W/m 15,0 C 18,3 C 9,7 km/h (2 Bft) 100,00 %
25.06.2017 23:44 18,3 C 25,6 C 81 % 1012,9 hPa 0,0 l/m 5,0 km/h (1 Bft) S 191 0 min 0,000 mm 0,0 UV-I 0 W/m 15,0 C 18,3 C 11,3 km/h (2 Bft) 97,87 %
25.06.2017 23:46 18,3 C 25,6 C 81 % 1012,9 hPa 0,0 l/m 4,5 km/h (1 Bft) S-SW 196 0 min 0,000 mm 0,0 UV-I 0 W/m 15,0 C 18,3 C 8,0 km/h (2 Bft) 97,56 %
25.06.2017 23:48 18,4 C 25,6 C 80 % 1013,0 hPa 0,0 l/m 5,3 km/h (1 Bft) S 190 0 min 0,000 mm 0,0 UV-I 0 W/m 14,9 C 18,4 C 8,0 km/h (2 Bft) 98,00 %
25.06.2017 23:50 18,4 C 25,6 C 80 % 1013,0 hPa 0,0 l/m 6,0 km/h (2 Bft) S 187 0 min 0,000 mm 0,0 UV-I 0 W/m 14,9 C 18,4 C 8,0 km/h (2 Bft) 100,00 %
25.06.2017 23:52 18,4 C 25,6 C 80 % 1012,9 hPa 0,0 l/m 6,1 km/h (2 Bft) S 174 0 min 0,000 mm 0,0 UV-I 0 W/m 14,9 C 18,4 C 11,3 km/h (2 Bft) 97,73 %
25.06.2017 23:54 18,4 C 25,6 C 81 % 1012,9 hPa 0,0 l/m 5,3 km/h (1 Bft) S-SW 206 0 min 0,000 mm 0,0 UV-I 0 W/m 15,1 C 18,4 C 8,0 km/h (2 Bft) 97,56 %
25.06.2017 23:56 18,4 C 25,6 C 80 % 1012,9 hPa 0,0 l/m 5,9 km/h (2 Bft) S-SW 208 0 min 0,000 mm 0,0 UV-I 0 W/m 14,9 C 18,4 C 8,0 km/h (2 Bft) 94,34 %
25.06.2017 23:58 18,4 C 25,6 C 80 % 1012,9 hPa 0,0 l/m 5,3 km/h (1 Bft) W-SW 245 0 min 0,000 mm 0,0 UV-I 0 W/m 14,9 C 18,4 C 8,0 km/h (2 Bft) 96,23 %
_ Min-Zeit 14:14 17:12 09:06 20:56 - 08:12 - - - - - - 09:06 14:02 08:12 18:26
Minimum _ 18,1 C 25,6 C 50 % 1011,3 hPa - 0,3 km/h (0 Bft) - - - - - - 12,8 C 14,8 C 1,6 km/h (1 Bft) 88,68 %
_ Max-Zeit 09:10 00:00 14:32 14:10 11:34 14:02 - - 05:18 09:00 15:22 07:56 12:18 09:10 14:08 00:06
Maximum _ 24,1 C 27,8 C 93 % 1013,3 hPa 0,2 l/m 16,7 km/h
W (3 Bft)
- - 2 min 0,254 mm 2,3 UV-I 434 W/m 18,3 C 24,1 C 25,7 km/h
SW (4 Bft)
100,00 %
Durchschnitt _ 20,7 C 26,6 C 76 % 1012,2 hPa #5,8 l/m 7,3 km/h (2 Bft) SW - #5:18 h #2,286 mm 1,0 UV-I 171 W/m 16,2 C 20,0 C 11,7 km/h (2 Bft) 96,91 %